[[{"header":{"parameterUnit":"m.s-1","parameterCategory":1,"la1":31.0,"la2":29.5877,"lo1":-88.7671,"lo2":-86.6584,"dy":0.0162,"dx":0.0185,"nx":115,"ny":88,"refTime":"2023-04-01T12:00:00:Z","depth":0,"parameterNumber":2,"parameterNumberName":"U-component_of_WINDS"},"data":[0.0,0.0,0.0,0.0,0.0,0.0,0.0,0.0,0.0,0.0,0.0,0.0,0.0,0.0,0.0,0.0,0.0,0.0,0.0,0.0,0.0,0.0,0.0,0.0,0.0,0.0,0.0,0.0,0.0,0.0,0.0,0.0,0.0,0.0,0.0,0.0,0.0,0.0,0.0,0.0,0.0,0.0,0.0,0.0,0.0,0.0,0.0,0.0,0.0,0.0,0.0,0.0,0.0,0.0,0.0,0.0,0.0,0.0,0.0,0.0,0.0,0.0,0.0,0.0,0.0,0.0,0.0,0.0,0.0,0.0,0.0,0.0,0.0,0.0,0.0,0.0,0.0,0.0,0.0,0.0,0.0,0.0,0.0,0.0,0.0,0.0,0.0,0.0,0.0,0.0,0.0,0.0,0.0,0.0,0.0,0.0,0.0,0.0,0.0,0.0,0.0,0.0,0.0,0.0,0.0,0.0,0.0,0.0,0.0,0.0,0.0,0.0,0.0,0.0,0.0,0.0,0.0,0.0,0.0,0.0,0.0,0.0,0.0,0.0,0.0,0.0,0.0,0.0,0.0,0.0,0.0,0.0,0.0,0.0,0.0,0.0,0.0,0.0,0.0,0.0,0.0,0.0,0.0,0.0,0.0,0.0,0.0,0.0,0.0,0.0,0.0,0.0,0.0,0.0,0.0,0.0,0.0,0.0,0.0,0.0,0.0,0.0,0.0,0.0,0.0,0.0,0.0,0.0,0.0,0.0,0.0,0.0,0.0,0.0,0.0,0.0,0.0,0.0,0.0,0.0,0.0,0.0,0.0,0.0,0.0,0.0,0.0,0.0,0.0,0.0,0.0,0.0,0.0,0.0,0.0,0.0,0.0,0.0,0.0,0.0,0.0,0.0,0.0,0.0,0.0,0.0,0.0,0.0,0.0,0.0,0.0,0.0,0.0,0.0,0.0,0.0,0.0,0.0,0.0,0.0,0.0,0.0,0.0,0.0,0.0,0.0,0.0,0.0,0.0,0.0,0.0,0.0,0.0,0.0,0.0,0.0,0.0,0.0,0.0,0.0,0.0,0.0,0.0,0.0,0.0,0.0,0.0,0.0,0.0,0.0,0.0,0.0,0.0,0.0,0.0,0.0,0.0,0.0,0.0,0.0,0.0,0.0,0.0,0.0,0.0,0.0,0.0,0.0,0.0,0.0,0.0,0.0,0.0,0.0,0.0,0.0,0.0,0.0,0.0,0.0,0.0,0.0,0.0,0.0,0.0,0.0,0.0,0.0,0.0,0.0,0.0,0.0,0.0,0.0,0.0,0.0,0.0,0.0,0.0,0.0,0.0,0.0,0.0,0.0,0.0,0.0,0.0,0.0,0.0,0.0,0.0,0.0,0.0,0.0,0.0,0.0,0.0,0.0,0.0,0.0,0.0,0.0,0.0,0.0,0.0,0.0,0.0,0.0,0.0,0.0,0.0,0.0,0.0,0.0,0.0,0.0,0.0,0.0,0.0,0.0,0.0,0.0,0.0,0.0,0.0,0.0,0.0,0.0,0.0,0.0,0.0,0.0,0.0,0.0,0.0,0.0,0.0,0.0,0.0,0.0,0.0,0.0,0.0,0.0,0.0,0.0,0.0,0.0,0.0,0.0,0.0,0.0,0.0,0.0,0.0,0.0,0.0,0.0,0.0,0.0,0.0,0.0,0.0,0.0,0.0,0.0,0.0,0.0,0.0,0.0,0.0,0.0,0.0,0.0,0.0,0.0,0.0,0.0,0.0,0.0,0.0,0.0,0.0,0.0,0.0,0.0,0.0,0.0,0.0,0.0,0.0,0.0,0.0,0.0,0.0,0.0,0.0,0.0,0.0,0.0,0.0,0.0,0.0,0.0,0.0,0.0,0.0,0.0,0.0,0.0,0.0,0.0,0.0,0.0,0.0,0.0,0.0,0.0,0.0,0.0,0.0,0.0,0.0,0.0,0.0,0.0,0.0,0.0,0.0,0.0,0.0,0.0,0.0,0.0,0.0,0.0,0.0,0.0,0.0,0.0,0.0,0.0,0.0,0.0,0.0,0.0,0.0,0.0,0.0,0.0,0.0,0.0,0.0,0.0,0.0,0.0,0.0,0.0,0.0,0.0,0.0,0.0,0.0,0.0,0.0,0.0,0.0,0.0,0.0,0.0,0.0,0.0,0.0,0.0,0.0,0.0,0.0,0.0,0.0,0.0,0.0,0.0,0.0,0.0,0.0,0.0,0.0,0.0,0.0,0.0,0.0,0.0,0.0,0.0,0.0,0.0,0.0,0.0,0.0,0.0,0.0,0.0,0.0,0.0,0.0,0.0,0.0,0.0,0.0,0.0,0.0,0.0,0.0,0.0,0.0,0.0,0.0,0.0,0.0,0.0,0.0,0.0,0.0,0.0,0.0,0.0,0.0,0.0,0.0,0.0,0.0,0.0,0.0,0.0,0.0,0.0,0.0,0.0,0.0,0.0,0.0,0.0,0.0,0.0,0.0,0.0,0.0,0.0,0.0,0.0,0.0,0.0,0.0,0.0,0.0,0.0,0.0,0.0,0.0,0.0,0.0,0.0,0.0,0.0,0.0,0.0,0.0,0.0,0.0,0.0,0.0,0.0,0.0,0.0,0.0,0.0,0.0,0.0,0.0,0.0,0.0,0.0,0.0,0.0,0.0,0.0,0.0,0.0,0.0,0.0,0.0,0.0,0.0,0.0,0.0,0.0,0.0,0.0,0.0,0.0,0.0,0.0,0.0,0.0,0.0,0.0,0.0,0.0,0.0,0.0,0.0,0.0,0.0,0.0,0.0,0.0,0.0,0.0,0.0,0.0,0.0,0.0,0.0,0.0,0.0,0.0,0.0,0.0,0.0,0.0,0.0,0.0,0.0,0.0,0.0,0.0,0.0,0.0,0.0,0.0,0.0,0.0,0.0,0.0,0.0,0.0,0.0,0.0,0.0,0.0,0.0,0.0,0.0,0.0,0.0,0.0,0.0,0.0,0.0,0.0,0.0,0.0,0.0,0.0,0.0,0.0,0.0,0.0,0.0,0.0,0.0,0.0,0.0,0.0,0.0,0.0,0.0,0.0,0.0,0.0,0.0,0.0,0.0,0.0,0.0,0.0,0.0,0.0,0.0,0.0,0.0,0.0,0.0,0.0,0.0,0.0,0.0,0.0,0.0,0.0,0.0,0.0,0.0,0.0,0.0,0.0,0.0,0.0,0.0,0.0,0.0,0.0,0.0,0.0,0.0,0.0,0.0,0.0,0.0,0.0,0.0,0.0,0.0,0.0,0.0,0.0,0.0,0.0,0.0,0.0,0.0,0.0,0.0,0.0,0.0,0.0,0.0,0.0,0.0,0.0,0.0,0.0,0.0,0.0,0.0,0.0,0.0,0.0,0.0,0.0,0.0,0.0,0.0,0.0,0.0,0.0,0.0,0.0,0.0,0.0,0.0,0.0,0.0,0.0,0.0,0.0,0.0,0.0,0.0,0.0,0.0,0.0,0.0,0.0,0.0,0.0,0.0,0.0,0.0,0.0,0.0,0.0,0.0,0.0,0.0,0.0,0.0,0.0,0.0,0.0,0.0,0.0,0.0,0.0,0.0,0.0,0.0,0.0,0.0,0.0,0.0,0.0,0.0,0.0,0.0,0.0,0.0,0.0,0.0,0.0,0.0,0.0,0.0,0.0,0.0,0.0,0.0,0.0,0.0,0.0,0.0,0.0,0.0,0.0,0.0,0.0,0.0,0.0,0.0,0.0,0.0,0.0,0.0,0.0,0.0,0.0,0.0,0.0,0.0,0.0,0.0,0.0,0.0,0.0,0.0,0.0,0.0,0.0,0.0,0.0,0.0,0.0,0.0,0.0,0.0,0.0,0.0,0.0,0.0,0.0,0.0,0.0,0.0,0.0,0.0,0.0,0.0,0.0,0.0,0.0,0.0,0.0,0.0,0.0,0.0,0.0,0.0,0.0,0.0,0.0,0.0,0.0,0.0,0.0,0.0,0.0,0.0,0.0,0.0,0.0,0.0,0.0,0.0,0.0,0.0,0.0,0.0,0.0,0.0,0.0,0.0,0.0,0.0,0.0,0.0,0.0,0.0,0.0,0.0,0.0,0.0,0.0,0.0,0.0,0.0,0.0,0.0,0.0,0.0,0.0,0.0,0.0,0.0,0.0,0.0,0.0,0.0,0.0,0.0,0.0,0.0,0.0,0.0,0.0,0.0,0.0,0.0,0.0,0.0,0.0,0.0,0.0,0.0,0.0,0.0,0.0,-4.9893,0.0,0.0,0.0,0.0,0.0,0.0,0.0,0.0,0.0,0.0,0.0,0.0,0.0,0.0,0.0,0.0,0.0,0.0,0.0,0.0,0.0,0.0,0.0,0.0,0.0,0.0,0.0,0.0,0.0,0.0,0.0,0.0,0.0,0.0,0.0,0.0,0.0,0.0,0.0,0.0,0.0,0.0,0.0,0.0,0.0,0.0,0.0,0.0,0.0,0.0,0.0,0.0,0.0,0.0,0.0,0.0,0.0,0.0,0.0,0.0,0.0,0.0,0.0,0.0,0.0,0.0,0.0,0.0,0.0,0.0,0.0,0.0,0.0,0.0,0.0,0.0,0.0,0.0,0.0,0.0,0.0,0.0,0.0,0.0,0.0,0.0,0.0,0.0,0.0,0.0,0.0,0.0,0.0,0.0,0.0,0.0,0.0,0.0,0.0,0.0,0.0,0.0,0.0,0.0,0.0,0.0,0.0,0.0,0.0,0.0,-4.9893,-4.9893,-4.9893,-4.9893,-4.9893,0.0,0.0,0.0,0.0,0.0,0.0,0.0,0.0,0.0,0.0,0.0,0.0,0.0,0.0,0.0,0.0,0.0,0.0,0.0,0.0,0.0,0.0,0.0,0.0,0.0,0.0,0.0,0.0,0.0,0.0,0.0,0.0,0.0,0.0,0.0,0.0,0.0,0.0,0.0,0.0,0.0,0.0,0.0,0.0,0.0,0.0,0.0,0.0,0.0,0.0,0.0,0.0,0.0,0.0,0.0,0.0,0.0,0.0,0.0,0.0,0.0,0.0,0.0,0.0,0.0,0.0,0.0,0.0,0.0,0.0,0.0,0.0,0.0,0.0,0.0,0.0,0.0,0.0,0.0,0.0,0.0,0.0,0.0,0.0,0.0,0.0,0.0,0.0,0.0,0.0,0.0,0.0,0.0,0.0,0.0,0.0,0.0,0.0,0.0,0.0,0.0,0.0,0.0,0.0,0.0,0.0,0.0,0.0,0.0,0.0,0.0,0.0,-4.9893,-4.9893,-4.9893,0.0,0.0,0.0,0.0,0.0,0.0,0.0,0.0,0.0,0.0,0.0,0.0,0.0,0.0,0.0,0.0,0.0,0.0,0.0,0.0,0.0,0.0,0.0,0.0,0.0,0.0,0.0,0.0,0.0,0.0,0.0,0.0,0.0,0.0,0.0,0.0,0.0,0.0,0.0,0.0,0.0,0.0,0.0,0.0,0.0,0.0,0.0,0.0,0.0,0.0,0.0,0.0,0.0,0.0,0.0,0.0,0.0,0.0,0.0,0.0,0.0,0.0,0.0,0.0,0.0,0.0,0.0,0.0,0.0,0.0,0.0,0.0,0.0,0.0,0.0,0.0,0.0,0.0,0.0,0.0,0.0,0.0,0.0,0.0,0.0,0.0,0.0,0.0,0.0,0.0,0.0,0.0,0.0,0.0,0.0,0.0,0.0,0.0,0.0,0.0,0.0,0.0,0.0,0.0,0.0,0.0,0.0,0.0,0.0,0.0,-4.9893,-4.9893,-4.9893,0.0,-4.9893,0.0,0.0,0.0,0.0,0.0,0.0,0.0,0.0,0.0,0.0,0.0,0.0,0.0,0.0,0.0,0.0,0.0,0.0,0.0,0.0,0.0,0.0,0.0,0.0,0.0,0.0,0.0,0.0,0.0,0.0,0.0,0.0,0.0,0.0,0.0,0.0,0.0,0.0,0.0,0.0,0.0,0.0,0.0,0.0,0.0,0.0,0.0,0.0,0.0,0.0,0.0,0.0,0.0,0.0,0.0,0.0,0.0,0.0,0.0,0.0,0.0,0.0,0.0,0.0,0.0,0.0,0.0,0.0,0.0,0.0,0.0,0.0,0.0,0.0,0.0,0.0,0.0,0.0,0.0,0.0,0.0,0.0,0.0,0.0,0.0,0.0,0.0,0.0,0.0,0.0,0.0,0.0,0.0,0.0,0.0,0.0,0.0,0.0,0.0,0.0,0.0,0.0,0.0,0.0,0.0,0.0,0.0,0.0,0.0,0.0,-4.9838,-4.9893,-4.9893,-4.9893,0.0,0.0,0.0,0.0,0.0,0.0,0.0,0.0,0.0,0.0,0.0,0.0,0.0,0.0,0.0,0.0,0.0,0.0,0.0,0.0,0.0,0.0,0.0,0.0,0.0,0.0,0.0,0.0,0.0,0.0,0.0,0.0,0.0,0.0,0.0,0.0,0.0,0.0,0.0,0.0,0.0,0.0,0.0,0.0,0.0,0.0,0.0,0.0,0.0,0.0,0.0,0.0,0.0,0.0,0.0,0.0,0.0,0.0,0.0,0.0,0.0,0.0,0.0,0.0,0.0,0.0,0.0,0.0,0.0,0.0,0.0,0.0,0.0,0.0,0.0,0.0,0.0,0.0,0.0,0.0,0.0,0.0,0.0,0.0,0.0,0.0,0.0,0.0,0.0,0.0,0.0,0.0,0.0,0.0,0.0,0.0,0.0,0.0,0.0,0.0,0.0,0.0,0.0,0.0,0.0,0.0,0.0,0.0,0.0,0.0,-4.9736,-4.9778,-4.9824,-4.9824,-4.9824,-4.9824,0.0,0.0,0.0,0.0,0.0,0.0,0.0,0.0,0.0,0.0,0.0,0.0,0.0,0.0,0.0,0.0,0.0,0.0,0.0,0.0,0.0,0.0,0.0,0.0,0.0,0.0,0.0,0.0,0.0,0.0,0.0,0.0,0.0,0.0,0.0,0.0,0.0,0.0,0.0,0.0,0.0,0.0,0.0,0.0,0.0,0.0,0.0,0.0,0.0,0.0,0.0,0.0,0.0,0.0,0.0,0.0,0.0,0.0,0.0,0.0,0.0,0.0,0.0,0.0,0.0,0.0,0.0,0.0,0.0,0.0,0.0,0.0,0.0,0.0,0.0,0.0,0.0,0.0,0.0,0.0,0.0,0.0,0.0,0.0,0.0,0.0,0.0,0.0,0.0,0.0,0.0,0.0,0.0,0.0,0.0,0.0,0.0,0.0,0.0,0.0,0.0,0.0,0.0,0.0,0.0,0.0,0.0,0.0,-4.9589,-4.9589,-4.9634,-4.9707,-4.9707,-4.9707,0.0,0.0,0.0,0.0,0.0,0.0,0.0,0.0,0.0,0.0,0.0,0.0,0.0,0.0,0.0,0.0,0.0,0.0,0.0,0.0,0.0,0.0,0.0,0.0,0.0,0.0,0.0,0.0,0.0,0.0,0.0,0.0,0.0,0.0,0.0,0.0,0.0,0.0,0.0,0.0,0.0,0.0,0.0,0.0,0.0,0.0,0.0,0.0,0.0,0.0,0.0,0.0,0.0,0.0,0.0,0.0,0.0,0.0,0.0,0.0,0.0,0.0,0.0,0.0,0.0,0.0,0.0,0.0,0.0,0.0,0.0,0.0,0.0,0.0,0.0,0.0,0.0,0.0,0.0,0.0,0.0,0.0,0.0,0.0,0.0,0.0,0.0,0.0,0.0,0.0,0.0,0.0,0.0,0.0,0.0,0.0,0.0,0.0,0.0,0.0,0.0,0.0,0.0,0.0,0.0,0.0,0.0,0.0,0.0,-4.9343,-4.9415,-4.9476,-4.9506,-4.9506,-4.9491,0.0,0.0,0.0,0.0,0.0,0.0,0.0,0.0,0.0,0.0,0.0,0.0,0.0,0.0,0.0,0.0,0.0,0.0,0.0,0.0,0.0,0.0,0.0,0.0,0.0,0.0,0.0,0.0,0.0,0.0,0.0,0.0,0.0,0.0,0.0,0.0,0.0,0.0,0.0,0.0,0.0,0.0,0.0,0.0,0.0,0.0,0.0,0.0,0.0,0.0,0.0,0.0,0.0,0.0,0.0,0.0,0.0,0.0,0.0,0.0,0.0,0.0,0.0,0.0,0.0,0.0,0.0,0.0,0.0,0.0,0.0,0.0,0.0,0.0,0.0,0.0,0.0,0.0,0.0,0.0,0.0,0.0,0.0,0.0,0.0,0.0,0.0,0.0,0.0,0.0,0.0,0.0,0.0,0.0,0.0,0.0,0.0,0.0,0.0,0.0,0.0,0.0,0.0,0.0,0.0,0.0,0.0,0.0,0.0,-4.9081,0.0,-4.9241,-4.9241,-4.9241,-4.9241,0.0,0.0,0.0,0.0,0.0,0.0,0.0,0.0,0.0,0.0,0.0,0.0,0.0,0.0,0.0,0.0,0.0,0.0,0.0,0.0,0.0,0.0,0.0,0.0,0.0,0.0,0.0,0.0,0.0,0.0,0.0,0.0,0.0,0.0,0.0,0.0,0.0,0.0,0.0,0.0,0.0,0.0,0.0,0.0,0.0,0.0,0.0,0.0,0.0,0.0,0.0,0.0,0.0,0.0,0.0,0.0,0.0,0.0,0.0,0.0,0.0,0.0,0.0,0.0,0.0,0.0,0.0,0.0,0.0,0.0,0.0,0.0,0.0,0.0,0.0,0.0,0.0,0.0,0.0,0.0,0.0,0.0,0.0,0.0,0.0,0.0,0.0,0.0,0.0,0.0,0.0,0.0,0.0,0.0,0.0,0.0,0.0,0.0,0.0,0.0,0.0,0.0,0.0,0.0,0.0,0.0,0.0,0.0,-4.866,-4.8787,-4.8875,-4.889,-4.889,-4.889,-4.889,0.0,0.0,0.0,0.0,0.0,0.0,0.0,0.0,0.0,0.0,0.0,0.0,0.0,0.0,0.0,0.0,0.0,0.0,0.0,0.0,0.0,0.0,0.0,0.0,0.0,0.0,0.0,0.0,0.0,0.0,0.0,0.0,0.0,0.0,0.0,0.0,0.0,0.0,0.0,0.0,0.0,0.0,0.0,0.0,0.0,0.0,0.0,0.0,0.0,0.0,0.0,0.0,0.0,0.0,0.0,0.0,0.0,0.0,0.0,0.0,0.0,0.0,0.0,0.0,0.0,0.0,0.0,0.0,0.0,0.0,0.0,0.0,0.0,0.0,0.0,0.0,0.0,0.0,0.0,0.0,0.0,0.0,0.0,0.0,0.0,0.0,0.0,0.0,0.0,0.0,0.0,0.0,0.0,0.0,0.0,0.0,0.0,0.0,0.0,0.0,0.0,0.0,0.0,0.0,0.0,0.0,0.0,0.0,0.0,-4.8439,-4.8569,-4.8661,-4.8696,-4.8696,-4.8696,0.0,0.0,0.0,0.0,0.0,0.0,0.0,0.0,0.0,0.0,0.0,0.0,0.0,0.0,0.0,0.0,0.0,0.0,0.0,0.0,0.0,0.0,0.0,0.0,0.0,0.0,0.0,0.0,0.0,0.0,0.0,0.0,0.0,0.0,0.0,0.0,0.0,0.0,0.0,0.0,0.0,0.0,0.0,0.0,0.0,0.0,0.0,0.0,0.0,0.0,0.0,0.0,0.0,0.0,0.0,0.0,0.0,0.0,0.0,0.0,0.0,0.0,0.0,0.0,0.0,0.0,0.0,0.0,0.0,0.0,0.0,0.0,0.0,0.0,0.0,0.0,0.0,0.0,0.0,0.0,0.0,0.0,0.0,0.0,0.0,0.0,0.0,0.0,0.0,0.0,0.0,0.0,0.0,0.0,0.0,0.0,0.0,0.0,0.0,0.0,0.0,0.0,0.0,0.0,0.0,0.0,0.0,0.0,0.0,-4.857,-4.8412,-4.8325,-4.8364,-4.8401,-4.842,-4.8439,0.0,0.0,0.0,0.0,0.0,0.0,0.0,0.0,0.0,0.0,0.0,0.0,0.0,0.0,0.0,0.0,0.0,0.0,0.0,0.0,0.0,0.0,0.0,0.0,0.0,0.0,0.0,0.0,0.0,0.0,0.0,0.0,0.0,0.0,0.0,0.0,0.0,0.0,0.0,0.0,0.0,0.0,0.0,0.0,0.0,0.0,0.0,0.0,0.0,0.0,0.0,0.0,0.0,0.0,0.0,0.0,0.0,0.0,0.0,0.0,0.0,0.0,0.0,0.0,0.0,0.0,0.0,0.0,0.0,0.0,0.0,0.0,0.0,0.0,0.0,0.0,0.0,0.0,0.0,0.0,0.0,0.0,0.0,0.0,0.0,0.0,0.0,0.0,0.0,0.0,0.0,0.0,0.0,0.0,0.0,0.0,0.0,0.0,0.0,0.0,0.0,0.0,0.0,0.0,0.0,0.0,0.0,0.0,-4.9138,-4.8478,-4.8138,-4.8138,-4.8121,-4.8125,0.0,0.0,0.0,0.0,0.0,0.0,0.0,0.0,0.0,0.0,0.0,0.0,0.0,0.0,0.0,0.0,0.0,0.0,0.0,0.0,0.0,0.0,0.0,0.0,0.0,0.0,0.0,0.0,0.0,0.0,0.0,0.0,0.0,0.0,0.0,0.0,0.0,0.0,0.0,0.0,0.0,0.0,0.0,0.0,0.0,0.0,0.0,0.0,0.0,0.0,0.0,0.0,0.0,0.0,0.0,0.0,0.0,0.0,0.0,0.0,0.0,0.0,0.0,0.0,0.0,0.0,0.0,0.0,0.0,0.0,0.0,0.0,0.0,0.0,0.0,0.0,0.0,0.0,0.0,0.0,0.0,0.0,0.0,0.0,0.0,0.0,0.0,0.0,0.0,0.0,0.0,0.0,0.0,0.0,0.0,0.0,0.0,0.0,0.0,0.0,0.0,0.0,0.0,0.0,0.0,0.0,0.0,0.0,0.0,-4.9793,-4.9669,-4.961,-4.9758,-4.9195,-4.8924,0.0,0.0,0.0,0.0,0.0,0.0,0.0,0.0,0.0,0.0,0.0,0.0,0.0,0.0,0.0,0.0,0.0,0.0,0.0,0.0,0.0,0.0,0.0,0.0,0.0,0.0,0.0,0.0,0.0,0.0,0.0,0.0,0.0,0.0,0.0,0.0,0.0,0.0,0.0,0.0,0.0,0.0,0.0,0.0,0.0,0.0,0.0,0.0,0.0,0.0,0.0,0.0,0.0,0.0,0.0,0.0,0.0,0.0,0.0,0.0,0.0,0.0,0.0,0.0,0.0,0.0,0.0,0.0,0.0,0.0,0.0,0.0,0.0,0.0,0.0,0.0,0.0,0.0,0.0,0.0,0.0,0.0,0.0,0.0,0.0,0.0,0.0,0.0,0.0,0.0,0.0,0.0,0.0,0.0,0.0,0.0,0.0,0.0,0.0,0.0,0.0,0.0,0.0,0.0,0.0,0.0,0.0,0.0,-4.9945,-5.109,-5.1452,-5.1679,-5.1791,-5.0359,-4.9434,0.0,0.0,0.0,0.0,0.0,0.0,0.0,0.0,0.0,0.0,0.0,0.0,0.0,0.0,0.0,0.0,0.0,0.0,0.0,0.0,0.0,0.0,0.0,0.0,0.0,0.0,0.0,0.0,0.0,0.0,0.0,0.0,0.0,0.0,0.0,0.0,0.0,0.0,0.0,0.0,0.0,0.0,0.0,0.0,0.0,0.0,0.0,0.0,0.0,0.0,0.0,0.0,0.0,0.0,0.0,0.0,0.0,0.0,0.0,0.0,0.0,0.0,0.0,0.0,0.0,0.0,0.0,0.0,0.0,0.0,0.0,0.0,0.0,0.0,0.0,0.0,0.0,0.0,0.0,0.0,0.0,0.0,0.0,0.0,0.0,0.0,0.0,0.0,0.0,0.0,0.0,0.0,0.0,0.0,0.0,0.0,0.0,0.0,0.0,0.0,0.0,0.0,0.0,0.0,0.0,0.0,0.0,0.0,-5.0995,-5.2589,-5.3313,-5.3711,-5.3639,-5.1502,-5.0047,0.0,0.0,0.0,0.0,0.0,0.0,0.0,0.0,0.0,0.0,0.0,0.0,0.0,0.0,0.0,0.0,0.0,0.0,0.0,0.0,0.0,0.0,0.0,0.0,0.0,0.0,0.0,0.0,0.0,0.0,0.0,0.0,0.0,0.0,0.0,0.0,0.0,0.0,0.0,0.0,0.0,0.0,0.0,0.0,0.0,0.0,0.0,0.0,0.0,0.0,0.0,0.0,0.0,0.0,0.0,0.0,0.0,0.0,0.0,0.0,0.0,0.0,0.0,0.0,0.0,0.0,0.0,0.0,0.0,0.0,0.0,0.0,0.0,0.0,0.0,0.0,0.0,0.0,0.0,0.0,0.0,0.0,0.0,0.0,0.0,0.0,0.0,0.0,0.0,0.0,0.0,0.0,0.0,0.0,0.0,0.0,0.0,0.0,0.0,0.0,0.0,0.0,0.0,0.0,0.0,0.0,0.0,0.0,-5.1828,-5.3385,-5.3603,-5.3711,-5.3675,-5.2589,-5.1633,0.0,0.0,0.0,0.0,0.0,0.0,0.0,0.0,0.0,0.0,0.0,0.0,0.0,0.0,0.0,0.0,0.0,0.0,0.0,0.0,0.0,0.0,0.0,0.0,0.0,0.0,0.0,0.0,0.0,0.0,0.0,0.0,0.0,0.0,0.0,0.0,0.0,0.0,0.0,0.0,0.0,0.0,0.0,0.0,0.0,0.0,0.0,0.0,-4.5055,0.0,0.0,0.0,0.0,0.0,0.0,0.0,0.0,0.0,0.0,0.0,0.0,0.0,0.0,0.0,0.0,0.0,0.0,0.0,0.0,0.0,0.0,0.0,0.0,0.0,0.0,0.0,0.0,0.0,0.0,0.0,0.0,0.0,0.0,0.0,0.0,0.0,0.0,0.0,0.0,0.0,0.0,0.0,0.0,0.0,0.0,0.0,0.0,0.0,0.0,0.0,0.0,0.0,0.0,0.0,0.0,0.0,0.0,0.0,-5.2263,-5.4182,-5.4255,-5.4255,-5.4255,-5.3856,-5.2878,0.0,0.0,0.0,0.0,0.0,0.0,0.0,0.0,0.0,0.0,0.0,0.0,0.0,0.0,0.0,0.0,0.0,0.0,0.0,0.0,0.0,0.0,0.0,0.0,0.0,0.0,0.0,0.0,0.0,0.0,0.0,0.0,0.0,0.0,0.0,0.0,0.0,0.0,0.0,0.0,0.0,0.0,0.0,0.0,0.0,0.0,0.0,0.0,0.0,0.0,0.0,0.0,0.0,0.0,0.0,0.0,0.0,0.0,0.0,0.0,0.0,0.0,0.0,0.0,0.0,0.0,0.0,0.0,0.0,0.0,0.0,0.0,0.0,0.0,0.0,0.0,0.0,0.0,0.0,0.0,0.0,0.0,0.0,0.0,0.0,0.0,0.0,0.0,0.0,0.0,0.0,0.0,0.0,0.0,0.0,0.0,0.0,0.0,0.0,0.0,0.0,0.0,0.0,0.0,0.0,0.0,0.0,-5.0995,-5.2552,-5.4617,-5.4725,-5.4725,-5.4725,-5.4725,-5.3711,-5.1574,0.0,0.0,0.0,0.0,0.0,0.0,0.0,0.0,0.0,0.0,0.0,0.0,0.0,0.0,0.0,0.0,0.0,0.0,0.0,0.0,0.0,0.0,0.0,0.0,0.0,0.0,0.0,0.0,0.0,0.0,0.0,0.0,0.0,0.0,0.0,0.0,0.0,0.0,-4.7699,-4.7699,0.0,0.0,0.0,0.0,0.0,0.0,0.0,0.0,-4.7017,0.0,0.0,0.0,0.0,0.0,0.0,0.0,0.0,0.0,0.0,0.0,0.0,0.0,0.0,0.0,0.0,0.0,0.0,0.0,0.0,0.0,0.0,0.0,0.0,0.0,0.0,0.0,0.0,0.0,0.0,0.0,0.0,0.0,0.0,0.0,0.0,0.0,0.0,0.0,0.0,0.0,0.0,0.0,0.0,0.0,0.0,0.0,0.0,0.0,0.0,0.0,0.0,0.0,0.0,0.0,0.0,-5.0112,-5.1538,-5.2806,-5.3856,-5.3892,-5.3892,-5.3892,-5.3892,-5.3385,-5.2335,0.0,0.0,0.0,0.0,0.0,0.0,0.0,0.0,0.0,0.0,0.0,0.0,0.0,0.0,0.0,0.0,0.0,0.0,0.0,0.0,0.0,0.0,0.0,0.0,0.0,0.0,0.0,0.0,0.0,0.0,0.0,0.0,0.0,0.0,0.0,0.0,0.0,0.0,0.0,-4.7699,-4.7657,0.0,0.0,0.0,0.0,0.0,0.0,0.0,0.0,-4.727,0.0,0.0,0.0,0.0,0.0,0.0,0.0,0.0,0.0,0.0,0.0,0.0,0.0,0.0,0.0,0.0,0.0,0.0,0.0,0.0,0.0,0.0,0.0,0.0,0.0,0.0,0.0,0.0,0.0,0.0,0.0,0.0,0.0,0.0,0.0,0.0,0.0,0.0,0.0,0.0,0.0,0.0,0.0,0.0,0.0,0.0,0.0,0.0,0.0,0.0,0.0,0.0,0.0,0.0,0.0,-4.9983,-5.1463,-5.269,-5.3448,-5.3484,-5.3484,-5.3484,-5.3484,-5.3123,0.0,0.0,0.0,0.0,0.0,0.0,0.0,0.0,0.0,0.0,0.0,0.0,0.0,0.0,0.0,0.0,0.0,0.0,0.0,0.0,0.0,0.0,0.0,0.0,0.0,0.0,0.0,0.0,0.0,0.0,0.0,0.0,0.0,0.0,0.0,0.0,0.0,0.0,0.0,0.0,-4.7508,-4.745,-4.7407,0.0,0.0,0.0,0.0,0.0,0.0,-4.7267,-4.7245,0.0,0.0,0.0,0.0,0.0,0.0,0.0,0.0,0.0,0.0,0.0,0.0,0.0,0.0,0.0,0.0,0.0,0.0,0.0,0.0,0.0,0.0,0.0,0.0,0.0,0.0,0.0,0.0,0.0,0.0,0.0,0.0,0.0,0.0,0.0,0.0,0.0,0.0,0.0,0.0,0.0,0.0,0.0,0.0,0.0,0.0,0.0,0.0,0.0,0.0,0.0,0.0,0.0,0.0,0.0,-4.998,-5.1347,-5.239,-5.3037,-5.3037,-5.3037,-5.3037,-5.3037,-5.2749,0.0,0.0,0.0,0.0,0.0,0.0,0.0,0.0,0.0,0.0,0.0,0.0,0.0,0.0,0.0,0.0,0.0,0.0,0.0,0.0,0.0,0.0,0.0,0.0,0.0,0.0,0.0,0.0,0.0,0.0,0.0,0.0,0.0,0.0,0.0,0.0,0.0,0.0,0.0,0.0,0.0,-4.7298,-4.7218,-4.7232,0.0,0.0,0.0,0.0,-4.7088,-4.7088,0.0,0.0,0.0,0.0,0.0,0.0,0.0,0.0,0.0,0.0,0.0,0.0,0.0,0.0,0.0,0.0,0.0,0.0,0.0,0.0,0.0,0.0,0.0,0.0,0.0,0.0,0.0,0.0,0.0,0.0,0.0,0.0,0.0,0.0,0.0,0.0,0.0,0.0,0.0,0.0,0.0,0.0,0.0,0.0,0.0,0.0,0.0,0.0,0.0,0.0,0.0,0.0,0.0,0.0,0.0,0.0,-5.0807,-5.1634,-5.2138,-5.221,-5.2246,-5.2246,-5.221,-5.2246,-5.221,0.0,0.0,0.0,0.0,0.0,0.0,0.0,0.0,0.0,0.0,0.0,0.0,0.0,0.0,0.0,0.0,0.0,0.0,0.0,0.0,0.0,0.0,0.0,0.0,0.0,0.0,0.0,0.0,0.0,0.0,0.0,0.0,0.0,0.0,0.0,0.0,0.0,0.0,0.0,0.0,0.0,-4.7232,-4.7066,-4.7043,-4.6939,0.0,0.0,-4.6684,-4.6661,-4.6661,0.0,0.0,0.0,0.0,0.0,0.0,0.0,0.0,0.0,0.0,0.0,0.0,0.0,0.0,0.0,0.0,0.0,0.0,0.0,0.0,0.0,0.0,0.0,0.0,0.0,0.0,0.0,0.0,0.0,0.0,0.0,0.0,0.0,0.0,0.0,0.0,0.0,0.0,0.0,0.0,0.0,0.0,0.0,0.0,0.0,0.0,0.0,0.0,0.0,0.0,0.0,0.0,0.0,0.0,0.0,-5.0665,-5.0701,-5.1453,-5.1882,-5.1882,-5.1882,-5.1846,-5.1846,-5.1846,-5.1882,0.0,0.0,0.0,0.0,0.0,0.0,0.0,0.0,0.0,0.0,0.0,0.0,0.0,0.0,0.0,0.0,0.0,0.0,0.0,0.0,0.0,0.0,0.0,0.0,0.0,0.0,0.0,0.0,0.0,0.0,0.0,0.0,0.0,0.0,0.0,0.0,0.0,0.0,0.0,0.0,0.0,0.0,-4.6684,-4.6661,0.0,0.0,0.0,-4.7149,-4.7583,0.0,0.0,0.0,0.0,0.0,0.0,0.0,0.0,0.0,0.0,0.0,0.0,0.0,0.0,0.0,0.0,0.0,0.0,0.0,0.0,0.0,0.0,0.0,0.0,0.0,0.0,0.0,0.0,0.0,0.0,0.0,0.0,0.0,0.0,0.0,0.0,0.0,0.0,0.0,0.0,0.0,0.0,0.0,0.0,0.0,0.0,0.0,0.0,0.0,0.0,0.0,0.0,0.0,0.0,0.0,0.0,0.0,-5.0816,-5.1387,-5.1708,-5.1708,-5.1708,-5.1708,-5.1708,-5.1708,0.0,0.0,0.0,0.0,0.0,0.0,0.0,0.0,0.0,0.0,0.0,0.0,0.0,0.0,0.0,0.0,0.0,0.0,0.0,0.0,0.0,0.0,0.0,0.0,0.0,0.0,0.0,-4.7276,0.0,0.0,0.0,0.0,0.0,0.0,0.0,0.0,0.0,0.0,0.0,0.0,0.0,0.0,-4.6873,-4.6632,-4.6759,-4.7001,0.0,0.0,-4.7639,-4.8181,-4.7587,-4.7098,0.0,0.0,0.0,0.0,0.0,0.0,0.0,0.0,0.0,0.0,0.0,0.0,0.0,0.0,0.0,0.0,0.0,0.0,0.0,0.0,0.0,0.0,0.0,0.0,0.0,0.0,0.0,0.0,0.0,0.0,0.0,0.0,0.0,0.0,0.0,0.0,0.0,0.0,0.0,0.0,0.0,0.0,0.0,0.0,0.0,0.0,0.0,0.0,0.0,0.0,0.0,0.0,0.0,0.0,0.0,-5.1601,-5.1672,-5.1708,-5.1708,-5.1708,-5.1708,-5.1708,-5.1708,-5.1708,0.0,0.0,0.0,0.0,0.0,0.0,0.0,0.0,0.0,0.0,0.0,0.0,0.0,0.0,0.0,0.0,0.0,0.0,0.0,0.0,0.0,0.0,0.0,0.0,0.0,0.0,0.0,0.0,0.0,0.0,0.0,0.0,0.0,0.0,0.0,0.0,0.0,0.0,0.0,0.0,0.0,-4.7382,-4.7165,-4.7718,-4.8102,0.0,0.0,-4.7823,-4.772,-4.7072,-4.6554,-4.6554,0.0,0.0,0.0,0.0,0.0,0.0,0.0,0.0,0.0,0.0,0.0,0.0,0.0,0.0,0.0,0.0,0.0,0.0,0.0,0.0,0.0,0.0,0.0,0.0,0.0,0.0,0.0,0.0,0.0,0.0,0.0,0.0,0.0,0.0,0.0,0.0,0.0,0.0,0.0,0.0,0.0,0.0,0.0,0.0,0.0,0.0,0.0,0.0,0.0,0.0,0.0,0.0,0.0,-5.1708,-5.1708,-5.2172,-5.2447,-5.2483,-5.2886,-5.2886,-5.2422,-5.2447,-5.2208,0.0,0.0,0.0,0.0,0.0,0.0,0.0,0.0,0.0,0.0,0.0,0.0,0.0,0.0,0.0,0.0,0.0,0.0,0.0,0.0,0.0,0.0,0.0,0.0,0.0,0.0,0.0,0.0,-4.702,-4.6975,-4.6906,0.0,0.0,0.0,0.0,0.0,0.0,0.0,0.0,0.0,0.0,-4.6995,-4.6688,-4.7264,0.0,0.0,-4.8192,-4.8335,-4.8723,-4.77,-4.6912,-4.6912,-4.5946,0.0,0.0,0.0,0.0,0.0,0.0,0.0,0.0,0.0,0.0,0.0,0.0,0.0,0.0,0.0,0.0,0.0,0.0,0.0,0.0,0.0,0.0,0.0,0.0,0.0,0.0,0.0,0.0,0.0,0.0,0.0,0.0,0.0,0.0,0.0,0.0,0.0,0.0,0.0,0.0,0.0,0.0,0.0,0.0,0.0,0.0,0.0,0.0,0.0,0.0,0.0,0.0,-5.1708,-5.1708,-5.2483,-5.2886,-5.2798,-5.3557,-5.3673,-5.3139,-5.2863,-5.2497,0.0,0.0,0.0,0.0,0.0,0.0,0.0,0.0,0.0,0.0,0.0,0.0,0.0,0.0,0.0,0.0,0.0,0.0,0.0,0.0,0.0,0.0,0.0,0.0,0.0,0.0,0.0,0.0,-4.6906,-4.6824,-4.6684,0.0,0.0,0.0,0.0,0.0,0.0,0.0,0.0,0.0,0.0,-4.7022,-4.6934,-4.7563,-4.8191,-4.8558,-4.866,-4.8801,-4.9282,-4.806,-4.7072,-4.7072,0.0,0.0,0.0,0.0,0.0,0.0,0.0,0.0,0.0,0.0,0.0,0.0,0.0,0.0,0.0,0.0,0.0,0.0,0.0,0.0,0.0,0.0,0.0,0.0,0.0,0.0,0.0,-5.248,0.0,0.0,-5.248,0.0,0.0,0.0,0.0,0.0,0.0,0.0,0.0,0.0,0.0,0.0,0.0,0.0,0.0,0.0,0.0,0.0,0.0,0.0,0.0,0.0,0.0,-5.1708,-5.1708,-5.2493,-5.2834,-5.2678,-5.3398,-5.377,-5.3591,-5.2856,-5.2404,-5.236,0.0,0.0,0.0,0.0,0.0,0.0,0.0,0.0,0.0,0.0,0.0,0.0,0.0,0.0,0.0,0.0,0.0,0.0,0.0,0.0,0.0,0.0,0.0,0.0,0.0,0.0,-4.6613,-4.6613,-4.6566,0.0,0.0,0.0,0.0,0.0,0.0,0.0,0.0,0.0,0.0,-4.6927,-4.7626,-4.8236,-4.8988,-4.9308,-4.9161,-4.9165,-4.9104,-4.9015,-4.7767,-4.6849,0.0,0.0,0.0,0.0,0.0,0.0,0.0,0.0,0.0,0.0,0.0,0.0,0.0,0.0,0.0,0.0,0.0,0.0,0.0,0.0,0.0,0.0,0.0,0.0,0.0,0.0,0.0,-5.4037,-5.3313,0.0,0.0,0.0,0.0,0.0,0.0,0.0,0.0,0.0,0.0,0.0,-5.1956,-5.1833,0.0,0.0,0.0,0.0,0.0,0.0,0.0,0.0,0.0,0.0,0.0,0.0,-5.178,-5.2173,-5.2954,-5.3602,-5.4044,-5.4823,-5.4937,-5.4414,-5.3599,-5.2661,-5.1564,0.0,0.0,0.0,0.0,0.0,0.0,0.0,0.0,0.0,0.0,0.0,0.0,0.0,0.0,0.0,0.0,0.0,0.0,0.0,0.0,0.0,0.0,0.0,0.0,0.0,-4.6447,0.0,0.0,0.0,0.0,0.0,0.0,0.0,0.0,0.0,0.0,0.0,-4.6062,-4.6032,-4.7067,-4.7924,-4.8048,-4.8697,-4.9172,0.0,0.0,0.0,0.0,0.0,0.0,0.0,0.0,0.0,0.0,0.0,0.0,0.0,0.0,-4.5954,-4.6036,-4.5954,-4.5837,-4.5812,0.0,0.0,0.0,0.0,0.0,0.0,0.0,0.0,0.0,0.0,0.0,0.0,0.0,0.0,-5.4761,0.0,-5.3701,0.0,0.0,0.0,0.0,0.0,0.0,0.0,0.0,-5.2276,-5.2405,-5.263,-5.2519,-5.2493,0.0,-5.2243,-5.2101,0.0,0.0,0.0,0.0,0.0,0.0,0.0,0.0,-5.1766,-5.2404,-5.3156,-5.3879,-5.4635,-5.5283,-5.5431,-5.4851,-5.3859,-5.2642,-5.1267,-5.0959,-5.0819,0.0,0.0,0.0,0.0,0.0,0.0,0.0,0.0,0.0,0.0,0.0,0.0,0.0,0.0,0.0,0.0,0.0,0.0,0.0,0.0,0.0,0.0,0.0,-4.631,0.0,0.0,0.0,0.0,0.0,0.0,0.0,0.0,0.0,-4.5111,-4.5699,-4.6169,-4.6214,-4.7272,-4.8094,-4.8274,0.0,0.0,0.0,0.0,0.0,0.0,0.0,-4.7412,-4.7412,-4.6779,-4.631,-4.631,-4.645,-4.6586,-4.6586,0.0,0.0,-4.6468,-4.6371,-4.628,-4.6216,-4.6216,-4.6185,-4.6124,-4.6124,-4.6124,0.0,0.0,0.0,0.0,0.0,0.0,0.0,0.0,-5.588,-5.5397,0.0,-5.377,0.0,0.0,0.0,0.0,0.0,-5.2064,0.0,0.0,-5.2998,-5.3314,-5.393,-5.3966,-5.3966,-5.393,-5.3242,-5.2947,-5.2911,-5.2136,0.0,0.0,0.0,0.0,0.0,0.0,-5.1697,-5.2448,-5.309,-5.3725,-5.432,-5.4874,-5.5074,-5.4887,-5.35,-5.2352,-5.1489,-5.0679,-5.0263,-5.0369,-5.0257,0.0,0.0,0.0,0.0,0.0,0.0,0.0,0.0,0.0,0.0,0.0,0.0,0.0,0.0,0.0,0.0,0.0,0.0,0.0,0.0,-4.7146,0.0,0.0,0.0,0.0,0.0,0.0,0.0,0.0,0.0,0.0,-4.5041,-4.5558,-4.6152,-4.6747,0.0,0.0,0.0,0.0,-4.8769,-4.8769,-4.861,-4.8483,-4.8483,-4.7881,-4.7414,-4.7414,0.0,0.0,-4.6347,-4.6791,-4.713,-4.713,-4.76,-4.7634,-4.6553,-4.6447,-4.6319,-4.6162,-4.6196,-4.6034,-4.5943,-4.6044,-4.6011,-5.7732,0.0,0.0,0.0,0.0,-5.7087,-5.6927,-5.6711,-5.6583,-5.6037,-5.5317,-5.5076,0.0,0.0,0.0,0.0,0.0,0.0,-5.3518,-5.3723,-5.3671,-5.3787,-5.4001,-5.4001,-5.4001,-5.3966,-5.3787,-5.3706,-5.3645,-5.2818,-5.21,-5.1541,0.0,0.0,0.0,0.0,-5.2403,-5.3519,-5.3655,-5.3967,-5.4583,-5.4761,-5.4495,-5.3791,-5.3376,-5.2451,-5.1085,-5.075,-5.0405,-4.9947,-4.9854,0.0,0.0,0.0,0.0,0.0,0.0,0.0,0.0,0.0,0.0,0.0,0.0,0.0,0.0,0.0,0.0,0.0,0.0,0.0,-4.7644,-4.6756,-4.6131,0.0,0.0,0.0,0.0,0.0,0.0,0.0,0.0,0.0,-4.6264,-4.6878,-4.739,0.0,0.0,-4.8627,-4.8829,-4.8707,-4.8578,-4.8578,-4.842,0.0,-4.8292,-4.8029,-4.7799,-4.7832,-4.7633,-4.7533,-4.75,-4.7634,-4.7734,-4.7734,-4.7901,-4.7901,-4.7601,-4.75,-4.75,-4.7403,-4.7436,-4.7436,-4.7371,-4.7371,-4.7371,-5.8418,-5.7949,-5.7376,-5.7087,-5.7036,-5.6933,-5.6943,-5.6907,-5.6786,-5.6446,-5.5979,-5.5578,-5.5131,-5.4561,-5.4239,0.0,0.0,0.0,-5.418,-5.4465,-5.4465,-5.4608,-5.4929,-5.4991,-5.4955,-5.4955,-5.4554,-5.4385,-5.4385,-5.3469,-5.2786,-5.2245,0.0,0.0,-5.2024,-5.2257,-5.2886,-5.3868,-5.3723,-5.3887,-5.4488,-5.446,-5.4158,-5.3584,-5.3275,-5.2563,-5.1552,-5.0875,-5.0298,-4.9888,-4.9581,-4.95,0.0,0.0,0.0,0.0,0.0,0.0,0.0,0.0,0.0,0.0,0.0,-5.02,-5.02,0.0,0.0,0.0,-4.9383,-4.8597,-4.7757,-4.7169,0.0,0.0,0.0,0.0,0.0,0.0,0.0,-4.6022,-4.6634,-4.7106,-4.7046,-4.7686,-4.8023,-4.7815,-4.8298,-4.8707,-4.8675,0.0,-4.8388,-4.8388,-4.8227,-4.8098,-4.8098,-4.8066,-4.8001,-4.8001,-4.8001,-4.8133,-4.8398,-4.8431,-4.8431,-4.8431,-4.8465,-4.8365,-4.8067,-4.8001,-4.8001,-4.8001,-4.8001,-4.8001,-4.8001,-4.8001,-4.8001,-5.9302,-5.9158,-5.7745,-5.7097,-5.6992,-5.692,-5.6858,-5.6858,-5.6689,-5.66,-5.6501,-5.5652,-5.5312,-5.5277,-5.4501,0.0,-5.418,-5.418,-5.4608,-5.5312,-5.5312,-5.5669,-5.6383,-5.6383,-5.6383,-5.6355,-5.5506,-5.5068,-5.5032,-5.415,-5.3623,-5.3485,-5.2717,-5.2227,-5.2025,-5.2653,-5.3177,-5.3671,-5.3456,-5.3579,-5.4106,-5.3979,-5.3915,-5.3915,-5.32,-5.2726,-5.2496,-5.0979,-5.0137,-5.0038,-4.9362,-4.9049,-4.9138,0.0,0.0,0.0,0.0,0.0,0.0,0.0,0.0,0.0,0.0,0.0,0.0,0.0,0.0,0.0,-4.935,0.0,-4.8214,-4.7996,0.0,0.0,0.0,-4.6756,-4.6756,-4.6824,-4.6798,-4.6615,0.0,0.0,-4.751,-4.8082,-4.8247,-4.7701,-4.8111,-4.8483,-4.8483,-4.8324,-4.8195,-4.8163,-4.8065,-4.8001,-4.8001,-4.8001,-4.8034,-4.8133,-4.81,-4.8398,-4.9028,-4.9193,-4.9193,-4.9193,-4.9193,-4.8995,-4.8299,-4.8299,-4.8199,-4.8266,-4.81,-4.8034,-4.8133,-4.8166,-4.8199,-6.0029,-5.9809,-5.8904,-5.8564,-5.8583,-5.7891,-5.755,-5.7514,-5.6805,-5.6437,-5.6437,-5.6232,-5.6133,-5.6097,-5.5919,-5.5812,-5.5812,-5.5847,-5.5919,-5.6097,-5.6097,-5.6204,-5.6383,-5.6308,-5.6253,-5.6253,-5.5872,-5.5709,-5.5646,-5.479,-5.4352,-5.4296,-5.3971,-5.373,-5.3527,-5.3495,-5.3706,-5.4281,-5.3997,-5.3743,-5.3583,-5.3281,-5.3179,-5.3179,-5.2943,-5.2606,-5.2001,-5.1061,-5.0289,-4.9751,-4.9013,-4.8642,-4.8673,-4.8704,0.0,0.0,0.0,0.0,0.0,0.0,0.0,0.0,0.0,-4.959,-4.959,0.0,-4.932,0.0,-4.908,-4.8827,-4.8658,-4.7964,0.0,0.0,-4.6733,-4.6431,-4.6398,-4.6901,-4.7237,-4.7206,-4.7843,-4.8279,-4.8247,-4.8256,-4.8225,-4.809,-4.8158,-4.826,-4.826,-4.813,-4.8066,-4.8066,-4.8033,-4.8001,-4.8001,-4.8001,-4.8233,-4.8763,-4.8829,-4.9094,-4.9823,-4.9955,-4.9955,-4.9955,-4.9955,-4.9856,-4.969,-4.9656,-4.9657,-4.959,-4.8796,-4.8166,-4.873,-4.8862,-4.8995,-6.1156,-6.1026,-6.0246,-5.9982,-5.9931,-5.8701,-5.8208,-5.8136,-5.733,-5.6918,-5.6882,-5.6561,-5.6383,-5.6383,-5.6383,-5.6383,-5.6383,-5.6383,-5.6383,-5.6383,-5.6383,-5.6383,-5.6383,-5.6281,-5.6197,-5.6197,-5.5936,-5.5822,-5.5786,-5.5254,-5.5021,-5.4992,-5.4776,-5.4629,-5.4486,-5.4209,-5.4174,-5.4271,-5.3849,-5.3517,-5.3315,-5.3041,-5.2903,-5.2903,-5.2903,-5.2668,-5.2163,-5.1128,-5.036,-4.9859,-4.8891,-4.8388,-4.8356,-4.8452,-4.8483,0.0,0.0,0.0,0.0,0.0,0.0,0.0,0.0,0.0,0.0,0.0,-4.8892,-4.8892,-4.8769,-4.8675,-4.8675,-4.8212,-4.7881,-4.7881,-4.7546,-4.7278,-4.7278,-4.7646,-4.7849,-4.7755,-4.8122,-4.8324,-4.826,-4.8163,-4.8131,-4.8098,-4.8098,-4.8131,-4.8131,-4.8033,-4.8001,-4.8001,-4.8001,-4.8001,-4.8001,-4.8299,-4.863,-4.9028,-4.9392,-4.9856,-5.0551,-5.0684,-5.0684,-5.0684,-5.0684,-5.0551,-5.0286,-5.022,-5.022,-5.0121,-4.9558,-4.9193,-4.9525,-4.9591,-4.9756,-6.2449,-6.2342,-6.1593,-6.1236,-6.1165,-5.9666,-5.8959,-5.8781,-5.806,-5.7739,-5.7703,-5.6989,-5.6668,-5.6704,-5.6668,-5.6704,-5.6704,-5.6597,-5.6525,-5.6525,-5.6454,-5.6383,-5.6383,-5.6217,-5.6169,-5.6141,-5.5857,-5.5648,-5.5648,-5.5566,-5.5478,-5.5478,-5.5324,-5.5109,-5.493,-5.4741,-5.4397,-5.3915,-5.3416,-5.3144,-5.3144,-5.2938,-5.2834,-5.2834,-5.2834,-5.2729,-5.2555,-5.1257,-5.0424,-5.0187,-4.8995,-4.8263,-4.8163,-4.8324,-4.842,0.0,-4.842,0.0,0.0,0.0,0.0,0.0,0.0,0.0,0.0,-4.8483,-4.8483,-4.8483,-4.8483,-4.8452,-4.8483,-4.8452,-4.8452,-4.842,-4.842,-4.842,-4.842,-4.842,-4.8356,-4.8195,-4.8163,-4.8131,-4.8033,-4.8001,-4.8001,-4.8001,-4.8001,-4.8001,-4.8001,-4.8001,-4.8001,-4.8001,-4.8001,-4.8001,-4.8067,-4.863,-4.9127,-4.9293,-4.9889,-5.0585,-5.1315,-5.1448,-5.1448,-5.1448,-5.1448,-5.1249,-5.0618,-5.0518,-5.0551,-5.0585,-5.0518,-5.0452,-5.0353,-5.0353,-5.0386,-6.3163,-6.3127,-6.2378,-6.2057,-6.1985,-6.1058,-6.0272,-5.9601,-5.8816,-5.846,-5.846,-5.8317,-5.8274,-5.8246,-5.8246,-5.8246,-5.8238,-5.7632,-5.7346,-5.7346,-5.6704,-5.6383,-5.6383,-5.6106,-5.5964,-5.5936,-5.5648,-5.5537,-5.5537,-5.5507,-5.5413,-5.5259,-5.5229,-5.4987,-5.4589,0.0,0.0,0.0,-5.3212,-5.2938,-5.2938,-5.2657,-5.248,-5.248,-5.248,0.0,-5.2412,-5.1615,-5.0818,-5.022,-4.9393,0.0,0.0,0.0,0.0,0.0,0.0,0.0,0.0,0.0,0.0,0.0,-4.8099,-4.8195,-4.8483,-4.8483,-4.8483,-4.8483,-4.8356,-4.826,-4.826,-4.8164,-4.8099,-4.8099,-4.8065,-4.8099,-4.8099,-4.8099,-4.8099,-4.8033,-4.8033,-4.8033,-4.8001,-4.8001,-4.8001,-4.8001,-4.8001,-4.8001,-4.8001,-4.8001,-4.8001,-4.8001,-4.8001,-4.8001,-4.8001,-4.8663,-4.9392,-4.9922,-5.0585,-5.1313,-5.2011,-5.2177,-5.2177,-5.2177,-5.2175,-5.2177,-5.1943,-5.1943,-5.1877,-5.1943,-5.1943,-5.1777,-5.1249,-5.1116,-5.1247,-6.3984,-6.3912,-6.3163,-6.2842,0.0,-6.2021,-6.145,-6.0986,-5.9809,-5.9066,-5.8674,-5.8674,-5.8674,-5.8674,-5.8674,-5.8674,-5.8674,-5.831,-5.8131,-5.8131,-5.7346,-5.6989,-5.6954,-5.6219,-5.5901,-5.5872,-5.5654,-5.5507,-5.5507,-5.5507,-5.5383,-5.5199,-5.5139,-5.49,-5.4529,-5.4485,-5.4361,-5.4025,-5.3277,-5.3071,-5.3405,-5.2753,-5.2409,-5.2409,-5.2409,0.0,0.0,0.0,0.0,0.0,0.0,0.0,0.0,-4.9094,0.0,-4.9094,-4.9094,-4.9094,-4.9061,-4.8763,-4.8564,-4.8531,-4.8199,-4.8066,-4.8261,-4.8261,-4.8227,-4.8261,-4.813,-4.8131,-4.8065,-4.8033,-4.8001,-4.8001,-4.8001,-4.8001,-4.8001,-4.8001,-4.8001,-4.8001,-4.8001,-4.8001,-4.8001,-4.8001,-4.8001,-4.8001,-4.8001,-4.8001,-4.8001,-4.8001,-4.8001,-4.8001,-4.8001,-4.8133,-4.8531,-4.916,-4.9889,-5.0618,-5.1347,-5.1945,-5.2343,-5.2409,-5.2409,-5.2409,-5.2409,-5.2409,-5.2409,-5.2409,-5.2409,-5.2409,-5.2409,-5.231,-5.1912,-5.1846,-5.1945,-6.484,-6.4733,-6.3948,-6.3591,-6.3555,-6.2806,-6.2414,-6.2194,0.0,0.0,0.0,-5.9102,-5.9102,-5.9102,-5.9137,-5.9102,-5.9102,-5.8959,-5.8888,-5.8852,-5.8131,-5.7774,-5.7683,-5.6787,-5.6226,-5.6056,-5.5801,-5.5618,-5.5543,-5.5507,-5.5383,-5.5169,-5.5053,-5.4876,-5.464,-5.4666,-5.4805,-5.4869,-5.3848,-5.3573,-5.4142,-5.3119,-5.2572,-5.2572,-5.244,-5.2409,-5.2409,-5.1812,-5.1448,-5.1282,-5.0717,-5.0353,-5.022,-5.022,-5.022,-5.022,-5.022,-5.022,-5.022,-4.9657,-4.9293,-4.9293,-4.863,-4.8133,-4.8034,-4.8001,-4.8001,-4.8001,-4.8001,-4.8001,-4.8001,-4.8001,-4.8001,-4.8001,-4.8001,-4.8001,-4.8001,-4.8001,-4.8001,-4.8001,-4.8001,-4.8001,-4.8001,-4.8001,-4.8001,-4.8001,-4.8001,-4.8067,-4.8133,-4.81,-4.8001,-4.8001,-4.8166,-4.8431,-4.9028,-4.9856,-5.0585,-5.1183,-5.1879,-5.2376,-5.2409,-5.2409,-5.2409,-5.2409,-5.2409,-5.2409,-5.2409,-5.2409,-5.2409,-5.2409,-5.2409,-5.2409,-5.2409,-5.2409,-5.2376,-6.5625,-6.5554,-6.4769,-6.4448,-6.4376,-6.3591,-6.2877,-6.2235,-6.1307,-6.0879,-6.0772,-6.0772,-6.0772,-6.0772,-6.0772,-6.0772,-6.0701,-6.0058,-5.9737,-5.9701,-5.8888,-5.8474,-5.8394,-5.8113,-5.7512,-5.6794,-5.6545,-5.6104,-5.5578,-5.5507,-5.5359,-5.5083,-5.5022,-5.5029,-5.4969,-5.4601,-5.4999,-5.6176,-5.5288,-5.4845,-5.4912,-5.385,-5.3268,-5.3235,-5.2705,-5.2409,-5.2409,-5.231,-5.1945,-5.1348,-5.1216,-5.085,-5.0253,-5.0253,-5.022,-5.022,-5.022,-5.022,-5.022,-5.0121,-5.0055,-5.0021,-4.9359,-4.8696,-4.8067,-4.8001,-4.8001,-4.8001,-4.8001,-4.8001,-4.8001,-4.8001,-4.8001,-4.8001,-4.8001,-4.8001,-4.8001,-4.8001,-4.8001,-4.8001,-4.8001,-4.8001,-4.8001,-4.8034,-4.8067,-4.8034,-4.8199,-4.8266,-4.873,-4.8398,-4.8034,-4.81,-4.8564,-4.8928,-4.9359,-5.0286,-5.1083,-5.1282,-5.1945,-5.2409,-5.2409,-5.2409,-5.2409,-5.2409,-5.2409,-5.2409,-5.2409,-5.2409,-5.2409,-5.2409,-5.2409,-5.2409,-5.2409,-5.2409,-5.2409,-6.5804,-6.5768,-6.5411,-6.5268,-6.5197,-6.4412,-6.3377,-6.2307,-6.1914,-6.1486,-6.1093,-6.1093,-6.1093,-6.1093,-6.1093,-6.1093,-6.1093,-6.0736,-6.0558,-6.0487,-5.9737,-5.9322,-5.92,-5.8639,-5.8101,-5.7659,-5.7384,-5.6877,-5.6139,-5.6104,-5.5744,-5.5061,-5.5035,-5.5268,-5.5655,-5.5686,-5.598,-5.6622,-5.5518,-5.5168,-5.5499,-5.4505,-5.3831,-5.3434,-5.3102,-5.2771,-5.2442,-5.2409,-5.2243,-5.1912,-5.1912,-5.1779,-5.1413,-5.138,-5.138,-5.138,-5.138,-5.138,-5.138,-5.1015,-5.0618,-5.0253,-4.9889,-4.9591,-4.9226,-4.8465,-4.8001,-4.8001,-4.8001,-4.8001,-4.8001,-4.8001,-4.8001,-4.8001,-4.8001,-4.8001,-4.8001,-4.8001,-4.8001,-4.8001,-4.8001,-4.8001,-4.8001,-4.8332,-4.8597,-4.863,-4.8895,-4.9326,-4.9657,-4.9425,-4.9193,-4.9226,-4.9458,-4.9856,-5.022,-5.0818,-5.1448,-5.1812,-5.2177,-5.2376,-5.2409,-5.2409,-5.2409,-5.2409,-5.2409,-5.2409,-5.2409,-5.2409,-5.2409,-5.2409,-5.2409,-5.2409,-5.2409,-5.2409,-5.2409,-6.5804,-6.5804,-6.5804,-6.5804,-6.5732,-6.4947,-6.3912,-6.2806,-6.2449,-6.195,-6.1379,-6.12,-6.1093,-6.1093,-6.1093,-6.1093,-6.1093,-6.1093,-6.1093,-6.1022,-6.0451,-6.0136,-6.0006,-5.9236,-5.8763,-5.8502,-5.8255,-5.768,-5.6947,-5.6877,-5.6409,-5.5587,-5.5501,-5.5824,-5.644,-5.6672,-5.6831,-5.6894,-5.592,-5.5662,-5.6158,-5.5306,-5.4531,-5.3964,-5.3765,-5.3334,-5.2672,-5.2605,-5.2539,-5.2442,-5.2409,-5.2409,-5.2409,-5.2409,-5.2409,-5.2409,-5.2409,-5.2409,-5.2376,-5.1843,-5.128,-5.075,-5.0551,-5.0452,-5.0353,-4.926,-4.8498,-4.8498,-4.8564,-4.8564,-4.8564,-4.8564,-4.8498,-4.8498,-4.8498,-4.8564,-4.8531,-4.8365,-4.8332,-4.8431,-4.8365,-4.8332,-4.8564,-4.8995,-4.9326,-4.9458,-4.9856,-5.022,-5.0386,-5.0452,-5.0485,-5.0618,-5.0551,-5.0618,-5.1249,-5.1481,-5.1779,-5.2343,-5.2409,-5.2409,-5.2409,-5.2409,-5.2409,-5.2409,-5.2409,-5.2409,-5.2409,-5.2409,-5.2409,-5.2409,-5.2409,-5.2409,-5.2409,-5.2409,-5.2409,-6.5804,-6.5804,-6.5804,-6.5804,-6.5732,-6.4947,-6.4519,-6.4198,-6.2913,-6.2301,-6.2092,-6.1414,-6.1093,-6.1093,-6.1093,-6.1093,-6.1093,-6.1093,-6.1093,-6.1093,-6.1022,-6.0891,-6.0736,-6.0569,-6.0033,-5.9254,-5.9091,-5.8611,-5.775,-5.7649,-5.7429,-5.7115,-5.6796,-5.6847,-5.7158,-5.6943,-5.7065,-5.749,-5.7234,-5.7122,-5.7085,-5.6263,-5.5638,-5.5383,-5.4721,-5.4063,-5.3367,-5.3334,-5.3036,-5.2475,-5.2409,-5.2409,-5.2409,-5.2409,-5.2409,-5.2409,-5.2409,-5.2409,-5.2409,-5.2343,-5.2243,-5.2142,-5.1512,-5.1216,-5.1183,-5.0485,-5.0021,-4.9988,-4.9988,-4.9889,-5.0021,-4.9955,-4.9856,-4.9823,-4.979,-5.0021,-4.979,-4.9391,-4.926,-4.9955,-4.926,-4.926,-4.9723,-4.9988,-5.0121,-5.022,-5.0353,-5.0651,-5.1082,-5.1216,-5.138,-5.1777,-5.1647,-5.1282,-5.1448,-5.1912,-5.221,-5.2409,-5.2409,-5.2409,-5.2409,-5.2409,-5.2409,-5.2409,-5.2409,-5.2409,-5.2409,-5.2409,-5.2409,-5.2409,-5.2409,-5.2409,-5.2409,-5.2409,-5.2409,-6.5804,-6.5804,-6.5804,-6.5804,-6.5732,-6.5447,-6.5054,-6.4483,-6.3413,-6.2699,-6.223,-6.145,-6.1093,-6.1093,-6.1093,-6.1093,-6.1093,-6.1093,-6.1093,-6.1093,-6.1093,-6.1064,-6.1004,-6.0848,-6.0544,-6.0144,-5.996,-5.9448,-5.8651,-5.8004,-5.7817,-5.8046,-5.7657,-5.7738,-5.8221,-5.7977,-5.7863,-5.7954,-5.7881,-5.7735,-5.7443,-5.6872,-5.6316,-5.5771,-5.5359,-5.4787,-5.4092,-5.3665,-5.3268,-5.3003,-5.2605,-5.2409,-5.2409,-5.2409,-5.2409,-5.2409,-5.2409,-5.2409,-5.2409,-5.2409,-5.2409,-5.2409,-5.2108,-5.1978,-5.1945,-5.1645,-5.1512,-5.1413,-5.0717,-5.022,-5.0253,-5.022,-5.022,-5.0154,-4.9823,-4.9591,-4.9558,-4.8928,-4.8763,-4.9425,-4.9293,-4.9392,-5.0088,-5.0585,-5.1015,-5.1347,-5.1479,-5.1578,-5.1912,-5.1978,-5.2078,-5.2277,-5.2144,-5.2011,-5.1978,-5.2177,-5.2376,-5.2409,-5.2409,-5.2409,-5.2409,-5.2409,-5.2409,-5.2409,-5.2409,-5.2409,-5.2409,-5.2409,-5.2409,-5.2409,-5.2409,-5.2409,-5.2409,-5.2409,-5.2409,-6.5804,-6.5804,-6.5804,-6.5804,-6.5804,-6.5804,-6.5482,-6.4876,-6.4055,-6.3413,-6.2877,-6.2092,-6.1736,-6.1664,-6.1307,-6.1093,-6.1093,-6.1093,-6.1093,-6.1093,-6.1093,-6.1093,-6.1064,-6.0938,-6.0848,-6.0788,-6.0543,-6.0109,-5.9417,-5.8706,-5.8549,-5.8875,-5.8619,-5.8596,-5.8909,-5.8736,-5.849,-5.8241,-5.8171,-5.8061,-5.7662,-5.7289,-5.6829,-5.625,-5.5994,-5.5587,-5.4821,-5.4328,-5.3831,-5.3434,-5.2937,-5.2572,-5.2373,-5.2409,-5.2409,-5.2409,-5.2409,-5.2409,-5.2409,-5.2409,-5.2409,-5.2409,-5.2409,-5.2409,-5.2409,-5.2409,-5.2409,-5.231,-5.1413,-5.085,-5.0817,-5.0618,-5.0518,-5.0452,-4.9856,-4.9425,-4.9425,-4.8763,-4.8663,-4.926,-4.9525,-4.979,-5.0651,-5.128,-5.1779,-5.221,-5.2343,-5.2409,-5.2409,-5.2376,-5.2409,-5.2409,-5.2409,-5.2376,-5.2409,-5.2409,-5.2409,-5.2409,-5.2409,-5.2409,-5.2409,-5.2409,-5.2409,-5.2409,-5.2409,-5.2409,-5.2409,-5.2409,-5.2409,-5.2409,-5.2409,-5.2409,-5.2409,-5.2409,-5.2409,-6.5804,-6.5804,-6.5804,-6.5804,-6.5804,-6.5804,-6.5768,-6.559,-6.4876,-6.4483,-6.4305,-6.3555,-6.3234,-6.3127,-6.1807,-6.1129,-6.1129,-6.1165,-6.1129,-6.1093,-6.1093,-6.1093,-6.1093,-6.1093,-6.0968,-6.0782,-6.0671,-6.0388,-6.0033,-5.9966,-5.9905,-5.9709,-5.9609,-5.9448,-5.9115,-5.9012,-5.8736,-5.8314,-5.8207,-5.8133,-5.7845,-5.7476,-5.7181,-5.6925,-5.6729,-5.6249,-5.5615,-5.5483,-5.4854,-5.3463,-5.3367,-5.3069,-5.2509,-5.2373,-5.2409,-5.2409,-5.2409,-5.2409,-5.2409,-5.2409,-5.2409,-5.2409,-5.2409,-5.2409,-5.2409,-5.2409,-5.2409,-5.2409,-5.2277,-5.2142,-5.2111,-5.158,-5.1282,-5.1216,-5.0585,-5.022,-5.012,-4.9491,-4.9458,-4.9988,-5.022,-5.075,-5.2009,-5.2343,-5.231,-5.2376,-5.2409,-5.2409,-5.2409,-5.2409,-5.2409,-5.2409,-5.2409,-5.2409,-5.2409,-5.2409,-5.2409,-5.2409,-5.2409,-5.2409,-5.2409,-5.2409,-5.2409,-5.2409,-5.2409,-5.2409,-5.2409,-5.2409,-5.2409,-5.2409,-5.2409,-5.2409,-5.2409,-5.2409,-5.2409,-6.5804,-6.5804,-6.5804,-6.5804,-6.5804,-6.5804,-6.5804,-6.5732,-6.4983,-6.4595,-6.4483,-6.377,-6.3377,-6.3377,-6.2806,-6.2307,-6.1878,-6.1843,-6.1593,-6.1165,-6.1093,-6.1093,-6.1093,-6.1093,-6.1064,-6.0974,-6.0732,-6.0423,-6.0104,-6.0072,-6.004,-5.9975,-5.9879,-5.9681,-5.9483,-5.9284,-5.9012,-5.8736,-5.8525,-5.8312,-5.8063,-5.7698,-5.7439,-5.7364,-5.6949,-5.6547,-5.6316,-5.5885,-5.535,-5.4821,-5.393,-5.3301,-5.3036,-5.2638,-5.2409,-5.2409,-5.2409,-5.2409,-5.2409,-5.2409,-5.2409,-5.2409,-5.2409,-5.2409,-5.2409,-5.2409,-5.2409,-5.2409,-5.2409,-5.2409,-5.2376,-5.2144,-5.2011,-5.1912,-5.1347,-5.085,-5.075,-5.0286,-5.0088,-5.075,-5.128,-5.1843,-5.2177,-5.2409,-5.2409,-5.2409,-5.2409,-5.2409,-5.2409,-5.2409,-5.2409,-5.2409,-5.2409,-5.2409,-5.2409,-5.2409,-5.2409,-5.2409,-5.2409,-5.2409,-5.2409,-5.2409,-5.2409,-5.2409,-5.2409,-5.2409,-5.2409,-5.2409,-5.2409,-5.2409,-5.2409,-5.2409,-5.2409,-5.2409,-5.2409,-6.5804,-6.5804,-6.5804,-6.5804,-6.5804,-6.5804,-6.5804,-6.5732,-6.5233,-6.4983,-6.4876,-6.4412,-6.4162,-6.4162,-6.4162,-6.377,-6.3056,-6.277,-6.2342,-6.1878,-6.1843,-6.17,-6.1521,-6.1486,-6.1343,-6.1069,-6.0762,-6.0423,-6.0139,-6.0072,-6.0072,-6.0072,-5.9943,-5.9844,-5.9746,-5.9551,-5.9318,-5.9012,-5.8806,-5.8526,-5.8312,-5.7881,-5.7698,-5.7625,-5.7176,-5.6834,-5.6796,-5.6293,-5.589,-5.5521,-5.4622,-5.393,-5.3434,-5.297,-5.2605,-5.2475,-5.2409,-5.2409,-5.2409,-5.2409,-5.2409,-5.2409,-5.2409,-5.2409,-5.2409,-5.2409,-5.2409,-5.2409,-5.2409,-5.2409,-5.2409,-5.2409,-5.231,-5.2045,-5.138,-5.0949,-5.0916,-5.0518,-5.0551,-5.1149,-5.1614,-5.2045,-5.2376,-5.2409,-5.2409,-5.2409,-5.2409,-5.2409,-5.2409,-5.2409,-5.2409,-5.2409,-5.2409,-5.2409,-5.2409,-5.2409,-5.2409,-5.2409,-5.2409,-5.2409,-5.2409,-5.2409,-5.2409,-5.2409,-5.2409,-5.2409,-5.2409,-5.2409,-5.2409,-5.2409,-5.2409,-5.2409,-5.2409,-5.2409,-5.2409,-6.5804,-6.5804,-6.5804,-6.5804,-6.5804,-6.5804,-6.5804,-6.5804,-6.5732,-6.5661,-6.5625,-6.5661,-6.5518,-6.5661,-6.5518,-6.5268,-6.4519,-6.3841,-6.3377,-6.3163,-6.3199,-6.2877,-6.2307,-6.2271,-6.195,-6.1313,-6.0833,-6.0489,-6.0276,-6.0142,-6.0072,-6.0072,-6.0072,-5.9975,-5.9811,-5.9781,-5.9551,-5.9183,-5.9012,-5.8806,-5.8525,-5.8135,-5.7954,-5.7881,-5.7551,-5.7252,-5.7025,-5.6992,-5.6545,-5.579,-5.5587,-5.4891,-5.3699,-5.3404,-5.3138,-5.2644,-5.2478,-5.2409,-5.2409,-5.2445,-5.2445,-5.2445,-5.2445,-5.2445,-5.2445,-5.2409,-5.2409,-5.2409,-5.2409,-5.2409,-5.2409,-5.2409,-5.221,-5.1413,-5.0949,-5.0618,-5.0485,-5.032,-5.0518,-5.1249,-5.1547,-5.168,-5.2177,-5.2409,-5.2409,-5.2409,-5.2409,-5.2409,-5.2409,-5.2409,-5.2409,-5.2409,-5.2409,-5.2409,-5.2409,-5.2409,-5.2409,-5.2409,-5.2409,-5.2409,-5.2409,-5.2409,-5.2409,-5.2409,-5.2409,-5.2409,-5.2409,-5.2409,-5.2409,-5.2409,-5.2409,-5.2409,-5.2409,-5.2409,-5.2409,-6.5804,-6.5804,-6.5804,-6.5804,-6.5804,-6.5804,-6.5804,-6.5804,-6.5804,-6.5804,-6.5804,-6.5804,-6.5804,-6.5804,-6.5804,-6.5661,-6.5411,-6.5126,-6.4448,-6.3555,-6.3413,-6.3306,-6.3092,-6.302,-6.2852,-6.2444,-6.1765,-6.1329,-6.0966,-6.0452,-6.0072,-6.0072,-6.0107,-6.0075,-6.001,-5.9879,-5.9681,-5.9549,-5.9318,-5.9115,-5.9047,-5.8667,-5.8422,-5.8386,-5.8099,-5.7808,-5.7625,-5.7364,-5.7076,-5.6734,-5.615,-5.5377,-5.4549,-5.3992,-5.373,-5.3499,-5.2996,-5.2729,-5.2762,-5.2729,-5.2729,-5.2729,-5.2729,-5.2692,-5.2553,-5.2551,-5.2516,-5.2445,-5.2409,-5.2409,-5.2409,-5.2409,-5.2277,-5.2042,-5.1843,-5.1612,-5.1578,-5.1645,-5.181,-5.1976,-5.2042,-5.221,-5.2343,-5.2409,-5.2409,-5.2409,-5.2409,-5.2409,-5.2409,-5.2409,-5.2409,-5.2409,-5.2409,-5.2409,-5.2409,-5.2409,-5.2409,-5.2409,-5.2409,-5.2409,-5.2409,-5.2409,-5.2409,-5.2409,-5.2409,-5.2409,-5.2409,-5.2409,-5.2409,-5.2409,-5.2409,-5.2409,-5.2409,-5.2409,-5.2409,-6.6245,-6.5994,-6.5994,-6.5994,-6.5994,-6.5895,-6.5863,-6.5863,-6.5836,-6.5804,-6.5804,-6.5804,-6.5804,-6.5804,-6.5804,-6.5804,-6.5804,-6.5804,-6.5268,-6.4412,-6.4305,-6.4162,-6.3841,-6.3484,-6.332,-6.3128,-6.2545,-6.2107,-6.1912,-6.1292,-6.0949,-6.0949,-6.0704,-6.0563,-6.0493,-6.0116,-5.9879,-5.9814,-5.9584,-5.9486,-5.9352,-5.9081,-5.8909,-5.8771,-5.8526,-5.8278,-5.8027,-5.7735,-5.7514,-5.726,-5.6742,-5.61,-5.5399,-5.5007,-5.4678,-5.4309,-5.3774,-5.3338,-5.3271,-5.3036,-5.2903,-5.2903,-5.2903,-5.2834,-5.2729,-5.2694,-5.2659,-5.2622,-5.2587,-5.2587,-5.2587,-5.2587,-5.2587,-5.2587,-5.2447,-5.2409,-5.2409,-5.2409,-5.2376,-5.2376,-5.2376,-5.2409,-5.2409,-5.2409,-5.2409,-5.2409,-5.2409,-5.2409,-5.2409,-5.2409,-5.2409,-5.2409,-5.2409,-5.2409,-5.2409,-5.2409,-5.2409,-5.2409,-5.2409,-5.2409,-5.2409,-5.2409,-5.2409,-5.2409,-5.2409,-5.2409,-5.2409,-5.2409,-5.2409,-5.2409,-5.2409,-5.2409,-5.2409,-5.2409,-5.2409,-6.7096,-6.6449,-6.6408,-6.6413,-6.6346,-6.615,-6.6021,-6.5985,-6.5895,-6.5867,-6.5867,-6.5836,-6.5836,-6.5836,-6.5804,-6.5804,-6.5804,-6.5804,-6.5768,-6.5625,-6.5554,-6.5268,-6.4662,-6.4091,-6.3779,-6.3551,-6.3148,-6.2917,-6.2755,-6.2347,-6.2389,-6.2143,-6.1616,-6.1371,-6.123,-6.0598,-6.0151,-6.0054,-5.9884,-5.9716,-5.9619,-5.9419,-5.925,-5.9081,-5.884,-5.8597,-5.835,-5.8171,-5.7881,-5.7402,-5.726,-5.6962,-5.6422,-5.6251,-5.5822,-5.5255,-5.4515,-5.4213,-5.3978,-5.3577,-5.314,-5.3174,-5.3074,-5.2903,-5.2938,-5.2903,-5.2903,-5.2834,-5.2834,-5.2868,-5.2868,-5.2834,-5.2834,-5.2834,-5.2622,-5.2445,-5.2409,-5.2409,-5.2409,-5.2409,-5.2409,-5.2409,-5.2409,-5.2409,-5.2409,-5.2409,-5.2409,-5.2409,-5.2409,-5.2409,-5.2409,-5.2409,-5.2409,-5.2409,-5.2409,-5.2409,-5.2409,-5.2409,-5.2409,-5.2409,-5.2409,-5.2409,-5.2409,-5.2409,-5.2409,-5.2409,-5.2409,-5.2409,-5.2409,-5.2409,-5.2409,-5.2409,-5.2409,-5.2409,-5.2409,-6.8278,-6.8026,-6.742,-6.7199,-6.706,-6.6526,-6.6243,-6.6207,-6.6177,-6.6115,-6.615,-6.6021,-6.5958,-6.5927,-6.5867,-6.5804,-6.5804,-6.5804,-6.5804,-6.5804,-6.5804,-6.5732,-6.5518,-6.5268,-6.5094,-6.4959,-6.417,-6.3763,-6.3662,-6.2941,-6.2527,-6.2389,-6.2248,-6.2108,-6.2003,-6.1371,-6.0987,-6.0814,-6.0288,-6.001,-5.9946,-5.9748,-5.965,-5.9549,-5.9183,-5.8909,-5.8736,-5.8385,-5.7991,-5.7588,-5.7662,-5.7594,-5.7214,-5.685,-5.6552,-5.6282,-5.5641,-5.5237,-5.5068,-5.4528,-5.4192,-5.4091,-5.3652,-5.328,-5.311,-5.311,-5.3041,-5.2938,-5.2903,-5.2903,-5.2903,-5.2903,-5.2903,-5.2868,-5.2694,-5.2551,-5.2445,-5.2409,-5.2409,-5.2409,-5.2409,-5.2409,-5.2409,-5.2409,-5.2409,-5.2409,-5.2409,-5.2409,-5.2409,-5.2409,-5.2409,-5.2409,-5.2409,-5.2409,-5.2409,-5.2409,-5.2409,-5.2409,-5.2409,-5.2409,-5.2409,-5.2409,-5.2409,-5.2409,-5.2409,-5.2409,-5.2409,-5.2409,-5.2409,-5.2409,-5.2409,-5.2409,-5.2409,-5.2409,-5.2409,-6.9223,-6.8863,-6.8394,-6.8244,-6.8105,-6.7286,-6.6895,-6.6793,-6.6444,-6.6269,-6.6238,-6.6083,-6.6021,-6.6021,-6.5832,-6.5804,-6.5804,-6.5804,-6.5804,-6.5804,-6.5804,-6.5768,-6.5768,-6.5804,-6.5804,-6.5736,-6.5051,-6.4708,-6.4506,-6.3851,-6.3473,-6.3337,-6.3056,-6.2915,-6.2845,-6.2143,-6.1581,-6.1265,-6.0809,-6.0493,-6.0107,-5.9975,-5.9879,-5.9781,-5.9418,-5.9183,-5.8806,-5.8385,-5.8027,-5.7808,-5.7845,-5.7845,-5.7701,-5.7437,-5.7273,-5.7205,-5.6562,-5.6156,-5.6055,-5.548,-5.5108,-5.4938,-5.4397,-5.3991,-5.3753,-5.3517,-5.328,-5.3212,-5.3178,-5.3178,-5.3144,-5.3144,-5.3109,-5.3041,-5.2903,-5.2764,-5.2624,-5.2622,-5.2622,-5.2587,-5.2551,-5.248,-5.248,-5.2445,-5.2409,-5.2409,-5.2409,-5.2409,-5.2409,-5.2409,-5.2409,-5.2409,-5.2409,-5.2409,-5.2409,-5.2409,-5.2409,-5.2409,-5.2409,-5.2409,-5.2409,-5.2409,-5.2409,-5.2409,-5.2409,-5.2409,-5.2409,-5.2409,-5.2409,-5.2409,-5.2409,-5.2475,-5.2509,-5.2707,-5.2674,-7.0082,-6.9461,-6.9358,-6.9316,-6.911,-6.8192,-6.7661,-6.7522,-6.6746,-6.6361,-6.633,-6.6146,-6.6083,-6.6021,-6.5899,-6.5804,-6.5804,-6.5804,-6.5804,-6.5804,-6.5804,-6.5804,-6.5804,-6.5804,-6.5804,-6.5736,-6.5611,-6.5409,-6.5138,-6.4974,-6.4807,-6.4458,-6.3968,-6.3758,-6.3547,-6.2915,-6.2213,-6.1792,-6.1546,-6.1055,-6.0493,-6.032,-6.0218,-5.9846,-5.9652,-5.9183,-5.8701,-5.8348,-5.8133,-5.7881,-5.7881,-5.7881,-5.7881,-5.7848,-5.7848,-5.7746,-5.7239,-5.6934,-5.6799,-5.6258,-5.5818,-5.5716,-5.5141,-5.4735,-5.46,-5.4126,-5.3687,-5.3687,-5.3551,-5.345,-5.345,-5.3484,-5.3382,-5.328,-5.3213,-5.3144,-5.3007,-5.2938,-5.2903,-5.2903,-5.2729,-5.2659,-5.2589,-5.2518,-5.2445,-5.248,-5.248,-5.2445,-5.2409,-5.2409,-5.2409,-5.2409,-5.2409,-5.2409,-5.2409,-5.2409,-5.2409,-5.2409,-5.2409,-5.2409,-5.2409,-5.2409,-5.2409,-5.2409,-5.2409,-5.2409,-5.2373,-5.2409,-5.2542,-5.2738,-5.297,-5.2837,-5.2807,-5.3102,-5.3202,-7.1168,-7.0951,-7.0372,-7.0149,-6.9901,-6.8603,-6.7957,-6.7885,-6.7059,-6.6668,-6.6608,-6.6397,-6.6238,-6.6207,-6.5962,-6.5804,-6.5804,-6.5804,-6.5804,-6.5804,-6.5804,-6.5804,-6.5804,-6.5804,-6.5804,-6.5772,-6.5611,-6.5477,-6.5379,-6.5182,-6.4945,-6.4876,-6.4565,-6.446,-6.432,-6.3688,-6.3302,-6.2986,-6.2494,-6.1792,-6.1195,-6.102,-6.0706,-6.0151,-5.9786,-5.9217,-5.8666,-5.8455,-5.8277,-5.7991,-5.7918,-5.7918,-5.7918,-5.7881,-5.7881,-5.7848,-5.778,-5.7611,-5.7509,-5.7002,-5.6562,-5.6494,-5.5919,-5.548,-5.5446,-5.4803,-5.4397,-5.4228,-5.3856,-5.3585,-5.3518,-5.3518,-5.3484,-5.3416,-5.3416,-5.3382,-5.3314,-5.3076,-5.2938,-5.2903,-5.2868,-5.2834,-5.2834,-5.2799,-5.2727,-5.2622,-5.2551,-5.2516,-5.248,-5.2409,-5.2409,-5.2409,-5.2409,-5.2409,-5.2409,-5.2409,-5.2409,-5.2409,-5.2409,-5.2608,-5.2575,-5.2542,-5.2575,-5.2509,-5.2409,-5.2442,-5.2605,-5.3003,-5.3235,-5.34,-5.3566,-5.3599,-5.3665,-5.3798,-5.3765,-7.1494,-7.1458,-7.106,-7.0915,-7.0661,-6.9249,-6.8561,-6.8307,-6.7293,-6.6822,-6.6727,-6.6518,-6.6397,-6.6305,-6.6021,-6.5899,-6.5804,-6.5804,-6.5804,-6.5804,-6.5804,-6.5804,-6.5804,-6.5804,-6.5804,-6.5772,-6.5707,-6.5575,-6.5445,-6.5282,-6.5115,-6.5014,-6.481,-6.4671,-6.4706,-6.432,-6.3898,-6.3547,-6.3196,-6.2599,-6.1932,-6.1792,-6.1375,-6.0574,-5.9962,-5.9319,-5.8806,-5.8666,-5.8455,-5.8135,-5.8061,-5.7991,-5.7918,-5.7881,-5.7881,-5.7881,-5.7881,-5.7881,-5.7746,-5.7577,-5.7306,-5.7273,-5.663,-5.6325,-5.6055,-5.5547,-5.4972,-5.4634,-5.4228,-5.3923,-5.3551,-5.3518,-5.3518,-5.3518,-5.3518,-5.3518,-5.345,-5.3314,-5.3178,-5.3178,-5.3144,-5.3041,-5.3041,-5.3007,-5.2903,-5.2764,-5.2589,-5.2553,-5.2483,-5.248,-5.2409,-5.2409,-5.2409,-5.2409,-5.2409,-5.2409,-5.2409,-5.2409,-5.2409,-5.2672,-5.2937,-5.287,-5.2771,-5.2738,-5.2738,-5.287,-5.3102,-5.35,-5.3897,-5.403,-5.4195,-5.4427,-5.4494,-5.4361,-5.4295,-7.1494,-7.1494,-7.1494,-7.1494,-7.1241,-6.9828,-6.9134,-6.8953,-6.7474,-6.6822,-6.6793,-6.6608,-6.6427,-6.6305,-6.6083,-6.5927,-6.5836,-6.5804,-6.5804,-6.5804,-6.5804,-6.5804,-6.5804,-6.5804,-6.5804,-6.5804,-6.5772,-6.5707,-6.5542,-6.5382,-6.5216,-6.5048,-6.4809,-6.4706,-6.4706,-6.4636,-6.439,-6.3934,-6.3828,-6.3372,-6.2705,-6.2564,-6.2112,-6.1245,-6.0414,-5.9765,-5.9323,-5.9013,-5.8666,-5.8278,-5.8207,-5.8099,-5.7991,-5.7918,-5.7881,-5.7881,-5.7881,-5.7881,-5.7881,-5.7848,-5.7814,-5.7848,-5.7374,-5.7002,-5.6799,-5.6325,-5.5716,-5.5175,-5.4769,-5.4194,-5.3619,-5.3518,-5.3518,-5.3518,-5.3518,-5.3518,-5.3518,-5.3518,-5.3484,-5.3416,-5.3314,-5.3247,-5.3179,-5.3144,-5.3041,-5.2903,-5.2764,-5.2624,-5.2589,-5.2518,-5.248,-5.2409,-5.2409,-5.2409,-5.2409,-5.2475,-5.2475,-5.2738,-5.2638,-5.3036,-5.3434,-5.35,-5.3467,-5.3268,-5.3268,-5.3434,-5.3765,-5.4262,-5.456,-5.4622,-5.4957,-5.5322,-5.5189,-5.4891,-5.4891,-7.1494,-7.1494,-7.1494,-7.1494,-7.1277,-6.9865,-6.9243,-6.8923,-6.7547,-6.6822,-6.6793,-6.6572,-6.6457,-6.6269,-6.6079,-6.5927,-6.5836,-6.5804,-6.5804,-6.5804,-6.5804,-6.5804,-6.5804,-6.5804,-6.5804,-6.5804,-6.5839,-6.5879,-6.5675,-6.548,-6.5282,-6.5182,-6.4843,-6.4706,-6.4706,-6.4706,-6.4671,-6.4425,-6.439,-6.4004,-6.3547,-6.3267,-6.2918,-6.2015,-6.1214,-6.0559,-6.008,-5.9426,-5.884,-5.8632,-5.835,-5.8207,-5.8099,-5.7991,-5.7918,-5.7881,-5.7881,-5.7881,-5.7881,-5.7881,-5.7881,-5.7848,-5.7712,-5.7679,-5.7476,-5.7036,-5.6528,-5.6055,-5.5243,-5.4363,-5.3619,-5.3721,-5.3585,-5.3551,-5.3687,-5.3687,-5.3653,-5.3687,-5.3687,-5.3687,-5.3585,-5.3416,-5.3348,-5.3314,-5.3246,-5.3178,-5.3007,-5.2834,-5.2729,-5.2624,-5.2551,-5.248,-5.2409,-5.2409,-5.2409,-5.2473,-5.2605,-5.3202,-5.3367,-5.3699,-5.403,-5.4262,-5.4229,-5.4262,-5.4195,-5.4225,-5.4589,-5.5024,-5.5256,-5.5383,-5.5819,-5.6216,-5.5984,-5.5719,-5.5951,-7.1494,-7.1494,-7.1494,-7.1494,-7.1313,-7.0299,-6.9569,-6.9032,-6.7945,-6.7184,-6.6865,-6.6697,-6.6518,-6.63,-6.6207,-6.6021,-6.5867,-6.5804,-6.5804,-6.5804,-6.5804,-6.5804,-6.5839,-6.5839,-6.6089,-6.6303,-6.641,-6.6196,-6.5807,-6.548,-6.5351,-6.5216,-6.4877,-6.4706,-6.4706,-6.4706,-6.4706,-6.4706,-6.4671,-6.4566,-6.4144,-6.3863,-6.3304,-6.2885,-6.2118,-6.139,-6.0767,-6.0286,-5.9529,-5.8978,-5.8702,-5.8456,-5.8243,-5.8099,-5.7991,-5.7918,-5.7881,-5.7881,-5.7881,-5.7881,-5.7881,-5.7881,-5.7881,-5.7881,-5.7814,-5.7543,-5.7205,-5.6664,-5.5987,-5.504,-5.4735,-5.46,-5.4634,-5.4634,-5.46,-5.46,-5.4634,-5.46,-5.4397,-5.4093,-5.3788,-5.3619,-5.3484,-5.3416,-5.3416,-5.3382,-5.3247,-5.3076,-5.2868,-5.2729,-5.2622,-5.2615,-5.2575,-5.2738,-5.2804,-5.297,-5.3202,-5.3732,-5.4063,-5.4394,-5.4759,-5.499,-5.5388,-5.562,-5.5487,-5.5085,-5.5284,-5.5653,-5.5918,-5.615,-5.6316,-5.6481,-5.6581,-5.668,-5.668,-7.1494,-7.1494,-7.1494,-7.1494,-7.1386,-7.0698,-6.9901,-6.9171,-6.8343,-6.751,-6.6858,-6.6793,-6.6608,-6.6361,-6.6238,-6.6052,-6.5804,-6.5804,-6.5804,-6.5804,-6.5804,-6.5839,-6.6053,-6.6125,-6.6446,-6.716,-6.7195,-6.6874,-6.6453,-6.5873,-6.5599,-6.543,-6.5053,-6.4706,-6.4706,-6.4706,-6.4706,-6.4706,-6.4706,-6.4706,-6.453,-6.4179,-6.3828,-6.3757,-6.299,-6.2222,-6.1735,-6.125,-6.0492,-5.977,-5.9323,-5.8978,-5.8455,-5.8243,-5.8133,-5.8024,-5.7952,-5.7918,-5.7881,-5.7881,-5.7881,-5.7881,-5.7881,-5.7881,-5.7881,-5.778,-5.7543,-5.69,-5.6325,-5.5784,-5.5547,-5.5649,-5.5615,-5.5615,-5.5581,-5.5649,-5.5547,-5.5412,-5.5209,-5.4803,-5.4228,-5.389,-5.3754,-5.3518,-5.3484,-5.3484,-5.3382,-5.3247,-5.3041,-5.2834,-5.2726,-5.2784,-5.2876,-5.3135,-5.3367,-5.3632,-5.3997,-5.4593,-5.4787,-5.4986,-5.5454,-5.5819,-5.615,-5.6316,-5.6183,-5.5852,-5.6084,-5.6183,-5.6316,-5.6481,-5.6614,-5.668,-5.668,-5.668,-5.668,-7.1494,-7.1494,-7.1494,-7.1494,-7.1386,-7.0734,-6.9968,-6.914,-6.838,-6.7583,-6.6822,-6.6793,-6.6668,-6.6488,-6.6177,-6.5958,-6.5867,-6.5836,-6.5836,-6.5804,-6.5911,-6.6232,-6.6731,-6.6839,-6.7267,-6.7873,-6.798,-6.7909,-6.7593,-6.6832,-6.6309,-6.6135,-6.5439,-6.4741,-6.4882,-6.4882,-6.4706,-6.4706,-6.4706,-6.4706,-6.4706,-6.4566,-6.453,-6.4354,-6.393,-6.3401,-6.3019,-6.2496,-6.1732,-6.0834,-6.0324,-5.9702,-5.9012,-5.8421,-5.8243,-5.8099,-5.8027,-5.7881,-5.7918,-5.7881,-5.7881,-5.7881,-5.7881,-5.7881,-5.7881,-5.7848,-5.7611,-5.69,-5.6697,-5.6461,-5.6122,-5.5852,-5.5784,-5.5886,-5.6055,-5.5918,-5.585,-5.6292,-5.6055,-5.575,-5.5243,-5.4499,-5.4025,-5.3754,-5.3518,-5.3518,-5.3484,-5.345,-5.3448,-5.3375,-5.3192,-5.3313,-5.344,-5.3665,-5.4096,-5.4324,-5.4759,-5.535,-5.5554,-5.5686,-5.5984,-5.6282,-5.6448,-5.6547,-5.6448,-5.6415,-5.6448,-5.6514,-5.6647,-5.668,-5.668,-5.668,-5.668,-5.668,-5.668,-7.1494,-7.1494,-7.1494,-7.1494,-7.1458,-7.1132,-7.0299,-6.9316,-6.8814,-6.7981,-6.6967,-6.6822,-6.6697,-6.6482,-6.6269,-6.6083,-6.5927,-6.5931,-6.5867,-6.5982,-6.6232,-6.666,-6.7017,-6.7445,-6.8016,-6.8623,-6.8837,-6.9122,-6.8808,-6.793,-6.7088,-6.6949,-6.6355,-6.5794,-6.5443,-6.5373,-6.5092,-6.4846,-6.4706,-6.4706,-6.4706,-6.4775,-6.4843,-6.4877,-6.4693,-6.4374,-6.3917,-6.3602,-6.2835,-6.1901,-6.1216,-6.046,-5.9737,-5.908,-5.8562,-5.8171,-5.8099,-5.8027,-5.7918,-5.7918,-5.7881,-5.7881,-5.7881,-5.7881,-5.7881,-5.7848,-5.7814,-5.7476,-5.7442,-5.7205,-5.6968,-5.6968,-5.6934,-5.6934,-5.6731,-5.6765,-5.6765,-5.69,-5.6968,-5.663,-5.6258,-5.5547,-5.5006,-5.4905,-5.4735,-5.4566,-5.4599,-5.4633,-5.4595,-5.4518,-5.4298,-5.4033,-5.4162,-5.4328,-5.4754,-5.5118,-5.5487,-5.5951,-5.615,-5.6282,-5.6448,-5.6647,-5.668,-5.668,-5.6614,-5.6614,-5.668,-5.668,-5.668,-5.668,-5.668,-5.668,-5.668,-5.668,-5.668,-7.1494,-7.1494,-7.1494,-7.1494,-7.1494,-7.1494,-7.0589,-6.9279,-6.9171,-6.8271,-6.7112,-6.6822,-6.6697,-6.6548,-6.6361,-6.6207,-6.6021,-6.62,-6.6213,-6.6403,-6.6839,-6.7374,-6.7802,-6.8266,-6.8837,-6.9586,-6.9586,-6.9836,-6.9734,-6.9101,-6.815,-6.7902,-6.7095,-6.6672,-6.6286,-6.611,-6.5865,-6.5162,-6.5092,-6.4986,-6.4845,-6.4946,-6.5014,-6.5115,-6.5178,-6.5065,-6.4503,-6.443,-6.391,-6.2873,-6.2283,-6.1529,-6.0496,-5.9702,-5.9046,-5.8594,-5.8314,-5.8099,-5.7991,-5.7954,-5.7918,-5.7881,-5.7881,-5.7881,-5.7881,-5.7881,-5.7881,-5.7814,-5.7814,-5.7814,-5.7848,-5.778,-5.7679,-5.7645,-5.7679,-5.7814,-5.7848,-5.7645,-5.7509,-5.7306,-5.7002,-5.6867,-5.6427,-5.6325,-5.6089,-5.575,-5.5681,-5.5715,-5.5574,-5.5394,-5.5171,-5.4804,-5.4858,-5.5057,-5.5554,-5.5984,-5.6316,-5.6415,-5.6614,-5.668,-5.668,-5.668,-5.668,-5.668,-5.668,-5.668,-5.668,-5.668,-5.668,-5.668,-5.668,-5.668,-5.668,-5.668,-5.668,-7.1494,-7.1494,-7.1494,-7.1494,-7.1494,-7.1494,-7.0625,-6.9316,-6.9243,-6.8271,-6.6931,-6.6793,-6.6697,-6.6578,-6.659,-6.6438,-6.6093,-6.6773,-6.6964,-6.7189,-6.7659,-6.8337,-6.8766,-6.9122,-6.9586,-7.0193,-7.0229,-7.03,-7.034,-6.9848,-6.9176,-6.8681,-6.7869,-6.7234,-6.6883,-6.6777,-6.6461,-6.5865,-6.5724,-6.5442,-6.5193,-6.5083,-6.5115,-6.5282,-6.5415,-6.5376,-6.5209,-6.5234,-6.4885,-6.3778,-6.3363,-6.2636,-6.1427,-6.0635,-5.9944,-5.915,-5.8732,-5.8484,-5.8239,-5.7991,-5.7918,-5.7881,-5.7881,-5.7881,-5.7881,-5.7881,-5.7881,-5.7881,-5.7881,-5.7881,-5.7881,-5.7881,-5.7881,-5.7881,-5.7881,-5.7881,-5.7881,-5.7848,-5.778,-5.7814,-5.7679,-5.7408,-5.734,-5.7137,-5.6867,-5.6494,-5.6324,-5.6357,-5.601,-5.5794,-5.578,-5.5584,-5.5563,-5.5819,-5.6349,-5.6614,-5.6547,-5.6547,-5.6647,-5.668,-5.668,-5.668,-5.668,-5.668,-5.668,-5.668,-5.668,-5.668,-5.668,-5.668,-5.668,-5.668,-5.668,-5.668,-5.668,-7.1494,-7.1494,-7.1494,-7.1494,-7.1494,-7.1494,-7.0915,-6.9968,-6.9424,-6.8271,-6.6858,-6.6822,-6.6757,-6.6842,-6.7246,-6.7239,-6.707,-6.7757,-6.7848,-6.7975,-6.8444,-6.898,-6.9408,-6.98,-7.0229,-7.0443,-7.0514,-7.0514,-7.0444,-7.0097,-6.9849,-6.9283,-6.8609,-6.8219,-6.7866,-6.7374,-6.6918,-6.6637,-6.6286,-6.5933,-6.579,-6.5426,-6.5346,-6.5447,-6.5611,-6.5675,-6.5643,-6.564,-6.5332,-6.4852,-6.423,-6.3363,-6.2534,-6.1777,-6.0878,-5.9944,-5.9528,-5.911,-5.8452,-5.8133,-5.7918,-5.7881,-5.7881,-5.7881,-5.7881,-5.7881,-5.7881,-5.7881,-5.7881,-5.7881,-5.7881,-5.7881,-5.7881,-5.7881,-5.7881,-5.7881,-5.7881,-5.7881,-5.7881,-5.7848,-5.7848,-5.7746,-5.778,-5.778,-5.7509,-5.7239,-5.7103,-5.693,-5.6581,-5.6331,-5.6348,-5.6225,-5.617,-5.6117,-5.6614,-5.668,-5.668,-5.668,-5.668,-5.668,-5.668,-5.668,-5.668,-5.668,-5.668,-5.668,-5.668,-5.668,-5.668,-5.668,-5.668,-5.668,-5.668,-5.668,-5.668,-7.1494,-7.1494,-7.1494,-7.1494,-7.1494,-7.1494,-7.106,-7.0372,-6.9823,-6.8814,-6.7547,-6.751,-6.751,-6.7692,-6.7963,-6.81,-6.8098,-6.8511,-6.8636,-6.8865,-6.9194,-6.9622,-6.9872,-7.0122,-7.0443,-7.0514,-7.0514,-7.0514,-7.048,-7.0097,-6.9885,-6.9742,-6.956,-6.8956,-6.8603,-6.8041,-6.7656,-6.7376,-6.713,-6.6564,-6.642,-6.6055,-6.572,-6.5682,-6.574,-6.5772,-6.5772,-6.5772,-6.5675,-6.53,-6.482,-6.4233,-6.3612,-6.2887,-6.1986,-6.1224,-6.0601,-6.0116,-5.9214,-5.8345,-5.8024,-5.7918,-5.7881,-5.7881,-5.7881,-5.7881,-5.7881,-5.7881,-5.7881,-5.7881,-5.7881,-5.7881,-5.7881,-5.7881,-5.7881,-5.7881,-5.7881,-5.7881,-5.7881,-5.7881,-5.7881,-5.7881,-5.7881,-5.7881,-5.778,-5.7577,-5.7543,-5.7439,-5.733,-5.7077,-5.6988,-5.6829,-5.6706,-5.6658,-5.668,-5.668,-5.668,-5.668,-5.668,-5.668,-5.668,-5.668,-5.668,-5.668,-5.668,-5.668,-5.668,-5.668,-5.668,-5.668,-5.668,-5.668,-5.668,-5.668,-5.668,-7.1494,-7.1494,-7.1494,-7.1494,-7.1494,-7.1494,-7.1096,-7.0517,-7.0299,-6.9787,-6.8953,-6.8953,-6.8953,-6.8929,-6.8878,-6.8831,-6.8822,-6.9307,-6.9468,-6.9513,-6.9907,-7.0336,-7.0407,-7.0478,-7.0514,-7.0514,-7.0514,-7.0514,-7.0514,-7.0132,-6.9956,-6.9849,-6.9633,-6.9377,-6.9377,-6.9342,-6.9029,-6.8539,-6.8399,-6.7691,-6.7117,-6.6754,-6.6284,-6.606,-6.5807,-6.5804,-6.5804,-6.5804,-6.5707,-6.5471,-6.5308,-6.4754,-6.406,-6.3619,-6.2924,-6.2159,-6.1745,-6.112,-6.0185,-5.897,-5.8271,-5.7988,-5.7954,-5.7881,-5.7881,-5.7881,-5.7881,-5.7881,-5.7881,-5.7881,-5.7881,-5.7881,-5.7881,-5.7881,-5.7881,-5.7881,-5.7881,-5.7881,-5.7881,-5.7881,-5.7881,-5.7881,-5.7881,-5.7881,-5.7881,-5.7848,-5.7848,-5.7845,-5.7808,-5.7588,-5.7289,-5.7139,-5.6911,-5.6757,-5.668,-5.668,-5.668,-5.668,-5.668,-5.668,-5.668,-5.668,-5.668,-5.668,-5.668,-5.668,-5.668,-5.668,-5.668,-5.668,-5.668,-5.668,-5.668,-5.668,-5.668,-7.1494,-7.1494,-7.1494,-7.1494,-7.1494,-7.1494,-7.135,-7.106,-7.0589,-6.9937,-6.9316,-6.9207,-6.9207,-6.9255,-6.9534,-6.9593,-6.9545,-7.0064,-7.0291,-7.0122,-7.0407,-7.0443,-7.0514,-7.0514,-7.0514,-7.0514,-7.0514,-7.0514,-7.0514,-7.0202,-7.0132,-7.0026,-6.9741,-6.9487,-6.9451,-6.9451,-6.9385,-6.921,-6.8965,-6.8572,-6.8176,-6.7423,-6.6845,-6.6553,-6.6089,-6.5875,-6.5804,-6.5804,-6.5772,-6.5675,-6.5513,-6.5136,-6.4723,-6.442,-6.39,-6.3202,-6.2683,-6.2162,-6.1049,-5.9865,-5.8825,-5.8373,-5.7988,-5.7918,-5.7881,-5.7881,-5.7881,-5.7881,-5.7881,-5.7881,-5.7881,-5.7881,-5.7881,-5.7881,-5.7881,-5.7881,-5.7881,-5.7881,-5.7881,-5.7881,-5.7881,-5.7881,-5.7881,-5.7881,-5.7881,-5.7881,-5.7881,-5.7881,-5.7845,-5.7551,-5.7289,-5.7176,-5.6987,-5.6796,-5.668,-5.668,-5.668,-5.668,-5.668,-5.668,-5.668,-5.668,-5.668,-5.668,-5.668,-5.668,-5.668,-5.668,-5.668,-5.668,-5.668,-5.668,-5.668,-5.668,-5.668,-7.1494,-7.1494,-7.1494,-7.1494,-7.1494,-7.1494,-7.1494,-7.1422,-7.0951,-7.0444,-7.0082,-7.0009,-7.0046,-7.0129,-7.0225,-7.0354,-7.0264,-7.0463,-7.065,-7.0514,-7.0514,-7.0514,-7.0514,-7.0514,-7.0514,-7.0514,-7.0514,-7.0514,-7.0514,-7.0306,-7.0167,-7.0026,-6.9884,-6.9705,-6.9633,-6.9598,-6.967,-6.9637,-6.953,-6.9313,-6.8882,-6.8273,-6.7588,-6.7017,-6.6517,-6.6125,-6.5911,-6.5804,-6.5804,-6.574,-6.5643,-6.5412,-6.5282,-6.5009,-6.4597,-6.4006,-6.3309,-6.2823,-6.1882,-6.0836,-5.983,-5.8859,-5.8267,-5.7918,-5.7881,-5.7881,-5.7881,-5.7881,-5.7881,-5.7881,-5.7881,-5.7881,-5.7881,-5.7881,-5.7881,-5.7881,-5.7881,-5.7881,-5.7881,-5.7881,-5.7881,-5.7881,-5.7881,-5.7881,-5.7881,-5.7881,-5.7881,-5.7881,-5.7881,-5.7551,-5.7289,-5.7176,-5.7025,-5.6796,-5.668,-5.668,-5.668,-5.668,-5.668,-5.668,-5.668,-5.668,-5.668,-5.668,-5.668,-5.668,-5.668,-5.668,-5.668,-5.668,-5.668,-5.668,-5.668,-5.668,-5.668,-7.1494,-7.1494,-7.1494,-7.1494,-7.1494,-7.1494,-7.1494,-7.1494,-7.1494,-7.1422,-7.1422,-7.1313,-7.1173,-7.1255,-7.1107,-7.0907,-7.0806,-7.0649,-7.0513,-7.0478,-7.0514,-7.0514,-7.0514,-7.0514,-7.0514,-7.0514,-7.0514,-7.0514,-7.0444,-7.0341,-7.0167,-6.9991,-6.9991,-6.992,-6.9884,-6.9813,-6.9885,-6.9991,-7.006,-6.9808,-6.9483,-6.9196,-6.8409,-6.7695,-6.7053,-6.6517,-6.6196,-6.5911,-6.5839,-6.574,-6.5575,-6.548,-6.5282,-6.5115,-6.4877,-6.4495,-6.3798,-6.3345,-6.2892,-6.188,-6.0973,-5.9927,-5.8815,-5.8262,-5.7881,-5.7881,-5.7881,-5.7881,-5.7881,-5.7881,-5.7881,-5.7881,-5.7881,-5.7881,-5.7881,-5.7881,-5.7881,-5.7881,-5.7881,-5.7881,-5.7881,-5.7881,-5.7881,-5.7881,-5.7881,-5.7881,-5.7881,-5.7881,-5.7808,-5.7514,-5.7327,-5.7252,-5.7025,-5.6757,-5.668,-5.668,-5.668,-5.668,-5.668,-5.668,-5.668,-5.668,-5.668,-5.668,-5.668,-5.668,-5.668,-5.668,-5.668,-5.668,-5.668,-5.668,-5.668,-5.668,-5.668,-7.1494,-7.1494,-7.1494,-7.1494,-7.1494,-7.1494,-7.1494,-7.1494,-7.1494,-7.1494,-7.1494,-7.1494,-7.1436,-7.134,-7.111,-7.0949,-7.0819,-7.065,-7.0548,-7.0514,-7.0514,-7.0514,-7.0514,-7.0514,-7.0514,-7.0514,-7.0514,-7.0514,-7.0514,-7.0411,-7.0411,-7.0376,-7.0167,-7.0202,-7.0202,-7.0132,-7.0132,-7.0202,-7.0306,-7.0232,-6.9945,-6.9658,-6.9015,-6.848,-6.7481,-6.6946,-6.6589,-6.5986,-6.5843,-6.574,-6.5575,-6.5412,-6.5316,-6.5115,-6.4877,-6.4706,-6.4323,-6.4009,-6.3692,-6.2781,-6.187,-6.1204,-6.0257,-5.9013,-5.8395,-5.8019,-5.8019,-5.7915,-5.7881,-5.7881,-5.7881,-5.7881,-5.7881,-5.7881,-5.7881,-5.7881,-5.7881,-5.7881,-5.7881,-5.7881,-5.7881,-5.7881,-5.7881,-5.7881,-5.7881,-5.7881,-5.7881,-5.7881,-5.7772,-5.7514,-5.7327,-5.7252,-5.7025,-5.6719,-5.668,-5.668,-5.668,-5.668,-5.668,-5.668,-5.668,-5.668,-5.668,-5.668,-5.668,-5.668,-5.668,-5.668,-5.668,-5.668,-5.668,-5.668,-5.668,-5.668,-5.668,-7.1494,-7.1494,-7.1494,-7.1494,-7.1494,-7.1467,-7.1399,-7.1399,-7.1436,-7.1404,-7.1304,-7.1304,-7.1276,-7.1179,-7.0982,-7.085,-7.0785,-7.0616,-7.0514,-7.0514,-7.0514,-7.0514,-7.0514,-7.0514,-7.0514,-7.0514,-7.0514,-7.0514,-7.0514,-7.0514,-7.0514,-7.048,-7.0341,-7.0375,-7.0375,-7.0341,-7.0306,-7.0341,-7.041,-7.048,-7.03,-6.9979,-6.9729,-6.9122,-6.8016,-6.7412,-6.6848,-6.6171,-6.5746,-6.5611,-6.5445,-6.5313,-6.5182,-6.4979,-6.4843,-6.4672,-6.4567,-6.4323,-6.4042,-6.3655,-6.2879,-6.2206,-6.1428,-6.0421,-5.9349,-5.8801,-5.8358,-5.8017,-5.7915,-5.7881,-5.7881,-5.7881,-5.7881,-5.7881,-5.7881,-5.7881,-5.7881,-5.7881,-5.7881,-5.7881,-5.7881,-5.7881,-5.7881,-5.7881,-5.7881,-5.7881,-5.7881,-5.7881,-5.7772,-5.7514,-5.7364,-5.7289,-5.6987,-5.668,-5.668,-5.668,-5.668,-5.668,-5.668,-5.668,-5.668,-5.668,-5.668,-5.668,-5.668,-5.668,-5.668,-5.668,-5.668,-5.668,-5.668,-5.668,-5.668,-5.668,-5.668,-7.1494,-7.1494,-7.1494,-7.1463,-7.1463,-7.134,-7.1276,-7.1243,-7.1211,-7.1179,-7.1048,-7.1012,-7.1012,-7.0982,-7.0886,-7.0785,-7.0684,-7.0582,-7.0514,-7.0514,-7.0514,-7.0514,-7.0514,-7.0514,-7.0514,-7.0514,-7.0514,-7.0514,-7.0514,-7.0514,-7.0514,-7.0514,-7.048,-7.0514,-7.048,-7.048,-7.041,-7.048,-7.048,-7.0514,-7.0514,-7.0371,-7.0157,-6.9445,-6.8589,-6.781,-6.6894,-6.6152,-6.5483,-6.5384,-6.5216,-6.5149,-6.4911,-6.474,-6.4637,-6.4602,-6.4568,-6.4393,-6.418,-6.3933,-6.3404,-6.2731,-6.209,-6.1388,-6.052,-5.9275,-5.8592,-5.8254,-5.8152,-5.7949,-5.7881,-5.7881,-5.7881,-5.7881,-5.7881,-5.7881,-5.7881,-5.7881,-5.7881,-5.7881,-5.7881,-5.7881,-5.7881,-5.7881,-5.7881,-5.7881,-5.7881,-5.7881,-5.7772,-5.7514,-5.7402,-5.7289,-5.6987,-5.6719,-5.668,-5.668,-5.668,-5.668,-5.668,-5.668,-5.668,-5.668,-5.668,-5.668,-5.668,-5.668,-5.668,-5.668,-5.668,-5.668,-5.668,-5.668,-5.668,-5.668,-5.668,-7.1494,-7.1494,-7.1494,-7.1467,-7.134,-7.1308,-7.115,-7.0919,-7.0919,-7.0985,-7.0979,-7.0979,-7.0949,-7.0852,-7.0785,-7.0718,-7.0582,-7.0548,-7.0514,-7.0514,-7.0514,-7.0514,-7.0514,-7.0514,-7.0514,-7.0514,-7.0514,-7.048,-7.0444,-7.048,-7.048,-7.048,-7.048,-7.0445,-7.041,-7.041,-7.0445,-7.048,-7.048,-7.048,-7.0514,-7.0514,-7.03,-6.9875,-6.9271,-6.835,-6.7502,-6.6623,-6.5815,-6.5257,-6.4946,-6.474,-6.4568,-6.4393,-6.4393,-6.4428,-6.4393,-6.4251,-6.4108,-6.3999,-6.361,-6.3319,-6.2781,-6.2289,-6.1347,-5.9892,-5.8964,-5.866,-5.8355,-5.8084,-5.7915,-5.7915,-5.7881,-5.7881,-5.7881,-5.7881,-5.7881,-5.7881,-5.7881,-5.7881,-5.7881,-5.7881,-5.7881,-5.7881,-5.7881,-5.7881,-5.7881,-5.7881,-5.7772,-5.7588,-5.7402,-5.7252,-5.6911,-5.6719,-5.6719,-5.668,-5.668,-5.668,-5.668,-5.668,-5.668,-5.668,-5.668,-5.668,-5.668,-5.668,-5.668,-5.668,-5.668,-5.668,-5.668,-5.668,-5.668,-5.668,-5.668,-7.1494,-7.1531,-7.1399,-7.134,-7.1179,-7.1117,-7.0952,-7.0785,-7.0684,-7.0718,-7.0783,-7.0783,-7.0716,-7.065,-7.065,-7.065,-7.0514,-7.0514,-7.0514,-7.0514,-7.0514,-7.0514,-7.0514,-7.0514,-7.0514,-7.0514,-7.0375,-7.0341,-7.0341,-7.0237,-7.0202,-7.0237,-7.0237,-7.0237,-7.0237,-7.0237,-7.0306,-7.0341,-7.0341,-7.0375,-7.048,-7.0514,-7.0514,-7.0196,-6.9559,-6.8673,-6.7688,-6.6772,-6.5756,-6.4986,-6.4603,-6.4463,-6.4323,-6.4287,-6.4251,-6.4252,-6.4251,-6.4143,-6.3963,-6.3854,-6.371,-6.3452,-6.3193,-6.2522,-6.2191,-6.0871,-5.9979,-5.9607,-5.8863,-5.8558,-5.8321,-5.8287,-5.7983,-5.7881,-5.7881,-5.7881,-5.7881,-5.7881,-5.7881,-5.7881,-5.7881,-5.7881,-5.7881,-5.7881,-5.7881,-5.7881,-5.7881,-5.7881,-5.7772,-5.7588,-5.7402,-5.7214,-5.6911,-5.6719,-5.6719,-5.668,-5.668,-5.668,-5.668,-5.668,-5.668,-5.668,-5.668,-5.668,-5.668,-5.668,-5.668,-5.668,-5.668,-5.668,-5.668,-5.668,-5.668,-5.668,-5.668,-7.1431,-7.1399,-7.1308,-7.1146,-7.0982,-7.0852,-7.0785,-7.0718,-7.0582,-7.0514,-7.0548,-7.0548,-7.0514,-7.0514,-7.0514,-7.0514,-7.0514,-7.0514,-7.0514,-7.0514,-7.0514,-7.0514,-7.0514,-7.0514,-7.048,-7.0375,-7.0306,-7.0202,-7.0167,-7.0062,-6.9956,-6.9885,-6.9885,-6.9885,-6.9885,-6.992,-7.0026,-7.0132,-7.0167,-7.0237,-7.0341,-7.0444,-7.0514,-7.016,-6.9631,-6.8678,-6.7691,-6.6637,-6.5619,-6.4777,-6.432,-6.418,-6.4073,-6.4037,-6.4037,-6.4037,-6.3929,-6.382,-6.371,-6.3637,-6.3489,-6.3302,-6.3076,-6.2817,-6.2489,-6.1927,-6.1032,-6.0419,-5.9708,-5.9133,-5.893,-5.8592,-5.8254,-5.7983,-5.7983,-5.7881,-5.7881,-5.7881,-5.7881,-5.7881,-5.7881,-5.7881,-5.7881,-5.7881,-5.7881,-5.7881,-5.7881,-5.7881,-5.7808,-5.7588,-5.7364,-5.7176,-5.6911,-5.6796,-5.6719,-5.668,-5.668,-5.668,-5.668,-5.668,-5.668,-5.668,-5.668,-5.668,-5.668,-5.668,-5.668,-5.668,-5.668,-5.668,-5.668,-5.668,-5.668,-5.668,-5.668,-7.1243,-7.1078,-7.1045,-7.0982,-7.0852,-7.0785,-7.0684,-7.0582,-7.0548,-7.0514,-7.0514,-7.0514,-7.0514,-7.0514,-7.0514,-7.0514,-7.0514,-7.0514,-7.0514,-7.0514,-7.0514,-7.0514,-7.0514,-7.0514,-7.0411,-7.0272,-7.0202,-7.0097,-6.9956,-6.9885,-6.9849,-6.9849,-6.9813,-6.9849,-6.9884,-6.9884,-6.9778,-6.9849,-6.9885,-6.9956,-7.0097,-7.0237,-7.048,-7.027,-6.999,-6.9212,-6.8293,-6.7198,-6.6068,-6.508,-6.4202,-6.3923,-6.3783,-6.3673,-6.3637,-6.3637,-6.3526,-6.3414,-6.334,-6.3302,-6.3152,-6.3114,-6.2885,-6.277,-6.2547,-6.243,-6.1811,-6.1603,-6.0892,-6.0114,-5.9742,-5.9201,-5.8795,-5.849,-5.8355,-5.8051,-5.7881,-5.7881,-5.7881,-5.7881,-5.7881,-5.7881,-5.7881,-5.7881,-5.7881,-5.7881,-5.7881,-5.7881,-5.7845,-5.7588,-5.7327,-5.7139,-5.6949,-5.6796,-5.668,-5.668,-5.668,-5.668,-5.668,-5.668,-5.668,-5.668,-5.668,-5.668,-5.668,-5.668,-5.668,-5.668,-5.668,-5.668,-5.668,-5.668,-5.668,-5.668,-5.668]},{"header":{"parameterUnit":"m.s-1","parameterCategory":1,"la1":31.0,"la2":29.5877,"lo1":-88.7671,"lo2":-86.6584,"dy":0.0162,"dx":0.0185,"nx":115,"ny":88,"refTime":"2023-04-01T12:00:00:Z","depth":0,"parameterNumber":3,"parameterNumberName":"V-component_of_WINDS"},"data":[0.0,0.0,0.0,0.0,0.0,0.0,0.0,0.0,0.0,0.0,0.0,0.0,0.0,0.0,0.0,0.0,0.0,0.0,0.0,0.0,0.0,0.0,0.0,0.0,0.0,0.0,0.0,0.0,0.0,0.0,0.0,0.0,0.0,0.0,0.0,0.0,0.0,0.0,0.0,0.0,0.0,0.0,0.0,0.0,0.0,0.0,0.0,0.0,0.0,0.0,0.0,0.0,0.0,0.0,0.0,0.0,0.0,0.0,0.0,0.0,0.0,0.0,0.0,0.0,0.0,0.0,0.0,0.0,0.0,0.0,0.0,0.0,0.0,0.0,0.0,0.0,0.0,0.0,0.0,0.0,0.0,0.0,0.0,0.0,0.0,0.0,0.0,0.0,0.0,0.0,0.0,0.0,0.0,0.0,0.0,0.0,0.0,0.0,0.0,0.0,0.0,0.0,0.0,0.0,0.0,0.0,0.0,0.0,0.0,0.0,0.0,0.0,0.0,0.0,0.0,0.0,0.0,0.0,0.0,0.0,0.0,0.0,0.0,0.0,0.0,0.0,0.0,0.0,0.0,0.0,0.0,0.0,0.0,0.0,0.0,0.0,0.0,0.0,0.0,0.0,0.0,0.0,0.0,0.0,0.0,0.0,0.0,0.0,0.0,0.0,0.0,0.0,0.0,0.0,0.0,0.0,0.0,0.0,0.0,0.0,0.0,0.0,0.0,0.0,0.0,0.0,0.0,0.0,0.0,0.0,0.0,0.0,0.0,0.0,0.0,0.0,0.0,0.0,0.0,0.0,0.0,0.0,0.0,0.0,0.0,0.0,0.0,0.0,0.0,0.0,0.0,0.0,0.0,0.0,0.0,0.0,0.0,0.0,0.0,0.0,0.0,0.0,0.0,0.0,0.0,0.0,0.0,0.0,0.0,0.0,0.0,0.0,0.0,0.0,0.0,0.0,0.0,0.0,0.0,0.0,0.0,0.0,0.0,0.0,0.0,0.0,0.0,0.0,0.0,0.0,0.0,0.0,0.0,0.0,0.0,0.0,0.0,0.0,0.0,0.0,0.0,0.0,0.0,0.0,0.0,0.0,0.0,0.0,0.0,0.0,0.0,0.0,0.0,0.0,0.0,0.0,0.0,0.0,0.0,0.0,0.0,0.0,0.0,0.0,0.0,0.0,0.0,0.0,0.0,0.0,0.0,0.0,0.0,0.0,0.0,0.0,0.0,0.0,0.0,0.0,0.0,0.0,0.0,0.0,0.0,0.0,0.0,0.0,0.0,0.0,0.0,0.0,0.0,0.0,0.0,0.0,0.0,0.0,0.0,0.0,0.0,0.0,0.0,0.0,0.0,0.0,0.0,0.0,0.0,0.0,0.0,0.0,0.0,0.0,0.0,0.0,0.0,0.0,0.0,0.0,0.0,0.0,0.0,0.0,0.0,0.0,0.0,0.0,0.0,0.0,0.0,0.0,0.0,0.0,0.0,0.0,0.0,0.0,0.0,0.0,0.0,0.0,0.0,0.0,0.0,0.0,0.0,0.0,0.0,0.0,0.0,0.0,0.0,0.0,0.0,0.0,0.0,0.0,0.0,0.0,0.0,0.0,0.0,0.0,0.0,0.0,0.0,0.0,0.0,0.0,0.0,0.0,0.0,0.0,0.0,0.0,0.0,0.0,0.0,0.0,0.0,0.0,0.0,0.0,0.0,0.0,0.0,0.0,0.0,0.0,0.0,0.0,0.0,0.0,0.0,0.0,0.0,0.0,0.0,0.0,0.0,0.0,0.0,0.0,0.0,0.0,0.0,0.0,0.0,0.0,0.0,0.0,0.0,0.0,0.0,0.0,0.0,0.0,0.0,0.0,0.0,0.0,0.0,0.0,0.0,0.0,0.0,0.0,0.0,0.0,0.0,0.0,0.0,0.0,0.0,0.0,0.0,0.0,0.0,0.0,0.0,0.0,0.0,0.0,0.0,0.0,0.0,0.0,0.0,0.0,0.0,0.0,0.0,0.0,0.0,0.0,0.0,0.0,0.0,0.0,0.0,0.0,0.0,0.0,0.0,0.0,0.0,0.0,0.0,0.0,0.0,0.0,0.0,0.0,0.0,0.0,0.0,0.0,0.0,0.0,0.0,0.0,0.0,0.0,0.0,0.0,0.0,0.0,0.0,0.0,0.0,0.0,0.0,0.0,0.0,0.0,0.0,0.0,0.0,0.0,0.0,0.0,0.0,0.0,0.0,0.0,0.0,0.0,0.0,0.0,0.0,0.0,0.0,0.0,0.0,0.0,0.0,0.0,0.0,0.0,0.0,0.0,0.0,0.0,0.0,0.0,0.0,0.0,0.0,0.0,0.0,0.0,0.0,0.0,0.0,0.0,0.0,0.0,0.0,0.0,0.0,0.0,0.0,0.0,0.0,0.0,0.0,0.0,0.0,0.0,0.0,0.0,0.0,0.0,0.0,0.0,0.0,0.0,0.0,0.0,0.0,0.0,0.0,0.0,0.0,0.0,0.0,0.0,0.0,0.0,0.0,0.0,0.0,0.0,0.0,0.0,0.0,0.0,0.0,0.0,0.0,0.0,0.0,0.0,0.0,0.0,0.0,0.0,0.0,0.0,0.0,0.0,0.0,0.0,0.0,0.0,0.0,0.0,0.0,0.0,0.0,0.0,0.0,0.0,0.0,0.0,0.0,0.0,0.0,0.0,0.0,0.0,0.0,0.0,0.0,0.0,0.0,0.0,0.0,0.0,0.0,0.0,0.0,0.0,0.0,0.0,0.0,0.0,0.0,0.0,0.0,0.0,0.0,0.0,0.0,0.0,0.0,0.0,0.0,0.0,0.0,0.0,0.0,0.0,0.0,0.0,0.0,0.0,0.0,0.0,0.0,0.0,0.0,0.0,0.0,0.0,0.0,0.0,0.0,0.0,0.0,0.0,0.0,0.0,0.0,0.0,0.0,0.0,0.0,0.0,0.0,0.0,0.0,0.0,0.0,0.0,0.0,0.0,0.0,0.0,0.0,0.0,0.0,0.0,0.0,0.0,0.0,0.0,0.0,0.0,0.0,0.0,0.0,0.0,0.0,0.0,0.0,0.0,0.0,0.0,0.0,0.0,0.0,0.0,0.0,0.0,0.0,0.0,0.0,0.0,0.0,0.0,0.0,0.0,0.0,0.0,0.0,0.0,0.0,0.0,0.0,0.0,0.0,0.0,0.0,0.0,0.0,0.0,0.0,0.0,0.0,0.0,0.0,0.0,0.0,0.0,0.0,0.0,0.0,0.0,0.0,0.0,0.0,0.0,0.0,0.0,0.0,0.0,0.0,0.0,0.0,0.0,0.0,0.0,0.0,0.0,0.0,0.0,0.0,0.0,0.0,0.0,0.0,0.0,0.0,0.0,0.0,0.0,0.0,0.0,0.0,0.0,0.0,0.0,0.0,0.0,0.0,0.0,0.0,0.0,0.0,0.0,0.0,0.0,0.0,0.0,0.0,0.0,0.0,0.0,0.0,0.0,0.0,0.0,0.0,0.0,0.0,0.0,0.0,0.0,0.0,0.0,0.0,0.0,0.0,0.0,0.0,0.0,0.0,0.0,0.0,0.0,0.0,0.0,0.0,0.0,0.0,0.0,0.0,0.0,0.0,0.0,0.0,0.0,0.0,0.0,0.0,0.0,0.0,0.0,0.0,0.0,0.0,0.0,0.0,0.0,0.0,0.0,0.0,0.0,0.0,0.0,0.0,0.0,0.0,0.0,0.0,0.0,0.0,0.0,0.0,0.0,0.0,0.0,0.0,0.0,0.0,0.0,0.0,0.0,0.0,0.0,0.0,0.0,0.0,0.0,0.0,0.0,0.0,0.0,0.0,0.0,0.0,0.0,0.0,0.0,0.0,0.0,0.0,0.0,0.0,0.0,0.0,0.0,0.0,0.0,0.0,0.0,0.0,0.0,0.0,0.0,0.0,0.0,0.0,0.0,0.0,0.0,0.0,0.0,0.0,0.0,0.0,0.0,0.0,0.0,0.0,0.0,0.0,0.0,0.0,0.0,0.0,0.0,0.0,0.0,0.0,0.0,0.0,0.0,0.0,0.0,0.0,0.0,0.0,0.0,0.0,0.0,0.0,0.0,0.0,0.0,0.0,0.0,0.0,0.0,0.0,0.0,0.0,0.0,0.0,0.0,0.0,0.0,0.0,0.0,0.0,0.0,0.0,0.0,0.0,0.0,0.0,0.0,0.0,0.0,0.0,0.0,0.0,0.0,0.0,0.0,0.0,0.0,0.0,0.0,1.2382,0.0,0.0,0.0,0.0,0.0,0.0,0.0,0.0,0.0,0.0,0.0,0.0,0.0,0.0,0.0,0.0,0.0,0.0,0.0,0.0,0.0,0.0,0.0,0.0,0.0,0.0,0.0,0.0,0.0,0.0,0.0,0.0,0.0,0.0,0.0,0.0,0.0,0.0,0.0,0.0,0.0,0.0,0.0,0.0,0.0,0.0,0.0,0.0,0.0,0.0,0.0,0.0,0.0,0.0,0.0,0.0,0.0,0.0,0.0,0.0,0.0,0.0,0.0,0.0,0.0,0.0,0.0,0.0,0.0,0.0,0.0,0.0,0.0,0.0,0.0,0.0,0.0,0.0,0.0,0.0,0.0,0.0,0.0,0.0,0.0,0.0,0.0,0.0,0.0,0.0,0.0,0.0,0.0,0.0,0.0,0.0,0.0,0.0,0.0,0.0,0.0,0.0,0.0,0.0,0.0,0.0,0.0,0.0,0.0,0.0,1.2382,1.2382,1.2382,1.2382,1.2382,0.0,0.0,0.0,0.0,0.0,0.0,0.0,0.0,0.0,0.0,0.0,0.0,0.0,0.0,0.0,0.0,0.0,0.0,0.0,0.0,0.0,0.0,0.0,0.0,0.0,0.0,0.0,0.0,0.0,0.0,0.0,0.0,0.0,0.0,0.0,0.0,0.0,0.0,0.0,0.0,0.0,0.0,0.0,0.0,0.0,0.0,0.0,0.0,0.0,0.0,0.0,0.0,0.0,0.0,0.0,0.0,0.0,0.0,0.0,0.0,0.0,0.0,0.0,0.0,0.0,0.0,0.0,0.0,0.0,0.0,0.0,0.0,0.0,0.0,0.0,0.0,0.0,0.0,0.0,0.0,0.0,0.0,0.0,0.0,0.0,0.0,0.0,0.0,0.0,0.0,0.0,0.0,0.0,0.0,0.0,0.0,0.0,0.0,0.0,0.0,0.0,0.0,0.0,0.0,0.0,0.0,0.0,0.0,0.0,0.0,0.0,0.0,1.2382,1.2382,1.2382,0.0,0.0,0.0,0.0,0.0,0.0,0.0,0.0,0.0,0.0,0.0,0.0,0.0,0.0,0.0,0.0,0.0,0.0,0.0,0.0,0.0,0.0,0.0,0.0,0.0,0.0,0.0,0.0,0.0,0.0,0.0,0.0,0.0,0.0,0.0,0.0,0.0,0.0,0.0,0.0,0.0,0.0,0.0,0.0,0.0,0.0,0.0,0.0,0.0,0.0,0.0,0.0,0.0,0.0,0.0,0.0,0.0,0.0,0.0,0.0,0.0,0.0,0.0,0.0,0.0,0.0,0.0,0.0,0.0,0.0,0.0,0.0,0.0,0.0,0.0,0.0,0.0,0.0,0.0,0.0,0.0,0.0,0.0,0.0,0.0,0.0,0.0,0.0,0.0,0.0,0.0,0.0,0.0,0.0,0.0,0.0,0.0,0.0,0.0,0.0,0.0,0.0,0.0,0.0,0.0,0.0,0.0,0.0,0.0,0.0,1.2382,1.2382,1.2382,0.0,1.2382,0.0,0.0,0.0,0.0,0.0,0.0,0.0,0.0,0.0,0.0,0.0,0.0,0.0,0.0,0.0,0.0,0.0,0.0,0.0,0.0,0.0,0.0,0.0,0.0,0.0,0.0,0.0,0.0,0.0,0.0,0.0,0.0,0.0,0.0,0.0,0.0,0.0,0.0,0.0,0.0,0.0,0.0,0.0,0.0,0.0,0.0,0.0,0.0,0.0,0.0,0.0,0.0,0.0,0.0,0.0,0.0,0.0,0.0,0.0,0.0,0.0,0.0,0.0,0.0,0.0,0.0,0.0,0.0,0.0,0.0,0.0,0.0,0.0,0.0,0.0,0.0,0.0,0.0,0.0,0.0,0.0,0.0,0.0,0.0,0.0,0.0,0.0,0.0,0.0,0.0,0.0,0.0,0.0,0.0,0.0,0.0,0.0,0.0,0.0,0.0,0.0,0.0,0.0,0.0,0.0,0.0,0.0,0.0,0.0,0.0,1.2599,1.2382,1.2382,1.2382,0.0,0.0,0.0,0.0,0.0,0.0,0.0,0.0,0.0,0.0,0.0,0.0,0.0,0.0,0.0,0.0,0.0,0.0,0.0,0.0,0.0,0.0,0.0,0.0,0.0,0.0,0.0,0.0,0.0,0.0,0.0,0.0,0.0,0.0,0.0,0.0,0.0,0.0,0.0,0.0,0.0,0.0,0.0,0.0,0.0,0.0,0.0,0.0,0.0,0.0,0.0,0.0,0.0,0.0,0.0,0.0,0.0,0.0,0.0,0.0,0.0,0.0,0.0,0.0,0.0,0.0,0.0,0.0,0.0,0.0,0.0,0.0,0.0,0.0,0.0,0.0,0.0,0.0,0.0,0.0,0.0,0.0,0.0,0.0,0.0,0.0,0.0,0.0,0.0,0.0,0.0,0.0,0.0,0.0,0.0,0.0,0.0,0.0,0.0,0.0,0.0,0.0,0.0,0.0,0.0,0.0,0.0,0.0,0.0,0.0,1.3152,1.2989,1.2654,1.2654,1.2654,1.2654,0.0,0.0,0.0,0.0,0.0,0.0,0.0,0.0,0.0,0.0,0.0,0.0,0.0,0.0,0.0,0.0,0.0,0.0,0.0,0.0,0.0,0.0,0.0,0.0,0.0,0.0,0.0,0.0,0.0,0.0,0.0,0.0,0.0,0.0,0.0,0.0,0.0,0.0,0.0,0.0,0.0,0.0,0.0,0.0,0.0,0.0,0.0,0.0,0.0,0.0,0.0,0.0,0.0,0.0,0.0,0.0,0.0,0.0,0.0,0.0,0.0,0.0,0.0,0.0,0.0,0.0,0.0,0.0,0.0,0.0,0.0,0.0,0.0,0.0,0.0,0.0,0.0,0.0,0.0,0.0,0.0,0.0,0.0,0.0,0.0,0.0,0.0,0.0,0.0,0.0,0.0,0.0,0.0,0.0,0.0,0.0,0.0,0.0,0.0,0.0,0.0,0.0,0.0,0.0,0.0,0.0,0.0,0.0,1.3694,1.3694,1.3532,1.3261,1.3261,1.3261,0.0,0.0,0.0,0.0,0.0,0.0,0.0,0.0,0.0,0.0,0.0,0.0,0.0,0.0,0.0,0.0,0.0,0.0,0.0,0.0,0.0,0.0,0.0,0.0,0.0,0.0,0.0,0.0,0.0,0.0,0.0,0.0,0.0,0.0,0.0,0.0,0.0,0.0,0.0,0.0,0.0,0.0,0.0,0.0,0.0,0.0,0.0,0.0,0.0,0.0,0.0,0.0,0.0,0.0,0.0,0.0,0.0,0.0,0.0,0.0,0.0,0.0,0.0,0.0,0.0,0.0,0.0,0.0,0.0,0.0,0.0,0.0,0.0,0.0,0.0,0.0,0.0,0.0,0.0,0.0,0.0,0.0,0.0,0.0,0.0,0.0,0.0,0.0,0.0,0.0,0.0,0.0,0.0,0.0,0.0,0.0,0.0,0.0,0.0,0.0,0.0,0.0,0.0,0.0,0.0,0.0,0.0,0.0,0.0,1.4557,1.4169,1.3954,1.3846,1.3846,1.39,0.0,0.0,0.0,0.0,0.0,0.0,0.0,0.0,0.0,0.0,0.0,0.0,0.0,0.0,0.0,0.0,0.0,0.0,0.0,0.0,0.0,0.0,0.0,0.0,0.0,0.0,0.0,0.0,0.0,0.0,0.0,0.0,0.0,0.0,0.0,0.0,0.0,0.0,0.0,0.0,0.0,0.0,0.0,0.0,0.0,0.0,0.0,0.0,0.0,0.0,0.0,0.0,0.0,0.0,0.0,0.0,0.0,0.0,0.0,0.0,0.0,0.0,0.0,0.0,0.0,0.0,0.0,0.0,0.0,0.0,0.0,0.0,0.0,0.0,0.0,0.0,0.0,0.0,0.0,0.0,0.0,0.0,0.0,0.0,0.0,0.0,0.0,0.0,0.0,0.0,0.0,0.0,0.0,0.0,0.0,0.0,0.0,0.0,0.0,0.0,0.0,0.0,0.0,0.0,0.0,0.0,0.0,0.0,0.0,1.5416,0.0,1.4761,1.4761,1.4761,1.4761,0.0,0.0,0.0,0.0,0.0,0.0,0.0,0.0,0.0,0.0,0.0,0.0,0.0,0.0,0.0,0.0,0.0,0.0,0.0,0.0,0.0,0.0,0.0,0.0,0.0,0.0,0.0,0.0,0.0,0.0,0.0,0.0,0.0,0.0,0.0,0.0,0.0,0.0,0.0,0.0,0.0,0.0,0.0,0.0,0.0,0.0,0.0,0.0,0.0,0.0,0.0,0.0,0.0,0.0,0.0,0.0,0.0,0.0,0.0,0.0,0.0,0.0,0.0,0.0,0.0,0.0,0.0,0.0,0.0,0.0,0.0,0.0,0.0,0.0,0.0,0.0,0.0,0.0,0.0,0.0,0.0,0.0,0.0,0.0,0.0,0.0,0.0,0.0,0.0,0.0,0.0,0.0,0.0,0.0,0.0,0.0,0.0,0.0,0.0,0.0,0.0,0.0,0.0,0.0,0.0,0.0,0.0,0.0,1.6577,1.6324,1.6057,1.5885,1.5885,1.5885,1.5885,0.0,0.0,0.0,0.0,0.0,0.0,0.0,0.0,0.0,0.0,0.0,0.0,0.0,0.0,0.0,0.0,0.0,0.0,0.0,0.0,0.0,0.0,0.0,0.0,0.0,0.0,0.0,0.0,0.0,0.0,0.0,0.0,0.0,0.0,0.0,0.0,0.0,0.0,0.0,0.0,0.0,0.0,0.0,0.0,0.0,0.0,0.0,0.0,0.0,0.0,0.0,0.0,0.0,0.0,0.0,0.0,0.0,0.0,0.0,0.0,0.0,0.0,0.0,0.0,0.0,0.0,0.0,0.0,0.0,0.0,0.0,0.0,0.0,0.0,0.0,0.0,0.0,0.0,0.0,0.0,0.0,0.0,0.0,0.0,0.0,0.0,0.0,0.0,0.0,0.0,0.0,0.0,0.0,0.0,0.0,0.0,0.0,0.0,0.0,0.0,0.0,0.0,0.0,0.0,0.0,0.0,0.0,0.0,0.0,1.7213,1.6961,1.6696,1.6471,1.6471,1.6471,0.0,0.0,0.0,0.0,0.0,0.0,0.0,0.0,0.0,0.0,0.0,0.0,0.0,0.0,0.0,0.0,0.0,0.0,0.0,0.0,0.0,0.0,0.0,0.0,0.0,0.0,0.0,0.0,0.0,0.0,0.0,0.0,0.0,0.0,0.0,0.0,0.0,0.0,0.0,0.0,0.0,0.0,0.0,0.0,0.0,0.0,0.0,0.0,0.0,0.0,0.0,0.0,0.0,0.0,0.0,0.0,0.0,0.0,0.0,0.0,0.0,0.0,0.0,0.0,0.0,0.0,0.0,0.0,0.0,0.0,0.0,0.0,0.0,0.0,0.0,0.0,0.0,0.0,0.0,0.0,0.0,0.0,0.0,0.0,0.0,0.0,0.0,0.0,0.0,0.0,0.0,0.0,0.0,0.0,0.0,0.0,0.0,0.0,0.0,0.0,0.0,0.0,0.0,0.0,0.0,0.0,0.0,0.0,0.0,1.822,1.786,1.7529,1.7305,1.7318,1.7265,1.7213,0.0,0.0,0.0,0.0,0.0,0.0,0.0,0.0,0.0,0.0,0.0,0.0,0.0,0.0,0.0,0.0,0.0,0.0,0.0,0.0,0.0,0.0,0.0,0.0,0.0,0.0,0.0,0.0,0.0,0.0,0.0,0.0,0.0,0.0,0.0,0.0,0.0,0.0,0.0,0.0,0.0,0.0,0.0,0.0,0.0,0.0,0.0,0.0,0.0,0.0,0.0,0.0,0.0,0.0,0.0,0.0,0.0,0.0,0.0,0.0,0.0,0.0,0.0,0.0,0.0,0.0,0.0,0.0,0.0,0.0,0.0,0.0,0.0,0.0,0.0,0.0,0.0,0.0,0.0,0.0,0.0,0.0,0.0,0.0,0.0,0.0,0.0,0.0,0.0,0.0,0.0,0.0,0.0,0.0,0.0,0.0,0.0,0.0,0.0,0.0,0.0,0.0,0.0,0.0,0.0,0.0,0.0,0.0,1.9356,1.8791,1.8478,1.8478,1.8412,1.8293,0.0,0.0,0.0,0.0,0.0,0.0,0.0,0.0,0.0,0.0,0.0,0.0,0.0,0.0,0.0,0.0,0.0,0.0,0.0,0.0,0.0,0.0,0.0,0.0,0.0,0.0,0.0,0.0,0.0,0.0,0.0,0.0,0.0,0.0,0.0,0.0,0.0,0.0,0.0,0.0,0.0,0.0,0.0,0.0,0.0,0.0,0.0,0.0,0.0,0.0,0.0,0.0,0.0,0.0,0.0,0.0,0.0,0.0,0.0,0.0,0.0,0.0,0.0,0.0,0.0,0.0,0.0,0.0,0.0,0.0,0.0,0.0,0.0,0.0,0.0,0.0,0.0,0.0,0.0,0.0,0.0,0.0,0.0,0.0,0.0,0.0,0.0,0.0,0.0,0.0,0.0,0.0,0.0,0.0,0.0,0.0,0.0,0.0,0.0,0.0,0.0,0.0,0.0,0.0,0.0,0.0,0.0,0.0,0.0,1.9928,1.9816,1.9542,1.9163,1.8884,1.8719,0.0,0.0,0.0,0.0,0.0,0.0,0.0,0.0,0.0,0.0,0.0,0.0,0.0,0.0,0.0,0.0,0.0,0.0,0.0,0.0,0.0,0.0,0.0,0.0,0.0,0.0,0.0,0.0,0.0,0.0,0.0,0.0,0.0,0.0,0.0,0.0,0.0,0.0,0.0,0.0,0.0,0.0,0.0,0.0,0.0,0.0,0.0,0.0,0.0,0.0,0.0,0.0,0.0,0.0,0.0,0.0,0.0,0.0,0.0,0.0,0.0,0.0,0.0,0.0,0.0,0.0,0.0,0.0,0.0,0.0,0.0,0.0,0.0,0.0,0.0,0.0,0.0,0.0,0.0,0.0,0.0,0.0,0.0,0.0,0.0,0.0,0.0,0.0,0.0,0.0,0.0,0.0,0.0,0.0,0.0,0.0,0.0,0.0,0.0,0.0,0.0,0.0,0.0,0.0,0.0,0.0,0.0,0.0,2.0179,2.0577,2.0723,2.0683,2.0401,1.9773,1.9348,0.0,0.0,0.0,0.0,0.0,0.0,0.0,0.0,0.0,0.0,0.0,0.0,0.0,0.0,0.0,0.0,0.0,0.0,0.0,0.0,0.0,0.0,0.0,0.0,0.0,0.0,0.0,0.0,0.0,0.0,0.0,0.0,0.0,0.0,0.0,0.0,0.0,0.0,0.0,0.0,0.0,0.0,0.0,0.0,0.0,0.0,0.0,0.0,0.0,0.0,0.0,0.0,0.0,0.0,0.0,0.0,0.0,0.0,0.0,0.0,0.0,0.0,0.0,0.0,0.0,0.0,0.0,0.0,0.0,0.0,0.0,0.0,0.0,0.0,0.0,0.0,0.0,0.0,0.0,0.0,0.0,0.0,0.0,0.0,0.0,0.0,0.0,0.0,0.0,0.0,0.0,0.0,0.0,0.0,0.0,0.0,0.0,0.0,0.0,0.0,0.0,0.0,0.0,0.0,0.0,0.0,0.0,0.0,2.0603,2.1247,2.154,2.1701,2.1672,2.0808,2.003,0.0,0.0,0.0,0.0,0.0,0.0,0.0,0.0,0.0,0.0,0.0,0.0,0.0,0.0,0.0,0.0,0.0,0.0,0.0,0.0,0.0,0.0,0.0,0.0,0.0,0.0,0.0,0.0,0.0,0.0,0.0,0.0,0.0,0.0,0.0,0.0,0.0,0.0,0.0,0.0,0.0,0.0,0.0,0.0,0.0,0.0,0.0,0.0,0.0,0.0,0.0,0.0,0.0,0.0,0.0,0.0,0.0,0.0,0.0,0.0,0.0,0.0,0.0,0.0,0.0,0.0,0.0,0.0,0.0,0.0,0.0,0.0,0.0,0.0,0.0,0.0,0.0,0.0,0.0,0.0,0.0,0.0,0.0,0.0,0.0,0.0,0.0,0.0,0.0,0.0,0.0,0.0,0.0,0.0,0.0,0.0,0.0,0.0,0.0,0.0,0.0,0.0,0.0,0.0,0.0,0.0,0.0,0.0,2.094,2.1569,2.1657,2.1701,2.1686,2.1247,2.0796,0.0,0.0,0.0,0.0,0.0,0.0,0.0,0.0,0.0,0.0,0.0,0.0,0.0,0.0,0.0,0.0,0.0,0.0,0.0,0.0,0.0,0.0,0.0,0.0,0.0,0.0,0.0,0.0,0.0,0.0,0.0,0.0,0.0,0.0,0.0,0.0,0.0,0.0,0.0,0.0,0.0,0.0,0.0,0.0,0.0,0.0,0.0,0.0,1.8203,0.0,0.0,0.0,0.0,0.0,0.0,0.0,0.0,0.0,0.0,0.0,0.0,0.0,0.0,0.0,0.0,0.0,0.0,0.0,0.0,0.0,0.0,0.0,0.0,0.0,0.0,0.0,0.0,0.0,0.0,0.0,0.0,0.0,0.0,0.0,0.0,0.0,0.0,0.0,0.0,0.0,0.0,0.0,0.0,0.0,0.0,0.0,0.0,0.0,0.0,0.0,0.0,0.0,0.0,0.0,0.0,0.0,0.0,0.0,2.1115,2.1891,2.192,2.192,2.192,2.1759,2.1364,0.0,0.0,0.0,0.0,0.0,0.0,0.0,0.0,0.0,0.0,0.0,0.0,0.0,0.0,0.0,0.0,0.0,0.0,0.0,0.0,0.0,0.0,0.0,0.0,0.0,0.0,0.0,0.0,0.0,0.0,0.0,0.0,0.0,0.0,0.0,0.0,0.0,0.0,0.0,0.0,0.0,0.0,0.0,0.0,0.0,0.0,0.0,0.0,0.0,0.0,0.0,0.0,0.0,0.0,0.0,0.0,0.0,0.0,0.0,0.0,0.0,0.0,0.0,0.0,0.0,0.0,0.0,0.0,0.0,0.0,0.0,0.0,0.0,0.0,0.0,0.0,0.0,0.0,0.0,0.0,0.0,0.0,0.0,0.0,0.0,0.0,0.0,0.0,0.0,0.0,0.0,0.0,0.0,0.0,0.0,0.0,0.0,0.0,0.0,0.0,0.0,0.0,0.0,0.0,0.0,0.0,0.0,2.0603,2.1233,2.2067,2.2111,2.2111,2.2111,2.2111,2.1701,2.0837,0.0,0.0,0.0,0.0,0.0,0.0,0.0,0.0,0.0,0.0,0.0,0.0,0.0,0.0,0.0,0.0,0.0,0.0,0.0,0.0,0.0,0.0,0.0,0.0,0.0,0.0,0.0,0.0,0.0,0.0,0.0,0.0,0.0,0.0,0.0,0.0,0.0,0.0,1.9272,1.9272,0.0,0.0,0.0,0.0,0.0,0.0,0.0,0.0,1.9596,0.0,0.0,0.0,0.0,0.0,0.0,0.0,0.0,0.0,0.0,0.0,0.0,0.0,0.0,0.0,0.0,0.0,0.0,0.0,0.0,0.0,0.0,0.0,0.0,0.0,0.0,0.0,0.0,0.0,0.0,0.0,0.0,0.0,0.0,0.0,0.0,0.0,0.0,0.0,0.0,0.0,0.0,0.0,0.0,0.0,0.0,0.0,0.0,0.0,0.0,0.0,0.0,0.0,0.0,0.0,0.0,2.0183,2.0823,2.1335,2.1759,2.1774,2.1774,2.1774,2.1774,2.1569,2.1145,0.0,0.0,0.0,0.0,0.0,0.0,0.0,0.0,0.0,0.0,0.0,0.0,0.0,0.0,0.0,0.0,0.0,0.0,0.0,0.0,0.0,0.0,0.0,0.0,0.0,0.0,0.0,0.0,0.0,0.0,0.0,0.0,0.0,0.0,0.0,0.0,0.0,0.0,0.0,1.9272,1.9376,0.0,0.0,0.0,0.0,0.0,0.0,0.0,0.0,2.0004,0.0,0.0,0.0,0.0,0.0,0.0,0.0,0.0,0.0,0.0,0.0,0.0,0.0,0.0,0.0,0.0,0.0,0.0,0.0,0.0,0.0,0.0,0.0,0.0,0.0,0.0,0.0,0.0,0.0,0.0,0.0,0.0,0.0,0.0,0.0,0.0,0.0,0.0,0.0,0.0,0.0,0.0,0.0,0.0,0.0,0.0,0.0,0.0,0.0,0.0,0.0,0.0,0.0,0.0,0.0,2.0704,2.1317,2.1825,2.2139,2.2154,2.2154,2.2154,2.2154,2.2004,0.0,0.0,0.0,0.0,0.0,0.0,0.0,0.0,0.0,0.0,0.0,0.0,0.0,0.0,0.0,0.0,0.0,0.0,0.0,0.0,0.0,0.0,0.0,0.0,0.0,0.0,0.0,0.0,0.0,0.0,0.0,0.0,0.0,0.0,0.0,0.0,0.0,0.0,0.0,0.0,1.9739,1.9776,1.9879,0.0,0.0,0.0,0.0,0.0,0.0,2.0308,2.0359,0.0,0.0,0.0,0.0,0.0,0.0,0.0,0.0,0.0,0.0,0.0,0.0,0.0,0.0,0.0,0.0,0.0,0.0,0.0,0.0,0.0,0.0,0.0,0.0,0.0,0.0,0.0,0.0,0.0,0.0,0.0,0.0,0.0,0.0,0.0,0.0,0.0,0.0,0.0,0.0,0.0,0.0,0.0,0.0,0.0,0.0,0.0,0.0,0.0,0.0,0.0,0.0,0.0,0.0,0.0,2.1215,2.1795,2.2238,2.2513,2.2513,2.2513,2.2513,2.2513,2.2391,0.0,0.0,0.0,0.0,0.0,0.0,0.0,0.0,0.0,0.0,0.0,0.0,0.0,0.0,0.0,0.0,0.0,0.0,0.0,0.0,0.0,0.0,0.0,0.0,0.0,0.0,0.0,0.0,0.0,0.0,0.0,0.0,0.0,0.0,0.0,0.0,0.0,0.0,0.0,0.0,0.0,2.0138,2.0225,2.0292,0.0,0.0,0.0,0.0,2.0719,2.0719,0.0,0.0,0.0,0.0,0.0,0.0,0.0,0.0,0.0,0.0,0.0,0.0,0.0,0.0,0.0,0.0,0.0,0.0,0.0,0.0,0.0,0.0,0.0,0.0,0.0,0.0,0.0,0.0,0.0,0.0,0.0,0.0,0.0,0.0,0.0,0.0,0.0,0.0,0.0,0.0,0.0,0.0,0.0,0.0,0.0,0.0,0.0,0.0,0.0,0.0,0.0,0.0,0.0,0.0,0.0,0.0,2.1566,2.1918,2.2131,2.2162,2.2177,2.2177,2.2162,2.2177,2.2162,0.0,0.0,0.0,0.0,0.0,0.0,0.0,0.0,0.0,0.0,0.0,0.0,0.0,0.0,0.0,0.0,0.0,0.0,0.0,0.0,0.0,0.0,0.0,0.0,0.0,0.0,0.0,0.0,0.0,0.0,0.0,0.0,0.0,0.0,0.0,0.0,0.0,0.0,0.0,0.0,0.0,2.0292,2.0771,2.0822,2.096,0.0,0.0,2.1522,2.1573,2.1573,0.0,0.0,0.0,0.0,0.0,0.0,0.0,0.0,0.0,0.0,0.0,0.0,0.0,0.0,0.0,0.0,0.0,0.0,0.0,0.0,0.0,0.0,0.0,0.0,0.0,0.0,0.0,0.0,0.0,0.0,0.0,0.0,0.0,0.0,0.0,0.0,0.0,0.0,0.0,0.0,0.0,0.0,0.0,0.0,0.0,0.0,0.0,0.0,0.0,0.0,0.0,0.0,0.0,0.0,0.0,2.2095,2.2111,2.2439,2.2626,2.2626,2.2626,2.2611,2.2611,2.2611,2.2626,0.0,0.0,0.0,0.0,0.0,0.0,0.0,0.0,0.0,0.0,0.0,0.0,0.0,0.0,0.0,0.0,0.0,0.0,0.0,0.0,0.0,0.0,0.0,0.0,0.0,0.0,0.0,0.0,0.0,0.0,0.0,0.0,0.0,0.0,0.0,0.0,0.0,0.0,0.0,0.0,0.0,0.0,2.1522,2.1573,0.0,0.0,0.0,2.2552,2.2823,0.0,0.0,0.0,0.0,0.0,0.0,0.0,0.0,0.0,0.0,0.0,0.0,0.0,0.0,0.0,0.0,0.0,0.0,0.0,0.0,0.0,0.0,0.0,0.0,0.0,0.0,0.0,0.0,0.0,0.0,0.0,0.0,0.0,0.0,0.0,0.0,0.0,0.0,0.0,0.0,0.0,0.0,0.0,0.0,0.0,0.0,0.0,0.0,0.0,0.0,0.0,0.0,0.0,0.0,0.0,0.0,0.0,2.2625,2.2879,2.3022,2.3022,2.3022,2.3022,2.3022,2.3022,0.0,0.0,0.0,0.0,0.0,0.0,0.0,0.0,0.0,0.0,0.0,0.0,0.0,0.0,0.0,0.0,0.0,0.0,0.0,0.0,0.0,0.0,0.0,0.0,0.0,0.0,0.0,2.0189,0.0,0.0,0.0,0.0,0.0,0.0,0.0,0.0,0.0,0.0,0.0,0.0,0.0,0.0,2.1857,2.2367,2.2554,2.286,0.0,0.0,2.3687,2.4088,2.3791,2.3546,0.0,0.0,0.0,0.0,0.0,0.0,0.0,0.0,0.0,0.0,0.0,0.0,0.0,0.0,0.0,0.0,0.0,0.0,0.0,0.0,0.0,0.0,0.0,0.0,0.0,0.0,0.0,0.0,0.0,0.0,0.0,0.0,0.0,0.0,0.0,0.0,0.0,0.0,0.0,0.0,0.0,0.0,0.0,0.0,0.0,0.0,0.0,0.0,0.0,0.0,0.0,0.0,0.0,0.0,0.0,2.2974,2.3006,2.3022,2.3022,2.3022,2.3022,2.3022,2.3022,2.3022,0.0,0.0,0.0,0.0,0.0,0.0,0.0,0.0,0.0,0.0,0.0,0.0,0.0,0.0,0.0,0.0,0.0,0.0,0.0,0.0,0.0,0.0,0.0,0.0,0.0,0.0,0.0,0.0,0.0,0.0,0.0,0.0,0.0,0.0,0.0,0.0,0.0,0.0,0.0,0.0,0.0,2.2791,2.3323,2.3791,2.4245,0.0,0.0,2.4961,2.524,2.4963,2.4688,2.4688,0.0,0.0,0.0,0.0,0.0,0.0,0.0,0.0,0.0,0.0,0.0,0.0,0.0,0.0,0.0,0.0,0.0,0.0,0.0,0.0,0.0,0.0,0.0,0.0,0.0,0.0,0.0,0.0,0.0,0.0,0.0,0.0,0.0,0.0,0.0,0.0,0.0,0.0,0.0,0.0,0.0,0.0,0.0,0.0,0.0,0.0,0.0,0.0,0.0,0.0,0.0,0.0,0.0,2.3022,2.3022,2.3228,2.3282,2.3298,2.3546,2.3546,2.334,2.3282,2.3244,0.0,0.0,0.0,0.0,0.0,0.0,0.0,0.0,0.0,0.0,0.0,0.0,0.0,0.0,0.0,0.0,0.0,0.0,0.0,0.0,0.0,0.0,0.0,0.0,0.0,0.0,0.0,0.0,2.0873,2.0976,2.113,0.0,0.0,0.0,0.0,0.0,0.0,0.0,0.0,0.0,0.0,2.3752,2.4434,2.4933,0.0,0.0,2.6098,2.6244,2.6592,2.6102,2.567,2.567,2.5077,0.0,0.0,0.0,0.0,0.0,0.0,0.0,0.0,0.0,0.0,0.0,0.0,0.0,0.0,0.0,0.0,0.0,0.0,0.0,0.0,0.0,0.0,0.0,0.0,0.0,0.0,0.0,0.0,0.0,0.0,0.0,0.0,0.0,0.0,0.0,0.0,0.0,0.0,0.0,0.0,0.0,0.0,0.0,0.0,0.0,0.0,0.0,0.0,0.0,0.0,0.0,0.0,2.3022,2.3022,2.3298,2.3546,2.3646,2.4055,2.4178,2.3937,2.3883,2.3648,0.0,0.0,0.0,0.0,0.0,0.0,0.0,0.0,0.0,0.0,0.0,0.0,0.0,0.0,0.0,0.0,0.0,0.0,0.0,0.0,0.0,0.0,0.0,0.0,0.0,0.0,0.0,0.0,2.113,2.1216,2.1522,0.0,0.0,0.0,0.0,0.0,0.0,0.0,0.0,0.0,0.0,2.4805,2.5549,2.6027,2.6507,2.7055,2.7112,2.726,2.7599,2.6984,2.6429,2.6429,0.0,0.0,0.0,0.0,0.0,0.0,0.0,0.0,0.0,0.0,0.0,0.0,0.0,0.0,0.0,0.0,0.0,0.0,0.0,0.0,0.0,0.0,0.0,0.0,0.0,0.0,0.0,2.1203,0.0,0.0,2.1203,0.0,0.0,0.0,0.0,0.0,0.0,0.0,0.0,0.0,0.0,0.0,0.0,0.0,0.0,0.0,0.0,0.0,0.0,0.0,0.0,0.0,0.0,2.3022,2.3022,2.3371,2.3662,2.4007,2.4405,2.4717,2.4919,2.4647,2.4506,2.4416,0.0,0.0,0.0,0.0,0.0,0.0,0.0,0.0,0.0,0.0,0.0,0.0,0.0,0.0,0.0,0.0,0.0,0.0,0.0,0.0,0.0,0.0,0.0,0.0,0.0,0.0,2.1674,2.1674,2.1776,0.0,0.0,0.0,0.0,0.0,0.0,0.0,0.0,0.0,0.0,2.5479,2.5993,2.6669,2.7084,2.7473,2.7814,2.7887,2.7994,2.8228,2.7578,2.698,0.0,0.0,0.0,0.0,0.0,0.0,0.0,0.0,0.0,0.0,0.0,0.0,0.0,0.0,0.0,0.0,0.0,0.0,0.0,0.0,0.0,0.0,0.0,0.0,0.0,0.0,0.0,2.1832,2.154,0.0,0.0,0.0,0.0,0.0,0.0,0.0,0.0,0.0,0.0,0.0,2.2456,2.274,0.0,0.0,0.0,0.0,0.0,0.0,0.0,0.0,0.0,0.0,0.0,0.0,2.3529,2.3983,2.4342,2.4711,2.5058,2.5419,2.5545,2.5374,2.4994,2.4696,2.4457,0.0,0.0,0.0,0.0,0.0,0.0,0.0,0.0,0.0,0.0,0.0,0.0,0.0,0.0,0.0,0.0,0.0,0.0,0.0,0.0,0.0,0.0,0.0,0.0,0.0,2.203,0.0,0.0,0.0,0.0,0.0,0.0,0.0,0.0,0.0,0.0,0.0,2.4945,2.5648,2.6359,2.6907,2.7323,2.7762,2.8033,0.0,0.0,0.0,0.0,0.0,0.0,0.0,0.0,0.0,0.0,0.0,0.0,0.0,0.0,2.6732,2.6512,2.6732,2.6933,2.7053,0.0,0.0,0.0,0.0,0.0,0.0,0.0,0.0,0.0,0.0,0.0,0.0,0.0,0.0,2.2334,0.0,2.2038,0.0,0.0,0.0,0.0,0.0,0.0,0.0,0.0,2.2798,2.2991,2.3158,2.3314,2.3371,0.0,2.326,2.3197,0.0,0.0,0.0,0.0,0.0,0.0,0.0,0.0,2.3933,2.4506,2.4928,2.5411,2.5913,2.6369,2.6513,2.6457,2.5906,2.5462,2.5074,2.4992,2.4923,0.0,0.0,0.0,0.0,0.0,0.0,0.0,0.0,0.0,0.0,0.0,0.0,0.0,0.0,0.0,0.0,0.0,0.0,0.0,0.0,0.0,0.0,0.0,2.3026,0.0,0.0,0.0,0.0,0.0,0.0,0.0,0.0,0.0,2.4813,2.5201,2.5724,2.628,2.695,2.7558,2.7871,0.0,0.0,0.0,0.0,0.0,0.0,0.0,2.8488,2.8488,2.8177,2.7895,2.7895,2.8117,2.8269,2.8269,0.0,0.0,2.7783,2.7794,2.7945,2.7975,2.7975,2.8026,2.8127,2.8127,2.8127,0.0,0.0,0.0,0.0,0.0,0.0,0.0,0.0,2.3004,2.2946,0.0,2.2686,0.0,0.0,0.0,0.0,0.0,2.2503,0.0,0.0,2.3389,2.3737,2.4082,2.4098,2.4098,2.4082,2.3705,2.3504,2.3488,2.3213,0.0,0.0,0.0,0.0,0.0,0.0,2.4175,2.4597,2.5251,2.5914,2.6567,2.721,2.7684,2.7966,2.7333,2.6747,2.6376,2.6242,2.6026,2.5734,2.5953,0.0,0.0,0.0,0.0,0.0,0.0,0.0,0.0,0.0,0.0,0.0,0.0,0.0,0.0,0.0,0.0,0.0,0.0,0.0,0.0,2.4739,0.0,0.0,0.0,0.0,0.0,0.0,0.0,0.0,0.0,0.0,2.5418,2.5775,2.6311,2.6922,0.0,0.0,0.0,0.0,2.8727,2.8727,2.892,2.9132,2.9132,2.877,2.856,2.856,0.0,0.0,2.7986,2.8533,2.8952,2.8952,2.9456,2.9549,2.8249,2.8046,2.8107,2.8288,2.8309,2.8348,2.8569,2.8702,2.8681,2.3325,0.0,0.0,0.0,0.0,2.3355,2.3435,2.3346,2.3654,2.3642,2.3338,2.3307,0.0,0.0,0.0,0.0,0.0,0.0,2.3758,2.3779,2.3896,2.4018,2.4114,2.4114,2.4114,2.4098,2.4018,2.3912,2.3954,2.3793,2.3675,2.3488,0.0,0.0,0.0,0.0,2.5417,2.6248,2.6678,2.7276,2.7961,2.8128,2.8217,2.8301,2.8082,2.7742,2.7234,2.7197,2.7013,2.6627,2.6718,0.0,0.0,0.0,0.0,0.0,0.0,0.0,0.0,0.0,0.0,0.0,0.0,0.0,0.0,0.0,0.0,0.0,0.0,0.0,2.5466,2.5386,2.5308,0.0,0.0,0.0,0.0,0.0,0.0,0.0,0.0,0.0,2.6509,2.6929,2.7292,0.0,0.0,2.843,2.8548,2.8834,2.8973,2.8973,2.9237,0.0,2.9448,2.9504,2.9579,2.9599,2.9476,2.9414,2.9394,2.9549,2.9683,2.9683,2.9859,2.9859,2.9528,2.9394,2.9394,2.9477,2.9497,2.9497,2.9601,2.9601,2.9601,2.4123,2.3929,2.3473,2.3355,2.3479,2.3728,2.3805,2.379,2.4177,2.4178,2.3978,2.4022,2.3972,2.4007,2.3866,0.0,0.0,0.0,2.4193,2.4321,2.4321,2.4384,2.4528,2.4484,2.4468,2.4468,2.4503,2.4499,2.4499,2.4438,2.4335,2.4293,0.0,0.0,2.5304,2.5629,2.6296,2.7299,2.7669,2.8201,2.882,2.8957,2.9024,2.9018,2.8851,2.8688,2.8502,2.8273,2.8024,2.7796,2.7625,2.7368,0.0,0.0,0.0,0.0,0.0,0.0,0.0,0.0,0.0,0.0,0.0,2.6063,2.6063,0.0,0.0,0.0,2.6604,2.6661,2.6404,2.6416,0.0,0.0,0.0,0.0,0.0,0.0,0.0,2.6772,2.7196,2.7471,2.7574,2.7949,2.8147,2.7885,2.845,2.8834,2.8887,0.0,2.929,2.929,2.9554,2.9764,2.9764,2.9889,2.9994,2.9994,2.9994,3.0077,3.0243,3.0263,3.0263,3.0263,3.0284,3.0222,3.0036,2.9994,2.9994,2.9994,2.9994,2.9994,2.9994,2.9994,2.9994,2.5248,2.5187,2.4215,2.3943,2.4192,2.4161,2.4208,2.4208,2.4502,2.461,2.4641,2.4632,2.4627,2.4611,2.4337,0.0,2.4193,2.4193,2.4384,2.4627,2.4627,2.4785,2.5103,2.5103,2.5103,2.5165,2.5149,2.5168,2.5152,2.5107,2.5219,2.5511,2.5215,2.5332,2.6009,2.6324,2.7022,2.7939,2.8348,2.8864,2.953,2.9844,3.0039,3.0039,2.9717,2.9604,2.9852,2.9358,2.9019,2.9035,2.8643,2.8247,2.8014,0.0,0.0,0.0,0.0,0.0,0.0,0.0,0.0,0.0,0.0,0.0,0.0,0.0,0.0,0.0,2.7638,0.0,2.7347,2.7571,0.0,0.0,0.0,2.7063,2.7063,2.7102,2.7224,2.7459,0.0,0.0,2.8476,2.889,2.8918,2.8309,2.8765,2.9132,2.9132,2.9396,2.9606,2.9659,2.9816,2.9994,2.9994,2.9994,3.0015,3.0077,3.0056,3.0243,3.0636,3.0739,3.0739,3.0739,3.0739,3.0615,3.018,3.018,3.0118,3.016,3.0056,3.0015,3.0077,3.0098,3.0118,2.5635,2.5851,2.5383,2.5086,2.4942,2.4872,2.4874,2.4859,2.4921,2.498,2.498,2.4962,2.4992,2.4976,2.4897,2.4849,2.4849,2.4865,2.4897,2.4976,2.4976,2.5024,2.5103,2.5365,2.5488,2.5488,2.5757,2.583,2.5874,2.5768,2.5779,2.5898,2.6033,2.6351,2.676,2.7257,2.7957,2.871,2.9242,2.9867,3.0548,3.1073,3.1325,3.1325,3.1263,3.1065,3.0784,3.0378,2.9993,2.9599,2.916,2.8867,2.8814,2.8761,0.0,0.0,0.0,0.0,0.0,0.0,0.0,0.0,0.0,2.7206,2.7206,0.0,2.7691,0.0,2.8194,2.8475,2.8377,2.8324,0.0,0.0,2.7872,2.7692,2.7672,2.7973,2.8173,2.8224,2.8605,2.8866,2.8918,2.9282,2.9408,2.9254,2.9367,2.9501,2.9501,2.9711,2.9889,2.9889,2.9942,2.9994,2.9994,2.9994,3.0139,3.047,3.0512,3.0677,3.1133,3.1215,3.1215,3.1215,3.1215,3.1153,3.105,3.1104,3.1029,3.1063,3.0491,3.0098,3.045,3.0532,3.0615,2.6671,2.6773,2.6509,2.6236,2.6059,2.5753,2.5612,2.5581,2.5375,2.5342,2.5326,2.5183,2.5103,2.5103,2.5103,2.5103,2.5103,2.5103,2.5103,2.5103,2.5103,2.5103,2.5103,2.5426,2.561,2.561,2.6083,2.6327,2.6311,2.6429,2.6465,2.6525,2.679,2.7088,2.7463,2.792,2.8578,2.939,3.0157,3.0743,3.1092,3.1556,3.1787,3.1787,3.1787,3.1724,3.1653,3.1025,3.0634,3.0479,2.9741,2.929,2.9343,2.9185,2.9132,0.0,0.0,0.0,0.0,0.0,0.0,0.0,0.0,0.0,0.0,0.0,2.8441,2.8441,2.8727,2.8887,2.8887,2.8825,2.877,2.877,2.8568,2.8408,2.8408,2.8629,2.8822,2.8978,2.9201,2.9396,2.9501,2.9659,2.9784,2.9764,2.9764,2.9784,2.9784,2.9942,2.9994,2.9994,2.9994,2.9994,2.9994,3.018,3.0387,3.0636,3.0864,3.1153,3.1588,3.1671,3.1671,3.1671,3.1671,3.1588,3.1422,3.1381,3.1381,3.1319,3.0967,3.0739,3.0946,3.0988,3.1091,2.7804,2.7757,2.7423,2.7264,2.7232,2.6565,2.6327,2.6248,2.585,2.5707,2.5691,2.5373,2.523,2.5246,2.523,2.5246,2.5246,2.5199,2.5167,2.5167,2.5135,2.5103,2.5103,2.5472,2.5672,2.5733,2.6344,2.6692,2.6692,2.6952,2.7133,2.7133,2.7358,2.7702,2.814,2.8421,2.9076,3.0039,3.0918,3.1383,3.1383,3.173,3.1903,3.1903,3.1903,3.2076,3.2285,3.1487,3.1127,3.136,3.0319,2.972,2.9659,2.9396,2.9237,0.0,2.9237,0.0,0.0,0.0,0.0,0.0,0.0,0.0,0.0,2.9132,2.9132,2.9132,2.9132,2.9185,2.9132,2.9185,2.9185,2.9237,2.9237,2.9237,2.9237,2.9237,2.9343,2.9606,2.9659,2.9784,2.9942,2.9994,2.9994,2.9994,2.9994,2.9994,2.9994,2.9994,2.9994,2.9994,2.9994,2.9994,3.0036,3.0387,3.0698,3.0801,3.1174,3.1609,3.1988,3.207,3.207,3.207,3.207,3.1946,3.1629,3.1567,3.1588,3.1609,3.1567,3.1526,3.1464,3.1464,3.1485,2.8122,2.8106,2.7772,2.7629,2.7598,2.7185,2.6835,2.6614,2.6264,2.6104,2.6104,2.6041,2.5945,2.6009,2.6009,2.6009,2.5929,2.5659,2.5532,2.5532,2.5246,2.5103,2.5103,2.5717,2.6022,2.6083,2.6692,2.7012,2.7012,2.7073,2.7177,2.7401,2.7461,2.7942,2.8797,0.0,0.0,0.0,3.1344,3.173,3.173,3.2268,3.2555,3.2555,3.2555,0.0,3.2592,3.2097,3.1678,3.1381,3.0789,0.0,0.0,0.0,0.0,0.0,0.0,0.0,0.0,0.0,0.0,0.0,2.9837,2.9606,2.9132,2.9132,2.9132,2.9132,2.9343,2.9501,2.9501,2.9732,2.9837,2.9837,2.9816,2.9837,2.9837,2.9837,2.9837,2.9942,2.9942,2.9942,2.9994,2.9994,2.9994,2.9994,2.9994,2.9994,2.9994,2.9994,2.9994,2.9994,2.9994,2.9994,2.9994,3.0408,3.0864,3.1195,3.1609,3.2064,3.2421,3.2525,3.2525,3.2525,3.2602,3.2525,3.2457,3.2457,3.2416,3.2457,3.2457,3.2354,3.1946,3.1864,3.2023,2.8487,2.8456,2.8122,2.7979,0.0,2.7614,2.7359,2.7153,2.6628,2.6375,2.62,2.62,2.62,2.62,2.62,2.62,2.62,2.5961,2.5882,2.5882,2.5532,2.5373,2.5357,2.5843,2.6067,2.6128,2.677,2.7073,2.7073,2.7073,2.7237,2.7521,2.7642,2.8199,2.8993,2.9814,3.0522,3.1191,3.1618,3.1888,3.2089,3.2486,3.2669,3.2669,3.2669,0.0,0.0,0.0,0.0,0.0,0.0,0.0,0.0,3.0677,0.0,3.0677,3.0677,3.0677,3.0657,3.047,3.0346,3.0325,3.0118,2.9889,2.9574,2.9574,2.9554,2.9574,2.9711,2.9784,2.9816,2.9942,2.9994,2.9994,2.9994,2.9994,2.9994,2.9994,2.9994,2.9994,2.9994,2.9994,2.9994,2.9994,2.9994,2.9994,2.9994,2.9994,2.9994,2.9994,2.9994,2.9994,2.9994,3.0077,3.0325,3.0719,3.1174,3.1629,3.2085,3.238,3.2628,3.2669,3.2669,3.2669,3.2669,3.2669,3.2669,3.2669,3.2669,3.2669,3.2669,3.2607,3.2359,3.2318,3.238,2.8869,2.8821,2.8471,2.8313,2.8297,2.7963,2.7788,2.7609,0.0,0.0,0.0,2.6391,2.6391,2.6391,2.6407,2.6391,2.6391,2.6327,2.6296,2.628,2.5882,2.5723,2.5833,2.6104,2.6293,2.6288,2.6915,2.7202,2.709,2.7073,2.7237,2.7581,2.79,2.8415,2.9282,3.0536,3.1403,3.1838,3.1957,3.219,3.2532,3.2711,3.2851,3.2851,3.2768,3.2669,3.2669,3.2297,3.207,3.1967,3.1692,3.1464,3.1381,3.1381,3.1381,3.1381,3.1381,3.1381,3.1381,3.1029,3.0801,3.0801,3.0387,3.0077,3.0015,2.9994,2.9994,2.9994,2.9994,2.9994,2.9994,2.9994,2.9994,2.9994,2.9994,2.9994,2.9994,2.9994,2.9994,2.9994,2.9994,2.9994,2.9994,2.9994,2.9994,2.9994,2.9994,3.0036,3.0077,3.0056,2.9994,2.9994,3.0098,3.0263,3.0636,3.1153,3.1609,3.1905,3.2339,3.2649,3.2669,3.2669,3.2669,3.2669,3.2669,3.2669,3.2669,3.2669,3.2669,3.2669,3.2669,3.2669,3.2669,3.2669,3.2649,2.9218,2.9186,2.8837,2.8694,2.8662,2.8313,2.7995,2.7709,2.7296,2.7105,2.7057,2.7057,2.7057,2.7057,2.7057,2.7057,2.7026,2.674,2.6597,2.6581,2.6296,2.6264,2.6535,2.6867,2.7048,2.7013,2.735,2.7364,2.7107,2.7073,2.7375,2.784,2.796,2.8799,3.0313,3.1365,3.2236,3.3008,3.2975,3.2954,3.2995,3.3161,3.3285,3.3265,3.2934,3.2669,3.2669,3.2607,3.238,3.2008,3.1926,3.1774,3.1402,3.1402,3.1381,3.1381,3.1381,3.1381,3.1381,3.1319,3.1278,3.1257,3.0843,3.0429,3.0036,2.9994,2.9994,2.9994,2.9994,2.9994,2.9994,2.9994,2.9994,2.9994,2.9994,2.9994,2.9994,2.9994,2.9994,2.9994,2.9994,2.9994,2.9994,3.0015,3.0036,3.0015,3.0118,3.016,3.045,3.0243,3.0015,3.0056,3.0346,3.0574,3.0843,3.1422,3.1843,3.1967,3.238,3.2669,3.2669,3.2669,3.2669,3.2669,3.2669,3.2669,3.2669,3.2669,3.2669,3.2669,3.2669,3.2669,3.2669,3.2669,3.2669,2.9298,2.9282,2.9123,2.9059,2.9028,2.8678,2.8217,2.7741,2.7566,2.7375,2.72,2.72,2.72,2.72,2.72,2.72,2.72,2.7042,2.6962,2.693,2.6597,2.6567,2.6745,2.7033,2.717,2.7194,2.7679,2.7741,2.7381,2.7364,2.7566,2.8055,2.8955,2.993,3.0929,3.1908,3.2647,3.3021,3.3276,3.3477,3.376,3.3811,3.3637,3.3389,3.3182,3.2975,3.269,3.2669,3.2566,3.2359,3.2359,3.2277,3.2126,3.2106,3.2106,3.2106,3.2106,3.2106,3.2106,3.1878,3.1629,3.1402,3.1174,3.0988,3.076,3.0284,2.9994,2.9994,2.9994,2.9994,2.9994,2.9994,2.9994,2.9994,2.9994,2.9994,2.9994,2.9994,2.9994,2.9994,2.9994,2.9994,2.9994,3.0201,3.0367,3.0387,3.0553,3.0822,3.1029,3.0884,3.0739,3.076,3.098,3.1153,3.1381,3.1678,3.207,3.2297,3.2525,3.2649,3.2669,3.2669,3.2669,3.2669,3.2669,3.2669,3.2669,3.2669,3.2669,3.2669,3.2669,3.2669,3.2669,3.2669,3.2669,2.9298,2.9298,2.9298,2.9298,2.9266,2.8916,2.8456,2.7963,2.7804,2.7582,2.7328,2.7248,2.72,2.72,2.72,2.72,2.72,2.72,2.72,2.7169,2.6914,2.6853,2.6952,2.723,2.7323,2.7513,2.7942,2.8054,2.7775,2.7741,2.7895,2.84,2.9744,3.0785,3.1366,3.2309,3.2894,3.3096,3.3517,3.3943,3.433,3.4224,3.3992,3.372,3.3596,3.3327,3.2913,3.2871,3.283,3.269,3.2669,3.2669,3.2669,3.2669,3.2669,3.2669,3.2669,3.2669,3.2649,3.2395,3.2043,3.1712,3.1588,3.1526,3.1464,3.0781,3.0305,3.0305,3.0346,3.0346,3.0346,3.0346,3.0305,3.0305,3.0305,3.0346,3.0325,3.0222,3.0201,3.0263,3.0222,3.0201,3.0346,3.0615,3.0822,3.0905,3.1153,3.1381,3.1485,3.1526,3.1547,3.1629,3.1588,3.1629,3.1946,3.2091,3.2277,3.2628,3.2669,3.2669,3.2669,3.2669,3.2669,3.2669,3.2669,3.2669,3.2669,3.2669,3.2669,3.2669,3.2669,3.2669,3.2669,3.2669,3.2669,2.9298,2.9298,2.9298,2.9298,2.9266,2.8916,2.8726,2.8583,2.8011,2.7657,2.7645,2.7343,2.72,2.72,2.72,2.72,2.72,2.72,2.72,2.72,2.7169,2.727,2.7519,2.7603,2.7834,2.8025,2.8185,2.8192,2.8089,2.8117,2.8477,2.9101,2.9803,3.0705,3.1683,3.2463,3.3113,3.378,3.4135,3.4322,3.4385,3.4309,3.443,3.4691,3.4277,3.3782,3.3348,3.3327,3.3141,3.2711,3.2669,3.2669,3.2669,3.2669,3.2669,3.2669,3.2669,3.2669,3.2669,3.2628,3.2566,3.2582,3.2188,3.1926,3.1905,3.1547,3.1257,3.1236,3.1236,3.1174,3.1257,3.1215,3.1153,3.1133,3.1112,3.1257,3.1112,3.0938,3.0781,3.1215,3.0781,3.0781,3.1071,3.1236,3.1319,3.1381,3.1464,3.165,3.1919,3.1926,3.2106,3.2354,3.2194,3.1967,3.207,3.2359,3.2545,3.2669,3.2669,3.2669,3.2669,3.2669,3.2669,3.2669,3.2669,3.2669,3.2669,3.2669,3.2669,3.2669,3.2669,3.2669,3.2669,3.2669,3.2669,2.9298,2.9298,2.9298,2.9298,2.9266,2.9139,2.8964,2.871,2.8233,2.7915,2.7625,2.7359,2.72,2.72,2.72,2.72,2.72,2.72,2.72,2.72,2.72,2.7267,2.74,2.765,2.7751,2.7966,2.8359,2.8435,2.829,2.8369,2.8748,2.9337,3.0095,3.0862,3.1612,3.222,3.2821,3.3292,3.3418,3.367,3.409,3.4511,3.4595,3.4512,3.4509,3.4318,3.3883,3.3534,3.3285,3.312,3.2871,3.2669,3.2669,3.2669,3.2669,3.2669,3.2669,3.2669,3.2669,3.2669,3.2669,3.2669,3.2561,3.2401,3.238,3.2271,3.2188,3.2126,3.1692,3.1381,3.1402,3.1381,3.1381,3.134,3.1133,3.0988,3.0967,3.0574,3.047,3.0884,3.0801,3.0864,3.1298,3.1609,3.1878,3.2085,3.2168,3.223,3.2359,3.2401,3.2463,3.2587,3.2504,3.2421,3.2401,3.2525,3.2649,3.2669,3.2669,3.2669,3.2669,3.2669,3.2669,3.2669,3.2669,3.2669,3.2669,3.2669,3.2669,3.2669,3.2669,3.2669,3.2669,3.2669,3.2669,2.9298,2.9298,2.9298,2.9298,2.9298,2.9298,2.9155,2.8885,2.8519,2.8233,2.7995,2.7645,2.7486,2.7455,2.7296,2.72,2.72,2.72,2.72,2.72,2.72,2.72,2.7267,2.7451,2.765,2.7783,2.8312,2.859,2.85,2.8712,2.9032,2.9515,3.0191,3.0829,3.1405,3.1891,3.2422,3.2867,3.2912,3.3184,3.3796,3.4423,3.4655,3.4554,3.4819,3.4734,3.4339,3.3948,3.3637,3.3389,3.3078,3.2851,3.2727,3.2669,3.2669,3.2669,3.2669,3.2669,3.2669,3.2669,3.2669,3.2669,3.2669,3.2669,3.2669,3.2669,3.2669,3.2607,3.2126,3.1774,3.1754,3.1629,3.1567,3.1526,3.1153,3.0884,3.0884,3.047,3.0408,3.0781,3.0946,3.1112,3.165,3.2043,3.2277,3.2545,3.2628,3.2669,3.2669,3.2649,3.2669,3.2669,3.2669,3.2649,3.2669,3.2669,3.2669,3.2669,3.2669,3.2669,3.2669,3.2669,3.2669,3.2669,3.2669,3.2669,3.2669,3.2669,3.2669,3.2669,3.2669,3.2669,3.2669,3.2669,3.2669,2.9298,2.9298,2.9298,2.9298,2.9298,2.9298,2.9282,2.9202,2.8885,2.871,2.863,2.8297,2.8154,2.8106,2.7518,2.7216,2.7216,2.7232,2.7216,2.72,2.72,2.72,2.72,2.72,2.7384,2.77,2.813,2.8642,2.9199,2.9248,2.9461,2.977,2.9882,3.0372,3.1184,3.1377,3.1891,3.2657,3.2848,3.3058,3.3481,3.411,3.4528,3.4798,3.5191,3.5148,3.4837,3.4754,3.436,3.3489,3.3348,3.3161,3.2731,3.2727,3.2669,3.2669,3.2669,3.2669,3.2669,3.2669,3.2669,3.2669,3.2669,3.2669,3.2669,3.2669,3.2669,3.2669,3.2587,3.2582,3.2483,3.2153,3.1967,3.1926,3.1609,3.1381,3.1394,3.0926,3.0905,3.1236,3.1381,3.1712,3.2499,3.2628,3.2607,3.2649,3.2669,3.2669,3.2669,3.2669,3.2669,3.2669,3.2669,3.2669,3.2669,3.2669,3.2669,3.2669,3.2669,3.2669,3.2669,3.2669,3.2669,3.2669,3.2669,3.2669,3.2669,3.2669,3.2669,3.2669,3.2669,3.2669,3.2669,3.2669,3.2669,2.9298,2.9298,2.9298,2.9298,2.9298,2.9298,2.9298,2.9266,2.8932,2.8844,2.871,2.8392,2.8217,2.8217,2.7963,2.7741,2.755,2.7534,2.7423,2.7232,2.72,2.72,2.72,2.72,2.7267,2.7467,2.7998,2.8659,2.9233,2.9299,2.9364,2.9495,2.9691,3.0,3.039,3.0861,3.1377,3.1891,3.2358,3.274,3.3102,3.3733,3.4173,3.4298,3.4984,3.5335,3.519,3.4921,3.4671,3.4339,3.3699,3.3306,3.3141,3.2892,3.2669,3.2669,3.2669,3.2669,3.2669,3.2669,3.2669,3.2669,3.2669,3.2669,3.2669,3.2669,3.2669,3.2669,3.2669,3.2669,3.2649,3.2504,3.2421,3.2359,3.2085,3.1774,3.1712,3.1422,3.1298,3.1712,3.2043,3.2395,3.2525,3.2669,3.2669,3.2669,3.2669,3.2669,3.2669,3.2669,3.2669,3.2669,3.2669,3.2669,3.2669,3.2669,3.2669,3.2669,3.2669,3.2669,3.2669,3.2669,3.2669,3.2669,3.2669,3.2669,3.2669,3.2669,3.2669,3.2669,3.2669,3.2669,3.2669,3.2669,3.2669,2.9298,2.9298,2.9298,2.9298,2.9298,2.9298,2.9298,2.9266,2.9043,2.8932,2.8885,2.8678,2.8567,2.8567,2.8567,2.8392,2.8074,2.7947,2.7757,2.755,2.7534,2.7471,2.7391,2.7375,2.7312,2.735,2.7932,2.8659,2.925,2.9299,2.9299,2.9299,2.9561,2.9674,2.987,3.0343,3.0797,3.1377,3.1846,3.2275,3.274,3.3418,3.3733,3.3859,3.461,3.517,3.5232,3.5005,3.4839,3.4693,3.4214,3.3699,3.3389,3.3099,3.2871,3.2711,3.2669,3.2669,3.2669,3.2669,3.2669,3.2669,3.2669,3.2669,3.2669,3.2669,3.2669,3.2669,3.2669,3.2669,3.2669,3.2669,3.2607,3.2442,3.2106,3.1836,3.1816,3.1567,3.1588,3.1884,3.2173,3.2442,3.2649,3.2669,3.2669,3.2669,3.2669,3.2669,3.2669,3.2669,3.2669,3.2669,3.2669,3.2669,3.2669,3.2669,3.2669,3.2669,3.2669,3.2669,3.2669,3.2669,3.2669,3.2669,3.2669,3.2669,3.2669,3.2669,3.2669,3.2669,3.2669,3.2669,3.2669,3.2669,3.2669,2.9298,2.9298,2.9298,2.9298,2.9298,2.9298,2.9298,2.9298,2.9266,2.9234,2.9218,2.9234,2.9171,2.9234,2.9171,2.9059,2.8726,2.8424,2.8217,2.8122,2.8138,2.7995,2.7741,2.7725,2.7582,2.7379,2.7964,2.8609,2.9236,2.9333,2.9299,2.9299,2.9299,2.9495,2.9739,2.9887,3.0343,3.1055,3.1377,3.1763,3.2358,3.2975,3.3292,3.3418,3.3985,3.4485,3.4859,3.4839,3.4821,3.4777,3.4734,3.43,3.3555,3.3289,3.3124,3.2736,3.2633,3.2669,3.2669,3.2612,3.2612,3.2612,3.2612,3.2612,3.2612,3.2669,3.2669,3.2669,3.2669,3.2669,3.2669,3.2669,3.2545,3.2126,3.1836,3.1629,3.1547,3.1443,3.1567,3.1946,3.2132,3.2215,3.2525,3.2669,3.2669,3.2669,3.2669,3.2669,3.2669,3.2669,3.2669,3.2669,3.2669,3.2669,3.2669,3.2669,3.2669,3.2669,3.2669,3.2669,3.2669,3.2669,3.2669,3.2669,3.2669,3.2669,3.2669,3.2669,3.2669,3.2669,3.2669,3.2669,3.2669,3.2669,3.2669,2.9298,2.9298,2.9298,2.9298,2.9298,2.9298,2.9298,2.9298,2.9298,2.9298,2.9298,2.9298,2.9298,2.9298,2.9298,2.9234,2.9123,2.8996,2.8694,2.8297,2.8233,2.8186,2.809,2.8058,2.8148,2.8293,2.8556,2.8843,2.9243,2.9321,2.9299,2.9299,2.9316,2.9382,2.9513,2.9691,3.0,3.026,3.0797,3.1184,3.1396,3.2019,3.2384,3.2447,3.3038,3.3544,3.3859,3.4298,3.455,3.4512,3.4493,3.4185,3.3592,3.3005,3.2685,3.2464,3.2238,3.2076,3.2096,3.2076,3.2076,3.2076,3.2076,3.2211,3.2363,3.244,3.2498,3.2612,3.2669,3.2669,3.2669,3.2669,3.2587,3.252,3.2395,3.225,3.223,3.2271,3.2375,3.2478,3.252,3.2545,3.2628,3.2669,3.2669,3.2669,3.2669,3.2669,3.2669,3.2669,3.2669,3.2669,3.2669,3.2669,3.2669,3.2669,3.2669,3.2669,3.2669,3.2669,3.2669,3.2669,3.2669,3.2669,3.2669,3.2669,3.2669,3.2669,3.2669,3.2669,3.2669,3.2669,3.2669,3.2669,3.2669,2.8976,2.8866,2.8866,2.8866,2.8866,2.8995,2.9066,2.9066,2.9226,2.9298,2.9298,2.9298,2.9298,2.9298,2.9298,2.9298,2.9298,2.9298,2.9059,2.8678,2.863,2.8567,2.8424,2.8265,2.8441,2.8769,2.8916,2.9209,2.953,2.9646,2.9727,2.9727,2.9607,2.9539,2.9504,2.9564,2.9691,2.9822,3.0278,3.0555,3.0815,3.1249,3.157,3.1744,3.2275,3.2721,3.3165,3.367,3.4047,3.432,3.4347,3.4126,3.37,3.3215,3.2854,3.2632,3.2311,3.2049,3.2009,3.1946,3.1787,3.1787,3.1787,3.1903,3.2076,3.2133,3.219,3.2326,3.2383,3.2383,3.2383,3.2383,3.2383,3.2383,3.2534,3.2669,3.2669,3.2669,3.2649,3.2649,3.2649,3.2669,3.2669,3.2669,3.2669,3.2669,3.2669,3.2669,3.2669,3.2669,3.2669,3.2669,3.2669,3.2669,3.2669,3.2669,3.2669,3.2669,3.2669,3.2669,3.2669,3.2669,3.2669,3.2669,3.2669,3.2669,3.2669,3.2669,3.2669,3.2669,3.2669,3.2669,3.2669,3.2669,3.2669,2.8481,2.8206,2.8103,2.8191,2.8248,2.8506,2.8707,2.8691,2.8995,2.9154,2.9154,2.9226,2.9226,2.9226,2.9298,2.9298,2.9298,2.9298,2.9282,2.9218,2.9186,2.9059,2.8789,2.8535,2.8563,2.8878,2.9195,2.9506,2.9849,3.0157,3.0429,3.0309,3.0052,2.9932,2.9864,2.9556,2.9581,2.9778,2.9857,3.0018,3.0296,3.0685,3.0926,3.1249,3.1699,3.2147,3.2594,3.2912,3.3418,3.4235,3.432,3.4057,3.3818,3.3799,3.3376,3.2955,3.2594,3.2414,3.2273,3.1954,3.1772,3.1792,3.1654,3.1787,3.173,3.1787,3.1787,3.1903,3.1903,3.1845,3.1845,3.1903,3.1903,3.1903,3.2326,3.2612,3.2669,3.2669,3.2669,3.2669,3.2669,3.2669,3.2669,3.2669,3.2669,3.2669,3.2669,3.2669,3.2669,3.2669,3.2669,3.2669,3.2669,3.2669,3.2669,3.2669,3.2669,3.2669,3.2669,3.2669,3.2669,3.2669,3.2669,3.2669,3.2669,3.2669,3.2669,3.2669,3.2669,3.2669,3.2669,3.2669,3.2669,3.2669,3.2669,2.8895,2.8788,2.8618,2.8438,2.8465,2.8324,2.8289,2.8274,2.8346,2.8491,2.8506,2.8707,2.8851,2.8923,2.9154,2.9298,2.9298,2.9298,2.9298,2.9298,2.9298,2.9266,2.9171,2.9059,2.9067,2.9177,2.9498,2.9818,2.994,3.0275,3.0412,3.0429,3.0361,3.0292,3.0241,2.9932,2.9828,2.9825,2.9567,2.9513,2.9643,2.9952,3.0148,3.026,3.1055,3.157,3.1891,3.253,3.3228,3.3922,3.3796,3.3757,3.3786,3.3404,3.3063,3.2905,3.253,3.2294,3.2195,3.188,3.1604,3.1545,3.1367,3.1228,3.1441,3.1441,3.1556,3.173,3.1787,3.1787,3.1787,3.1787,3.1787,3.1845,3.2133,3.244,3.2612,3.2669,3.2669,3.2669,3.2669,3.2669,3.2669,3.2669,3.2669,3.2669,3.2669,3.2669,3.2669,3.2669,3.2669,3.2669,3.2669,3.2669,3.2669,3.2669,3.2669,3.2669,3.2669,3.2669,3.2669,3.2669,3.2669,3.2669,3.2669,3.2669,3.2669,3.2669,3.2669,3.2669,3.2669,3.2669,3.2669,3.2669,3.2669,2.8762,2.8612,2.8417,2.8268,2.8297,2.8129,2.8052,2.8094,2.8118,2.813,2.8202,2.8563,2.8707,2.8707,2.9138,2.9298,2.9298,2.9298,2.9298,2.9298,2.9298,2.9282,2.9282,2.9298,2.9298,2.9354,2.9731,2.9916,3.0165,3.0455,3.0701,3.0891,3.0754,3.0686,3.0652,3.0309,3.0035,2.9881,2.9658,2.9504,2.9316,2.9495,2.9691,2.9887,3.0602,3.1138,3.1763,3.253,3.3165,3.3544,3.3481,3.3481,3.365,3.3328,3.3066,3.3027,3.2656,3.2422,3.2363,3.2031,3.1816,3.1719,3.1406,3.125,3.1348,3.1288,3.1228,3.1344,3.1402,3.1402,3.146,3.146,3.1518,3.1556,3.1787,3.2018,3.2248,3.2326,3.2326,3.2383,3.244,3.2555,3.2555,3.2612,3.2669,3.2669,3.2669,3.2669,3.2669,3.2669,3.2669,3.2669,3.2669,3.2669,3.2669,3.2669,3.2669,3.2669,3.2669,3.2669,3.2669,3.2669,3.2669,3.2669,3.2669,3.2669,3.2669,3.2669,3.2669,3.2669,3.2669,3.2711,3.2731,3.2855,3.2835,2.8315,2.7976,2.8022,2.7917,2.801,2.7985,2.794,2.7969,2.7903,2.7913,2.7985,2.8418,2.8563,2.8707,2.9082,2.9298,2.9298,2.9298,2.9298,2.9298,2.9298,2.9298,2.9298,2.9298,2.9298,2.9354,2.9728,2.9981,3.0288,3.073,3.1172,3.1265,3.1113,3.1097,3.0994,3.0686,3.0343,3.0138,3.0018,2.9778,2.9504,2.9502,2.9533,2.9757,3.023,3.1138,3.2038,3.2676,3.3058,3.3418,3.3418,3.3418,3.3418,3.3398,3.3398,3.334,3.3047,3.2871,3.2793,3.248,3.2226,3.2168,3.1836,3.1601,3.1523,3.1329,3.1074,3.1152,3.0918,3.1015,3.1015,3.0957,3.1054,3.1228,3.1267,3.1383,3.1614,3.173,3.1787,3.1787,3.2076,3.219,3.2305,3.242,3.2612,3.2555,3.2555,3.2612,3.2669,3.2669,3.2669,3.2669,3.2669,3.2669,3.2669,3.2669,3.2669,3.2669,3.2669,3.2669,3.2669,3.2669,3.2669,3.2669,3.2669,3.2669,3.2727,3.2669,3.2752,3.2954,3.3099,3.3016,3.2917,3.3182,3.3244,2.8754,2.8666,2.8432,2.8253,2.8242,2.7804,2.7629,2.76,2.7349,2.7274,2.742,2.7928,2.8202,2.8274,2.8938,2.9298,2.9298,2.9298,2.9298,2.9298,2.9298,2.9298,2.9298,2.9298,2.9298,2.9369,2.9728,2.9926,3.014,3.0655,3.1064,3.1118,3.1403,3.1439,3.1371,3.1063,3.0874,3.072,3.048,3.0138,2.9847,2.9761,2.969,2.9581,3.0053,3.1073,3.2102,3.2485,3.2804,3.3228,3.3355,3.3355,3.3355,3.3418,3.3418,3.3398,3.3359,3.3262,3.3203,3.291,3.2656,3.2617,3.2285,3.2031,3.2012,3.1641,3.1406,3.1309,3.1094,3.0937,3.0898,3.0898,3.0957,3.0995,3.0995,3.1054,3.117,3.1498,3.173,3.1787,3.1845,3.1903,3.1903,3.196,3.2153,3.2326,3.244,3.2498,3.2555,3.2669,3.2669,3.2669,3.2669,3.2669,3.2669,3.2669,3.2669,3.2669,3.2669,3.2793,3.2773,3.2752,3.2773,3.2731,3.2669,3.269,3.2871,3.312,3.3265,3.3368,3.3472,3.3492,3.3534,3.3617,3.3596,2.8886,2.8871,2.871,2.8651,2.8549,2.7978,2.77,2.7598,2.7188,2.6998,2.7129,2.7638,2.7928,2.8145,2.8707,2.9082,2.9298,2.9298,2.9298,2.9298,2.9298,2.9298,2.9298,2.9298,2.9298,2.9369,2.9513,2.9712,2.9997,3.0442,3.0797,3.101,3.1435,3.1542,3.1559,3.1371,3.1165,3.0994,3.0823,3.0532,3.0206,3.0138,3.0101,2.9872,3.0223,3.0879,3.1846,3.2102,3.2485,3.2975,3.3184,3.3228,3.3355,3.3418,3.3418,3.3418,3.3418,3.3418,3.334,3.3242,3.3086,3.3066,3.2695,3.2519,3.2363,3.207,3.1738,3.1543,3.1309,3.1133,3.0918,3.0898,3.0898,3.0898,3.0898,3.0898,3.0937,3.117,3.1402,3.1402,3.146,3.1556,3.1556,3.1614,3.1787,3.2018,3.2305,3.2363,3.2477,3.2555,3.2669,3.2669,3.2669,3.2669,3.2669,3.2669,3.2669,3.2669,3.2669,3.2913,3.3078,3.3037,3.2975,3.2954,3.2954,3.3037,3.3182,3.343,3.3679,3.3762,3.3865,3.401,3.4051,3.3969,3.3927,2.8886,2.8886,2.8886,2.8886,2.8783,2.8212,2.7844,2.7771,2.7261,2.6998,2.7071,2.742,2.7855,2.8145,2.8563,2.8923,2.9226,2.9298,2.9298,2.9298,2.9298,2.9298,2.9298,2.9298,2.9298,2.9298,2.9369,2.9513,2.9783,3.0228,3.0584,3.0939,3.1347,3.1559,3.1559,3.1613,3.1405,3.1183,3.1131,3.0909,3.0583,3.0515,3.0462,3.0452,3.0368,3.0781,3.1377,3.1709,3.2102,3.2721,3.2848,3.3038,3.3228,3.3355,3.3418,3.3418,3.3418,3.3418,3.3418,3.3398,3.3379,3.3398,3.3125,3.291,3.2793,3.2519,3.2168,3.1855,3.1621,3.1289,3.0957,3.0898,3.0898,3.0898,3.0898,3.0898,3.0898,3.0898,3.0957,3.0995,3.117,3.1208,3.1325,3.1383,3.1556,3.1787,3.2018,3.2248,3.2305,3.242,3.2555,3.2669,3.2669,3.2669,3.2669,3.2711,3.2711,3.2954,3.2892,3.3141,3.3389,3.343,3.341,3.3285,3.3285,3.3389,3.3596,3.3906,3.4093,3.4214,3.4341,3.4569,3.4486,3.43,3.43,2.8886,2.8886,2.8886,2.8886,2.8798,2.8227,2.7888,2.7847,2.7291,2.6998,2.7071,2.7405,2.7783,2.813,2.8475,2.8923,2.9226,2.9298,2.9298,2.9298,2.9298,2.9298,2.9298,2.9298,2.9298,2.9298,2.9314,2.9417,2.9585,3.0014,3.0442,3.0655,3.1277,3.1559,3.1559,3.1559,3.1542,3.1422,3.1405,3.1217,3.0994,3.0857,3.0857,3.0835,3.0603,3.0773,3.1193,3.1431,3.1699,3.2083,3.2594,3.2848,3.3038,3.3228,3.3355,3.3418,3.3418,3.3418,3.3418,3.3418,3.3418,3.3398,3.332,3.3301,3.3184,3.293,3.2637,3.2363,3.1894,3.1387,3.0957,3.1016,3.0937,3.0918,3.0996,3.0996,3.0976,3.0996,3.0996,3.0996,3.1015,3.0995,3.1112,3.117,3.1286,3.1402,3.1614,3.1903,3.2076,3.2248,3.244,3.2555,3.2669,3.2669,3.2669,3.2789,3.2871,3.3244,3.3348,3.3555,3.3762,3.3906,3.3886,3.3906,3.3865,3.3966,3.4194,3.4383,3.4527,3.4691,3.4879,3.5128,3.4983,3.4817,3.4962,2.8886,2.8886,2.8886,2.8886,2.8812,2.8403,2.802,2.7891,2.7452,2.7144,2.71,2.7202,2.7638,2.8057,2.8274,2.8707,2.9154,2.9298,2.9298,2.9298,2.9298,2.9298,2.9314,2.9314,2.9425,2.952,2.9568,2.9472,2.9385,3.0014,3.0387,3.0584,3.1206,3.1559,3.1559,3.1559,3.1559,3.1559,3.1542,3.1491,3.1285,3.1148,3.1047,3.0926,3.0802,3.0775,3.0796,3.105,3.132,3.1607,3.1955,3.2403,3.2785,3.3038,3.3228,3.3355,3.3418,3.3418,3.3418,3.3418,3.3418,3.3418,3.3418,3.3418,3.3379,3.3223,3.3027,3.2715,3.2324,3.1777,3.1601,3.1523,3.1543,3.1543,3.1523,3.1523,3.1543,3.1523,3.1406,3.123,3.1133,3.1035,3.0957,3.0995,3.0995,3.1054,3.1208,3.1498,3.1845,3.2076,3.2326,3.2559,3.2773,3.2954,3.2996,3.3099,3.3244,3.3575,3.3782,3.3989,3.4217,3.4362,3.461,3.4755,3.4672,3.4505,3.4629,3.4776,3.4941,3.5086,3.519,3.5293,3.5355,3.5418,3.5418,2.8886,2.8886,2.8886,2.8886,2.8842,2.8564,2.8242,2.7859,2.7613,2.7276,2.7013,2.7071,2.742,2.7913,2.8202,2.8635,2.9298,2.9298,2.9298,2.9298,2.9298,2.9314,2.9409,2.9441,2.9584,2.9901,2.9917,2.9774,2.976,3.0281,3.0502,3.0771,3.1291,3.1559,3.1559,3.1559,3.1559,3.1559,3.1559,3.1559,3.1474,3.1302,3.1131,3.101,3.0978,3.0769,3.0696,3.0705,3.0905,3.1197,3.146,3.1856,3.2485,3.2785,3.3058,3.3248,3.3374,3.3355,3.3418,3.3418,3.3418,3.3418,3.3418,3.3418,3.3418,3.3359,3.3223,3.2851,3.2519,3.2207,3.207,3.2129,3.2109,3.2109,3.209,3.2129,3.207,3.1992,3.1875,3.1641,3.1309,3.1113,3.1035,3.0898,3.0957,3.0957,3.1054,3.1208,3.1556,3.1903,3.2231,3.2584,3.288,3.3203,3.3348,3.3513,3.3741,3.4113,3.4318,3.4443,3.4652,3.4879,3.5086,3.519,3.5107,3.49,3.5045,3.5107,3.519,3.5293,3.5376,3.5418,3.5418,3.5418,3.5418,2.8886,2.8886,2.8886,2.8886,2.8842,2.8578,2.818,2.7934,2.7627,2.7305,2.6998,2.7071,2.7274,2.771,2.8346,2.8851,2.9154,2.9226,2.9226,2.9298,2.9345,2.9488,2.9711,2.9758,2.9949,3.0219,3.0267,3.0235,3.0271,3.0721,3.092,3.1015,3.1388,3.1576,3.1645,3.1645,3.1559,3.1559,3.1559,3.1559,3.1559,3.1491,3.1474,3.1301,3.0922,3.0581,3.0651,3.0566,3.0526,3.0663,3.1402,3.1744,3.1792,3.2466,3.2785,3.3038,3.3165,3.3418,3.3355,3.3418,3.3418,3.3418,3.3418,3.3418,3.3418,3.3398,3.3262,3.2851,3.2734,3.2598,3.2402,3.2246,3.2207,3.2266,3.2363,3.2366,3.2326,3.25,3.2363,3.2187,3.1894,3.1465,3.1191,3.1035,3.0898,3.0898,3.0957,3.1171,3.1405,3.1912,3.2516,3.2991,3.3231,3.3534,3.3803,3.4028,3.4217,3.4671,3.4714,3.4797,3.4983,3.5169,3.5273,3.5335,3.5273,3.5252,3.5273,3.5314,3.5397,3.5418,3.5418,3.5418,3.5418,3.5418,3.5418,2.8886,2.8886,2.8886,2.8886,2.8871,2.8739,2.8403,2.7917,2.7803,2.7466,2.7056,2.6998,2.7202,2.7623,2.813,2.8563,2.8923,2.901,2.9154,2.9377,2.9488,2.9679,2.9838,3.0029,3.0283,3.0553,3.0648,3.0775,3.0905,3.1137,3.1284,3.1397,3.1828,3.209,3.1919,3.1885,3.1748,3.1628,3.1559,3.1559,3.1559,3.1418,3.1277,3.1206,3.0684,3.0447,3.0316,3.0251,3.0224,3.0359,3.0772,3.1139,3.1512,3.1995,3.2211,3.2912,3.3038,3.3165,3.3355,3.3355,3.3418,3.3418,3.3418,3.3418,3.3418,3.3398,3.3379,3.3184,3.3164,3.3027,3.2891,3.2891,3.2871,3.2871,3.2754,3.2773,3.2773,3.2851,3.2891,3.2695,3.248,3.207,3.1758,3.1699,3.1601,3.1504,3.1602,3.1701,3.1999,3.2435,3.303,3.3682,3.3844,3.3948,3.4297,3.4526,3.4672,3.4962,3.5086,3.5169,3.5273,3.5397,3.5418,3.5418,3.5376,3.5376,3.5418,3.5418,3.5418,3.5418,3.5418,3.5418,3.5418,3.5418,3.5418,2.8886,2.8886,2.8886,2.8886,2.8886,2.8886,2.852,2.7903,2.7859,2.7583,2.7115,2.6998,2.7202,2.7565,2.7913,2.8274,2.8707,2.8785,2.9048,2.9391,2.9758,2.9997,3.0187,3.0394,3.0648,3.0982,3.0982,3.1093,3.1321,3.1582,3.1779,3.1663,3.2273,3.2428,3.233,3.2244,3.2124,3.1782,3.1748,3.1608,3.1452,3.1152,3.101,3.0797,3.048,3.0168,3.0078,2.9959,3.0057,3.0326,3.0378,3.0845,3.1325,3.1661,3.1893,3.2396,3.2657,3.3038,3.3228,3.3292,3.3355,3.3418,3.3418,3.3418,3.3418,3.3418,3.3418,3.3379,3.3379,3.3379,3.3398,3.3359,3.3301,3.3281,3.3301,3.3379,3.3398,3.3281,3.3203,3.3086,3.291,3.2832,3.2578,3.2519,3.2383,3.2187,3.2229,3.2248,3.2491,3.2874,3.3397,3.3996,3.4279,3.4403,3.4714,3.4983,3.519,3.5252,3.5376,3.5418,3.5418,3.5418,3.5418,3.5418,3.5418,3.5418,3.5418,3.5418,3.5418,3.5418,3.5418,3.5418,3.5418,3.5418,3.5418,2.8886,2.8886,2.8886,2.8886,2.8886,2.8886,2.8534,2.7917,2.7888,2.7583,2.7042,2.7071,2.7202,2.7492,2.7668,2.803,2.8738,2.9034,2.9378,2.9739,3.0124,3.0426,3.0616,3.0775,3.0982,3.1252,3.1268,3.13,3.1593,3.2108,3.2166,3.2118,3.2645,3.2702,3.2621,3.257,3.2415,3.2124,3.1967,3.1653,3.127,3.0956,3.0797,3.0442,3.0157,3.0053,3.0321,2.9987,2.9998,3.0335,3.0478,3.0634,3.0962,3.1396,3.1705,3.1949,3.2388,3.2753,3.295,3.3228,3.3355,3.3418,3.3418,3.3418,3.3418,3.3418,3.3418,3.3418,3.3418,3.3418,3.3418,3.3418,3.3418,3.3418,3.3418,3.3418,3.3418,3.3398,3.3359,3.3379,3.3301,3.3144,3.3105,3.2988,3.2832,3.2617,3.26,3.262,3.2828,3.3194,3.3599,3.4145,3.4551,3.4879,3.5211,3.5376,3.5335,3.5335,3.5397,3.5418,3.5418,3.5418,3.5418,3.5418,3.5418,3.5418,3.5418,3.5418,3.5418,3.5418,3.5418,3.5418,3.5418,3.5418,3.5418,2.8886,2.8886,2.8886,2.8886,2.8886,2.8886,2.8651,2.818,2.7961,2.7583,2.7013,2.6998,2.7056,2.7261,2.7511,2.7937,2.8642,2.9023,2.9501,3.0087,3.0473,3.0712,3.0902,3.1077,3.1268,3.1363,3.1395,3.1395,3.1456,3.2222,3.2479,3.2584,3.3001,3.3089,3.31,3.2861,3.2638,3.2411,3.2062,3.1625,3.138,3.0596,3.0211,3.0085,2.9728,2.9585,2.9656,2.9568,2.9774,3.0069,3.0293,3.0478,3.0754,3.1223,3.1522,3.1705,3.2153,3.2429,3.2651,3.3058,3.3355,3.3418,3.3418,3.3418,3.3418,3.3418,3.3418,3.3418,3.3418,3.3418,3.3418,3.3418,3.3418,3.3418,3.3418,3.3418,3.3418,3.3418,3.3418,3.3398,3.3398,3.334,3.3359,3.3359,3.3203,3.3047,3.2969,3.3034,3.3245,3.3514,3.3941,3.437,3.4759,3.5066,3.5376,3.5418,3.5418,3.5418,3.5418,3.5418,3.5418,3.5418,3.5418,3.5418,3.5418,3.5418,3.5418,3.5418,3.5418,3.5418,3.5418,3.5418,3.5418,3.5418,3.5418,2.8886,2.8886,2.8886,2.8886,2.8886,2.8886,2.871,2.8432,2.8122,2.7803,2.7291,2.7276,2.7276,2.7349,2.7718,2.8208,2.8818,2.9346,2.9844,3.0391,3.0807,3.0998,3.1109,3.122,3.1363,3.1395,3.1395,3.1395,3.1472,3.2222,3.2495,3.28,3.3365,3.3539,3.346,3.3186,3.2907,3.2589,3.2289,3.1571,3.1237,3.0539,2.9864,2.976,2.9441,2.9369,2.9369,2.9369,2.9585,2.9845,3.014,3.038,3.0683,3.1098,3.1328,3.1617,3.1884,3.2048,3.2402,3.2842,3.3248,3.3355,3.3418,3.3418,3.3418,3.3418,3.3418,3.3418,3.3418,3.3418,3.3418,3.3418,3.3418,3.3418,3.3418,3.3418,3.3418,3.3418,3.3418,3.3418,3.3418,3.3418,3.3418,3.3418,3.3359,3.3242,3.3223,3.3246,3.3434,3.3789,3.4242,3.4655,3.5005,3.5232,3.5418,3.5418,3.5418,3.5418,3.5418,3.5418,3.5418,3.5418,3.5418,3.5418,3.5418,3.5418,3.5418,3.5418,3.5418,3.5418,3.5418,3.5418,3.5418,3.5418,3.5418,2.8886,2.8886,2.8886,2.8886,2.8886,2.8886,2.8725,2.8491,2.8403,2.8107,2.7771,2.7771,2.7771,2.7937,2.8267,2.8687,2.9213,2.9866,3.0476,3.0858,3.1125,3.1315,3.1347,3.1379,3.1395,3.1395,3.1395,3.1395,3.1395,3.2146,3.2435,3.2757,3.3213,3.3744,3.3744,3.3727,3.3388,3.2783,3.2625,3.1745,3.0942,3.0422,2.9946,2.9585,2.9385,2.9298,2.9298,2.9298,2.9513,2.9751,3.0107,3.0281,3.0469,3.1115,3.1287,3.1246,3.1715,3.1987,3.2085,3.2603,3.3052,3.3311,3.3292,3.3418,3.3418,3.3418,3.3418,3.3418,3.3418,3.3418,3.3418,3.3418,3.3418,3.3418,3.3418,3.3418,3.3418,3.3418,3.3418,3.3418,3.3418,3.3418,3.3418,3.3418,3.3418,3.3398,3.3398,3.3481,3.3544,3.3922,3.4423,3.4673,3.5046,3.5294,3.5418,3.5418,3.5418,3.5418,3.5418,3.5418,3.5418,3.5418,3.5418,3.5418,3.5418,3.5418,3.5418,3.5418,3.5418,3.5418,3.5418,3.5418,3.5418,3.5418,3.5418,2.8886,2.8886,2.8886,2.8886,2.8886,2.8886,2.8827,2.871,2.852,2.8256,2.7917,2.7874,2.7874,2.8069,2.8624,2.9094,2.961,3.0283,3.0837,3.122,3.1347,3.1363,3.1395,3.1395,3.1395,3.1395,3.1395,3.1395,3.1395,3.1993,3.2146,3.2375,3.2985,3.3517,3.3592,3.3592,3.3188,3.2919,3.2342,3.1612,3.107,3.046,2.9936,2.9631,2.9425,2.9329,2.9298,2.9298,2.9369,2.9585,2.9942,3.0201,3.0439,3.0986,3.1252,3.1254,3.1681,3.193,3.229,3.2758,3.2944,3.311,3.3311,3.3355,3.3418,3.3418,3.3418,3.3418,3.3418,3.3418,3.3418,3.3418,3.3418,3.3418,3.3418,3.3418,3.3418,3.3418,3.3418,3.3418,3.3418,3.3418,3.3418,3.3418,3.3418,3.3418,3.3418,3.3418,3.3481,3.3985,3.4423,3.461,3.4922,3.5232,3.5418,3.5418,3.5418,3.5418,3.5418,3.5418,3.5418,3.5418,3.5418,3.5418,3.5418,3.5418,3.5418,3.5418,3.5418,3.5418,3.5418,3.5418,3.5418,3.5418,3.5418,2.8886,2.8886,2.8886,2.8886,2.8886,2.8886,2.8886,2.8856,2.8666,2.8461,2.8315,2.8286,2.83,2.8512,2.8998,2.9502,2.9916,3.0638,3.1087,3.1395,3.1395,3.1395,3.1395,3.1395,3.1395,3.1395,3.1395,3.1395,3.1395,3.1763,3.2069,3.2375,3.2681,3.3061,3.3213,3.3196,3.3044,3.2657,3.2054,3.1588,3.112,3.0665,3.0092,2.9838,2.9615,2.9441,2.9345,2.9298,2.9298,2.9441,2.9656,3.0069,3.0442,3.0747,3.1158,3.1391,3.1565,3.1837,3.23,3.2689,3.2824,3.2963,3.3218,3.3355,3.3418,3.3418,3.3418,3.3418,3.3418,3.3418,3.3418,3.3418,3.3418,3.3418,3.3418,3.3418,3.3418,3.3418,3.3418,3.3418,3.3418,3.3418,3.3418,3.3418,3.3418,3.3418,3.3418,3.3418,3.3418,3.3985,3.4423,3.461,3.4859,3.5232,3.5418,3.5418,3.5418,3.5418,3.5418,3.5418,3.5418,3.5418,3.5418,3.5418,3.5418,3.5418,3.5418,3.5418,3.5418,3.5418,3.5418,3.5418,3.5418,3.5418,3.5418,2.8886,2.8886,2.8886,2.8886,2.8886,2.8886,2.8886,2.8886,2.8886,2.8856,2.8856,2.8812,2.8846,2.906,2.9726,3.0098,3.0238,3.0994,3.1302,3.1379,3.1395,3.1395,3.1395,3.1395,3.1395,3.1395,3.1395,3.1395,3.1456,3.1686,3.2069,3.2359,3.2452,3.2604,3.2681,3.274,3.2588,3.2266,3.1928,3.1538,3.1118,3.0898,3.0458,3.014,2.9854,2.9615,2.9472,2.9345,2.9314,2.9441,2.9712,3.0014,3.0442,3.0797,3.1206,3.1456,3.1548,3.1842,3.2218,3.2557,3.2848,3.3133,3.336,3.3384,3.3418,3.3418,3.3418,3.3418,3.3418,3.3418,3.3418,3.3418,3.3418,3.3418,3.3418,3.3418,3.3418,3.3418,3.3418,3.3418,3.3418,3.3418,3.3418,3.3418,3.3418,3.3418,3.3418,3.3418,3.3544,3.4047,3.436,3.4485,3.4859,3.5294,3.5418,3.5418,3.5418,3.5418,3.5418,3.5418,3.5418,3.5418,3.5418,3.5418,3.5418,3.5418,3.5418,3.5418,3.5418,3.5418,3.5418,3.5418,3.5418,3.5418,3.5418,2.8886,2.8886,2.8886,2.8886,2.8886,2.8886,2.8886,2.8886,2.8886,2.8886,2.8886,2.8886,2.9134,2.9368,2.9819,3.0299,3.0701,3.1087,3.1318,3.1395,3.1395,3.1395,3.1395,3.1395,3.1395,3.1395,3.1395,3.1395,3.1395,3.1625,3.1625,3.1702,3.2069,3.1993,3.1993,3.2146,3.2146,3.1993,3.1763,3.1453,3.1233,3.1014,3.0728,3.0489,3.0044,2.9806,2.9647,2.9465,2.9401,2.9441,2.9712,3.0069,3.037,3.0797,3.1206,3.1559,3.1808,3.2088,3.254,3.2856,3.3157,3.3404,3.3745,3.3643,3.3544,3.3413,3.3413,3.3437,3.3418,3.3418,3.3418,3.3418,3.3418,3.3418,3.3418,3.3418,3.3418,3.3418,3.3418,3.3418,3.3418,3.3418,3.3418,3.3418,3.3418,3.3418,3.3418,3.3418,3.3607,3.4047,3.436,3.4485,3.4859,3.5356,3.5418,3.5418,3.5418,3.5418,3.5418,3.5418,3.5418,3.5418,3.5418,3.5418,3.5418,3.5418,3.5418,3.5418,3.5418,3.5418,3.5418,3.5418,3.5418,3.5418,3.5418,2.8886,2.8886,2.8886,2.8886,2.8886,2.9056,2.9119,2.9119,2.9134,2.9212,2.9353,2.9353,2.9523,2.9756,3.0222,3.0531,3.0778,3.1164,3.1395,3.1395,3.1395,3.1395,3.1395,3.1395,3.1395,3.1395,3.1395,3.1395,3.1395,3.1395,3.1395,3.1472,3.1686,3.1609,3.1609,3.1686,3.1763,3.1686,3.1533,3.1472,3.13,3.1157,3.1045,3.0775,3.0283,3.0102,3.0025,2.9721,2.9617,2.9728,2.9997,3.0283,3.0655,3.0993,3.1277,3.163,3.1754,3.2158,3.2543,3.2784,3.3258,3.3687,3.405,3.4011,3.3921,3.3778,3.3608,3.3496,3.3437,3.3418,3.3418,3.3418,3.3418,3.3418,3.3418,3.3418,3.3418,3.3418,3.3418,3.3418,3.3418,3.3418,3.3418,3.3418,3.3418,3.3418,3.3418,3.3418,3.3607,3.4047,3.4298,3.4423,3.4922,3.5418,3.5418,3.5418,3.5418,3.5418,3.5418,3.5418,3.5418,3.5418,3.5418,3.5418,3.5418,3.5418,3.5418,3.5418,3.5418,3.5418,3.5418,3.5418,3.5418,3.5418,3.5418,2.8886,2.8886,2.8886,2.8964,2.8964,2.9368,2.9523,2.9601,2.9679,2.9756,3.0067,3.0052,3.0052,3.0222,3.0547,3.0778,3.101,3.1241,3.1395,3.1395,3.1395,3.1395,3.1395,3.1395,3.1395,3.1395,3.1395,3.1395,3.1395,3.1395,3.1395,3.1395,3.1472,3.1395,3.1472,3.1472,3.1533,3.1472,3.1472,3.1395,3.1395,3.1331,3.1236,3.101,3.0628,3.0457,3.0397,3.0235,3.0101,3.0316,3.0584,3.0726,3.1135,3.1489,3.17,3.1771,3.1841,3.2281,3.2701,3.2927,3.3182,3.3619,3.4064,3.4203,3.4154,3.405,3.3828,3.3633,3.3574,3.3457,3.3418,3.3418,3.3418,3.3418,3.3418,3.3418,3.3418,3.3418,3.3418,3.3418,3.3418,3.3418,3.3418,3.3418,3.3418,3.3418,3.3418,3.3418,3.3607,3.4047,3.4235,3.4423,3.4922,3.5356,3.5418,3.5418,3.5418,3.5418,3.5418,3.5418,3.5418,3.5418,3.5418,3.5418,3.5418,3.5418,3.5418,3.5418,3.5418,3.5418,3.5418,3.5418,3.5418,3.5418,3.5418,2.8886,2.8886,2.8886,2.9056,2.9368,2.9446,2.9927,3.0469,3.0469,3.0314,3.0129,3.0129,3.0299,3.0624,3.0778,3.0933,3.1241,3.1318,3.1395,3.1395,3.1395,3.1395,3.1395,3.1395,3.1395,3.1395,3.1395,3.1472,3.1456,3.1472,3.1472,3.1472,3.1472,3.1549,3.1533,3.1533,3.1549,3.1472,3.1472,3.1472,3.1395,3.1395,3.13,3.1293,3.1113,3.0969,3.0852,3.0802,3.0778,3.0864,3.1152,3.1489,3.1841,3.2193,3.2193,3.2123,3.2193,3.2561,3.2929,3.3139,3.3378,3.3845,3.4265,3.435,3.4356,3.4231,3.4043,3.3867,3.3691,3.3535,3.3437,3.3437,3.3418,3.3418,3.3418,3.3418,3.3418,3.3418,3.3418,3.3418,3.3418,3.3418,3.3418,3.3418,3.3418,3.3418,3.3418,3.3418,3.3607,3.3922,3.4235,3.4485,3.5046,3.5356,3.5356,3.5418,3.5418,3.5418,3.5418,3.5418,3.5418,3.5418,3.5418,3.5418,3.5418,3.5418,3.5418,3.5418,3.5418,3.5418,3.5418,3.5418,3.5418,3.5418,3.5418,2.8886,2.89,2.9119,2.9368,2.9756,3.0004,3.0392,3.0778,3.101,3.0933,3.0686,3.0686,3.084,3.1087,3.1087,3.1087,3.1395,3.1395,3.1395,3.1395,3.1395,3.1395,3.1395,3.1395,3.1395,3.1395,3.1609,3.1686,3.1686,3.1916,3.1993,3.1916,3.1916,3.1916,3.1916,3.1916,3.1763,3.1686,3.1686,3.1609,3.1472,3.1395,3.1395,3.1437,3.1425,3.1296,3.1384,3.1314,3.1452,3.1608,3.1859,3.2052,3.2333,3.2491,3.2561,3.2474,3.2561,3.2859,3.3209,3.3418,3.3608,3.4094,3.449,3.4656,3.5007,3.4879,3.4629,3.4414,3.3984,3.3809,3.3672,3.3652,3.3476,3.3418,3.3418,3.3418,3.3418,3.3418,3.3418,3.3418,3.3418,3.3418,3.3418,3.3418,3.3418,3.3418,3.3418,3.3418,3.3607,3.3922,3.4235,3.4548,3.5046,3.5356,3.5356,3.5418,3.5418,3.5418,3.5418,3.5418,3.5418,3.5418,3.5418,3.5418,3.5418,3.5418,3.5418,3.5418,3.5418,3.5418,3.5418,3.5418,3.5418,3.5418,3.5418,2.9042,2.9119,2.9446,2.9834,3.0222,3.0624,3.0778,3.0933,3.1241,3.1395,3.1318,3.1318,3.1395,3.1395,3.1395,3.1395,3.1395,3.1395,3.1395,3.1395,3.1395,3.1395,3.1395,3.1395,3.1472,3.1609,3.1763,3.1993,3.2069,3.2299,3.2435,3.2588,3.2588,3.2588,3.2588,3.2512,3.2375,3.2146,3.2069,3.1916,3.1686,3.1456,3.1395,3.1421,3.1549,3.1661,3.1745,3.1963,3.2182,3.2473,3.2684,3.2701,3.2911,3.2981,3.2981,3.2981,3.3191,3.34,3.3608,3.3747,3.4024,3.437,3.4784,3.5089,3.5354,3.5394,3.5148,3.4883,3.4473,3.4141,3.4023,3.3828,3.3633,3.3476,3.3476,3.3418,3.3418,3.3418,3.3418,3.3418,3.3418,3.3418,3.3418,3.3418,3.3418,3.3418,3.3418,3.3418,3.3544,3.3922,3.4298,3.461,3.5046,3.5232,3.5356,3.5418,3.5418,3.5418,3.5418,3.5418,3.5418,3.5418,3.5418,3.5418,3.5418,3.5418,3.5418,3.5418,3.5418,3.5418,3.5418,3.5418,3.5418,3.5418,3.5418,2.9601,2.9897,2.9974,3.0222,3.0624,3.0778,3.101,3.1241,3.1318,3.1395,3.1395,3.1395,3.1395,3.1395,3.1395,3.1395,3.1395,3.1395,3.1395,3.1395,3.1395,3.1395,3.1395,3.1395,3.1625,3.184,3.1993,3.2222,3.2528,3.2588,3.2664,3.2757,3.274,3.2664,3.2681,3.2681,3.2816,3.2664,3.2588,3.2528,3.2222,3.1916,3.1472,3.1654,3.2081,3.2274,3.2483,3.2865,3.3211,3.3429,3.3511,3.3454,3.3469,3.3678,3.3747,3.3747,3.3955,3.4163,3.4301,3.437,3.4646,3.4715,3.5127,3.5333,3.5568,3.5772,3.5597,3.5566,3.5156,3.4707,3.4492,3.418,3.3945,3.3769,3.3691,3.3516,3.3418,3.3418,3.3418,3.3418,3.3418,3.3418,3.3418,3.3418,3.3418,3.3418,3.3418,3.3418,3.3481,3.3922,3.436,3.4673,3.4984,3.5232,3.5418,3.5418,3.5418,3.5418,3.5418,3.5418,3.5418,3.5418,3.5418,3.5418,3.5418,3.5418,3.5418,3.5418,3.5418,3.5418,3.5418,3.5418,3.5418,3.5418,3.5418]}]]